<?xml version="1.0" encoding="UTF-8" standalone="no" ?>
<gpx xmlns="http://www.topografix.com/GPX/1/1" xmlns:xsi="http://www.w3.org/2001/XMLSchema-instance" xsi:schemaLocation="http://www.topografix.com/GPX/1/1 http://www.topografix.com/GPX/1/1/gpx.xsd" version="1.1" creator="VisuGPX - https://www.visugpx.com">
  <metadata>
    <name>Bois d'Ennebourg 13Km1</name>
    <desc><![CDATA[Circuit A-R au départ de l'Eglise du Bois d'Ennebourg]]></desc>
  </metadata>
  <trk>
    <name><![CDATA[Bois d'Ennebourg 13Km1_1]]></name>
    <trkseg>
      <trkpt lat="49.43302" lon="1.2568">
        <ele>154</ele>
        <time>2017-03-07T13:57:38Z</time>
      </trkpt>
      <trkpt lat="49.43301" lon="1.25678">
        <ele>154</ele>
        <time>2017-03-07T13:57:38Z</time>
      </trkpt>
      <trkpt lat="49.43301" lon="1.25677">
        <ele>154</ele>
        <time>2017-03-07T13:57:39Z</time>
      </trkpt>
      <trkpt lat="49.43301" lon="1.25677">
        <ele>154</ele>
        <time>2017-03-07T13:57:39Z</time>
      </trkpt>
      <trkpt lat="49.433" lon="1.25676">
        <ele>154</ele>
        <time>2017-03-07T13:57:39Z</time>
      </trkpt>
      <trkpt lat="49.433" lon="1.25676">
        <ele>154</ele>
        <time>2017-03-07T13:58:10Z</time>
      </trkpt>
      <trkpt lat="49.43301" lon="1.25676">
        <ele>154</ele>
        <time>2017-03-07T13:58:10Z</time>
      </trkpt>
      <trkpt lat="49.43301" lon="1.2567">
        <ele>154</ele>
        <time>2017-03-07T13:58:10Z</time>
      </trkpt>
      <trkpt lat="49.433" lon="1.2566">
        <ele>154</ele>
        <time>2017-03-07T13:58:10Z</time>
      </trkpt>
      <trkpt lat="49.43301" lon="1.25652">
        <ele>154</ele>
        <time>2017-03-07T13:58:10Z</time>
      </trkpt>
      <trkpt lat="49.43302" lon="1.25645">
        <ele>154</ele>
        <time>2017-03-07T13:58:42Z</time>
      </trkpt>
      <trkpt lat="49.43302" lon="1.25644">
        <ele>154</ele>
        <time>2017-03-07T13:58:42Z</time>
      </trkpt>
      <trkpt lat="49.43303" lon="1.2564">
        <ele>154</ele>
        <time>2017-03-07T13:58:42Z</time>
      </trkpt>
      <trkpt lat="49.43305" lon="1.25638">
        <ele>154</ele>
        <time>2017-03-07T13:58:42Z</time>
      </trkpt>
      <trkpt lat="49.43306" lon="1.25636">
        <ele>154</ele>
        <time>2017-03-07T13:58:42Z</time>
      </trkpt>
      <trkpt lat="49.43308" lon="1.25632">
        <ele>154</ele>
        <time>2017-03-07T13:58:58Z</time>
      </trkpt>
      <trkpt lat="49.43308" lon="1.25629">
        <ele>154</ele>
        <time>2017-03-07T13:58:58Z</time>
      </trkpt>
      <trkpt lat="49.43308" lon="1.25625">
        <ele>155</ele>
        <time>2017-03-07T13:58:58Z</time>
      </trkpt>
      <trkpt lat="49.43308" lon="1.25618">
        <ele>155</ele>
        <time>2017-03-07T13:58:58Z</time>
      </trkpt>
      <trkpt lat="49.43307" lon="1.25598">
        <ele>155</ele>
        <time>2017-03-07T13:59:30Z</time>
      </trkpt>
      <trkpt lat="49.43307" lon="1.25597">
        <ele>155</ele>
        <time>2017-03-07T13:59:30Z</time>
      </trkpt>
      <trkpt lat="49.43306" lon="1.25592">
        <ele>155</ele>
        <time>2017-03-07T13:59:30Z</time>
      </trkpt>
      <trkpt lat="49.43304" lon="1.25583">
        <ele>155</ele>
        <time>2017-03-07T13:59:30Z</time>
      </trkpt>
      <trkpt lat="49.43303" lon="1.25576">
        <ele>155</ele>
        <time>2017-03-07T13:59:31Z</time>
      </trkpt>
      <trkpt lat="49.43301" lon="1.25561">
        <ele>155</ele>
        <time>2017-03-07T14:00:05Z</time>
      </trkpt>
      <trkpt lat="49.43301" lon="1.25559">
        <ele>155</ele>
        <time>2017-03-07T14:00:06Z</time>
      </trkpt>
      <trkpt lat="49.43299" lon="1.2555">
        <ele>155</ele>
        <time>2017-03-07T14:00:06Z</time>
      </trkpt>
      <trkpt lat="49.43299" lon="1.25549">
        <ele>155</ele>
        <time>2017-03-07T14:00:06Z</time>
      </trkpt>
      <trkpt lat="49.43298" lon="1.25544">
        <ele>155</ele>
        <time>2017-03-07T14:00:06Z</time>
      </trkpt>
      <trkpt lat="49.43298" lon="1.25538">
        <ele>155</ele>
        <time>2017-03-07T14:00:21Z</time>
      </trkpt>
      <trkpt lat="49.43297" lon="1.2553">
        <ele>155</ele>
        <time>2017-03-07T14:00:22Z</time>
      </trkpt>
      <trkpt lat="49.43296" lon="1.25522">
        <ele>155</ele>
        <time>2017-03-07T14:00:22Z</time>
      </trkpt>
      <trkpt lat="49.43295" lon="1.25511">
        <ele>155</ele>
        <time>2017-03-07T14:00:22Z</time>
      </trkpt>
      <trkpt lat="49.43294" lon="1.25505">
        <ele>155</ele>
        <time>2017-03-07T14:00:37Z</time>
      </trkpt>
      <trkpt lat="49.43292" lon="1.25499">
        <ele>155</ele>
        <time>2017-03-07T14:00:38Z</time>
      </trkpt>
      <trkpt lat="49.43291" lon="1.25491">
        <ele>152</ele>
        <time>2017-03-07T14:00:38Z</time>
      </trkpt>
      <trkpt lat="49.43289" lon="1.25486">
        <ele>152</ele>
        <time>2017-03-07T14:00:38Z</time>
      </trkpt>
      <trkpt lat="49.43288" lon="1.25476">
        <ele>152</ele>
        <time>2017-03-07T14:00:54Z</time>
      </trkpt>
      <trkpt lat="49.43287" lon="1.25472">
        <ele>152</ele>
        <time>2017-03-07T14:00:54Z</time>
      </trkpt>
      <trkpt lat="49.43286" lon="1.25464">
        <ele>152</ele>
        <time>2017-03-07T14:00:54Z</time>
      </trkpt>
      <trkpt lat="49.43285" lon="1.25459">
        <ele>152</ele>
        <time>2017-03-07T14:00:54Z</time>
      </trkpt>
      <trkpt lat="49.43283" lon="1.25452">
        <ele>152</ele>
        <time>2017-03-07T14:01:09Z</time>
      </trkpt>
      <trkpt lat="49.43282" lon="1.25443">
        <ele>152</ele>
        <time>2017-03-07T14:01:10Z</time>
      </trkpt>
      <trkpt lat="49.43282" lon="1.25436">
        <ele>152</ele>
        <time>2017-03-07T14:01:10Z</time>
      </trkpt>
      <trkpt lat="49.43281" lon="1.2543">
        <ele>152</ele>
        <time>2017-03-07T14:01:10Z</time>
      </trkpt>
      <trkpt lat="49.4328" lon="1.25425">
        <ele>152</ele>
        <time>2017-03-07T14:01:27Z</time>
      </trkpt>
      <trkpt lat="49.43279" lon="1.25418">
        <ele>152</ele>
        <time>2017-03-07T14:01:27Z</time>
      </trkpt>
      <trkpt lat="49.43278" lon="1.25413">
        <ele>152</ele>
        <time>2017-03-07T14:01:27Z</time>
      </trkpt>
      <trkpt lat="49.43277" lon="1.25405">
        <ele>152</ele>
        <time>2017-03-07T14:01:27Z</time>
      </trkpt>
      <trkpt lat="49.43276" lon="1.254">
        <ele>152</ele>
        <time>2017-03-07T14:01:42Z</time>
      </trkpt>
      <trkpt lat="49.43274" lon="1.25391">
        <ele>152</ele>
        <time>2017-03-07T14:01:42Z</time>
      </trkpt>
      <trkpt lat="49.43274" lon="1.25384">
        <ele>152</ele>
        <time>2017-03-07T14:01:42Z</time>
      </trkpt>
      <trkpt lat="49.43273" lon="1.25378">
        <ele>152</ele>
        <time>2017-03-07T14:01:42Z</time>
      </trkpt>
      <trkpt lat="49.43272" lon="1.25374">
        <ele>151</ele>
        <time>2017-03-07T14:01:58Z</time>
      </trkpt>
      <trkpt lat="49.4327" lon="1.25365">
        <ele>151</ele>
        <time>2017-03-07T14:01:58Z</time>
      </trkpt>
      <trkpt lat="49.43268" lon="1.25359">
        <ele>151</ele>
        <time>2017-03-07T14:01:58Z</time>
      </trkpt>
      <trkpt lat="49.43267" lon="1.25354">
        <ele>151</ele>
        <time>2017-03-07T14:01:58Z</time>
      </trkpt>
      <trkpt lat="49.43265" lon="1.25347">
        <ele>151</ele>
        <time>2017-03-07T14:02:14Z</time>
      </trkpt>
      <trkpt lat="49.43263" lon="1.25339">
        <ele>151</ele>
        <time>2017-03-07T14:02:15Z</time>
      </trkpt>
      <trkpt lat="49.43262" lon="1.25333">
        <ele>151</ele>
        <time>2017-03-07T14:02:15Z</time>
      </trkpt>
      <trkpt lat="49.4326" lon="1.25328">
        <ele>151</ele>
        <time>2017-03-07T14:02:15Z</time>
      </trkpt>
      <trkpt lat="49.4326" lon="1.2532">
        <ele>151</ele>
        <time>2017-03-07T14:02:30Z</time>
      </trkpt>
      <trkpt lat="49.43258" lon="1.25314">
        <ele>151</ele>
        <time>2017-03-07T14:02:30Z</time>
      </trkpt>
      <trkpt lat="49.43258" lon="1.25308">
        <ele>151</ele>
        <time>2017-03-07T14:02:30Z</time>
      </trkpt>
      <trkpt lat="49.43257" lon="1.25301">
        <ele>151</ele>
        <time>2017-03-07T14:02:30Z</time>
      </trkpt>
      <trkpt lat="49.43256" lon="1.25294">
        <ele>151</ele>
        <time>2017-03-07T14:02:45Z</time>
      </trkpt>
      <trkpt lat="49.43255" lon="1.2529">
        <ele>153</ele>
        <time>2017-03-07T14:02:46Z</time>
      </trkpt>
      <trkpt lat="49.43252" lon="1.2528">
        <ele>153</ele>
        <time>2017-03-07T14:02:46Z</time>
      </trkpt>
      <trkpt lat="49.43251" lon="1.25273">
        <ele>153</ele>
        <time>2017-03-07T14:02:46Z</time>
      </trkpt>
      <trkpt lat="49.43249" lon="1.25266">
        <ele>153</ele>
        <time>2017-03-07T14:03:02Z</time>
      </trkpt>
      <trkpt lat="49.43248" lon="1.2526">
        <ele>153</ele>
        <time>2017-03-07T14:03:02Z</time>
      </trkpt>
      <trkpt lat="49.43247" lon="1.25255">
        <ele>153</ele>
        <time>2017-03-07T14:03:02Z</time>
      </trkpt>
      <trkpt lat="49.43246" lon="1.25248">
        <ele>153</ele>
        <time>2017-03-07T14:03:02Z</time>
      </trkpt>
      <trkpt lat="49.43245" lon="1.25241">
        <ele>153</ele>
        <time>2017-03-07T14:03:22Z</time>
      </trkpt>
      <trkpt lat="49.43244" lon="1.25234">
        <ele>153</ele>
        <time>2017-03-07T14:03:23Z</time>
      </trkpt>
      <trkpt lat="49.43243" lon="1.25234">
        <ele>153</ele>
        <time>2017-03-07T14:03:23Z</time>
      </trkpt>
      <trkpt lat="49.43243" lon="1.25233">
        <ele>153</ele>
        <time>2017-03-07T14:03:23Z</time>
      </trkpt>
      <trkpt lat="49.4324" lon="1.2522">
        <ele>153</ele>
        <time>2017-03-07T14:03:23Z</time>
      </trkpt>
      <trkpt lat="49.43239" lon="1.25214">
        <ele>153</ele>
        <time>2017-03-07T14:03:37Z</time>
      </trkpt>
      <trkpt lat="49.43238" lon="1.25206">
        <ele>153</ele>
        <time>2017-03-07T14:03:38Z</time>
      </trkpt>
      <trkpt lat="49.43236" lon="1.25196">
        <ele>153</ele>
        <time>2017-03-07T14:03:38Z</time>
      </trkpt>
      <trkpt lat="49.43234" lon="1.25189">
        <ele>153</ele>
        <time>2017-03-07T14:03:38Z</time>
      </trkpt>
      <trkpt lat="49.43232" lon="1.25181">
        <ele>153</ele>
        <time>2017-03-07T14:03:54Z</time>
      </trkpt>
      <trkpt lat="49.43231" lon="1.25177">
        <ele>153</ele>
        <time>2017-03-07T14:03:54Z</time>
      </trkpt>
      <trkpt lat="49.43229" lon="1.25166">
        <ele>153</ele>
        <time>2017-03-07T14:03:54Z</time>
      </trkpt>
      <trkpt lat="49.43227" lon="1.25161">
        <ele>153</ele>
        <time>2017-03-07T14:03:54Z</time>
      </trkpt>
      <trkpt lat="49.43225" lon="1.25152">
        <ele>153</ele>
        <time>2017-03-07T14:04:10Z</time>
      </trkpt>
      <trkpt lat="49.43223" lon="1.25147">
        <ele>153</ele>
        <time>2017-03-07T14:04:10Z</time>
      </trkpt>
      <trkpt lat="49.43222" lon="1.25138">
        <ele>153</ele>
        <time>2017-03-07T14:04:10Z</time>
      </trkpt>
      <trkpt lat="49.43222" lon="1.25131">
        <ele>153</ele>
        <time>2017-03-07T14:04:10Z</time>
      </trkpt>
      <trkpt lat="49.43221" lon="1.25125">
        <ele>151</ele>
        <time>2017-03-07T14:04:26Z</time>
      </trkpt>
      <trkpt lat="49.4322" lon="1.25119">
        <ele>151</ele>
        <time>2017-03-07T14:04:26Z</time>
      </trkpt>
      <trkpt lat="49.43217" lon="1.25114">
        <ele>151</ele>
        <time>2017-03-07T14:04:26Z</time>
      </trkpt>
      <trkpt lat="49.43215" lon="1.25106">
        <ele>151</ele>
        <time>2017-03-07T14:04:26Z</time>
      </trkpt>
      <trkpt lat="49.43215" lon="1.25101">
        <ele>151</ele>
        <time>2017-03-07T14:04:43Z</time>
      </trkpt>
      <trkpt lat="49.43213" lon="1.25096">
        <ele>151</ele>
        <time>2017-03-07T14:04:43Z</time>
      </trkpt>
      <trkpt lat="49.43212" lon="1.25092">
        <ele>151</ele>
        <time>2017-03-07T14:04:43Z</time>
      </trkpt>
      <trkpt lat="49.43211" lon="1.25088">
        <ele>151</ele>
        <time>2017-03-07T14:04:44Z</time>
      </trkpt>
      <trkpt lat="49.4321" lon="1.25085">
        <ele>151</ele>
        <time>2017-03-07T14:05:02Z</time>
      </trkpt>
      <trkpt lat="49.43207" lon="1.25081">
        <ele>154</ele>
        <time>2017-03-07T14:05:02Z</time>
      </trkpt>
      <trkpt lat="49.43206" lon="1.2508">
        <ele>154</ele>
        <time>2017-03-07T14:05:02Z</time>
      </trkpt>
      <trkpt lat="49.43208" lon="1.25073">
        <ele>154</ele>
        <time>2017-03-07T14:05:03Z</time>
      </trkpt>
      <trkpt lat="49.43206" lon="1.25059">
        <ele>154</ele>
        <time>2017-03-07T14:05:03Z</time>
      </trkpt>
      <trkpt lat="49.43205" lon="1.25054">
        <ele>154</ele>
        <time>2017-03-07T14:05:19Z</time>
      </trkpt>
      <trkpt lat="49.43203" lon="1.25047">
        <ele>154</ele>
        <time>2017-03-07T14:05:19Z</time>
      </trkpt>
      <trkpt lat="49.43203" lon="1.2504">
        <ele>154</ele>
        <time>2017-03-07T14:05:19Z</time>
      </trkpt>
      <trkpt lat="49.43201" lon="1.25036">
        <ele>154</ele>
        <time>2017-03-07T14:05:19Z</time>
      </trkpt>
      <trkpt lat="49.43199" lon="1.25028">
        <ele>154</ele>
        <time>2017-03-07T14:05:33Z</time>
      </trkpt>
      <trkpt lat="49.43198" lon="1.2502">
        <ele>154</ele>
        <time>2017-03-07T14:05:34Z</time>
      </trkpt>
      <trkpt lat="49.43198" lon="1.25018">
        <ele>154</ele>
        <time>2017-03-07T14:05:34Z</time>
      </trkpt>
      <trkpt lat="49.43198" lon="1.25012">
        <ele>154</ele>
        <time>2017-03-07T14:05:34Z</time>
      </trkpt>
      <trkpt lat="49.43196" lon="1.25006">
        <ele>154</ele>
        <time>2017-03-07T14:05:49Z</time>
      </trkpt>
      <trkpt lat="49.43194" lon="1.24998">
        <ele>154</ele>
        <time>2017-03-07T14:05:50Z</time>
      </trkpt>
      <trkpt lat="49.43195" lon="1.24995">
        <ele>154</ele>
        <time>2017-03-07T14:05:50Z</time>
      </trkpt>
      <trkpt lat="49.43194" lon="1.24991">
        <ele>154</ele>
        <time>2017-03-07T14:05:50Z</time>
      </trkpt>
      <trkpt lat="49.43203" lon="1.24986">
        <ele>154</ele>
        <time>2017-03-07T14:07:14Z</time>
      </trkpt>
      <trkpt lat="49.43203" lon="1.24986">
        <ele>154</ele>
        <time>2017-03-07T14:07:14Z</time>
      </trkpt>
      <trkpt lat="49.43203" lon="1.24985">
        <ele>154</ele>
        <time>2017-03-07T14:07:14Z</time>
      </trkpt>
      <trkpt lat="49.43201" lon="1.24978">
        <ele>154</ele>
        <time>2017-03-07T14:07:14Z</time>
      </trkpt>
      <trkpt lat="49.43199" lon="1.2497">
        <ele>154</ele>
        <time>2017-03-07T14:07:14Z</time>
      </trkpt>
      <trkpt lat="49.43198" lon="1.24962">
        <ele>154</ele>
        <time>2017-03-07T14:07:30Z</time>
      </trkpt>
      <trkpt lat="49.43198" lon="1.24955">
        <ele>155</ele>
        <time>2017-03-07T14:07:30Z</time>
      </trkpt>
      <trkpt lat="49.43199" lon="1.24949">
        <ele>155</ele>
        <time>2017-03-07T14:07:30Z</time>
      </trkpt>
      <trkpt lat="49.43198" lon="1.24945">
        <ele>155</ele>
        <time>2017-03-07T14:07:30Z</time>
      </trkpt>
      <trkpt lat="49.43196" lon="1.24938">
        <ele>155</ele>
        <time>2017-03-07T14:07:46Z</time>
      </trkpt>
      <trkpt lat="49.43195" lon="1.24929">
        <ele>155</ele>
        <time>2017-03-07T14:07:46Z</time>
      </trkpt>
      <trkpt lat="49.43194" lon="1.24924">
        <ele>155</ele>
        <time>2017-03-07T14:07:46Z</time>
      </trkpt>
      <trkpt lat="49.43192" lon="1.24919">
        <ele>155</ele>
        <time>2017-03-07T14:07:46Z</time>
      </trkpt>
      <trkpt lat="49.43187" lon="1.24912">
        <ele>155</ele>
        <time>2017-03-07T14:08:02Z</time>
      </trkpt>
      <trkpt lat="49.43184" lon="1.24902">
        <ele>155</ele>
        <time>2017-03-07T14:08:02Z</time>
      </trkpt>
      <trkpt lat="49.43186" lon="1.24894">
        <ele>155</ele>
        <time>2017-03-07T14:08:02Z</time>
      </trkpt>
      <trkpt lat="49.43187" lon="1.24889">
        <ele>155</ele>
        <time>2017-03-07T14:08:02Z</time>
      </trkpt>
      <trkpt lat="49.43186" lon="1.24882">
        <ele>155</ele>
        <time>2017-03-07T14:08:18Z</time>
      </trkpt>
      <trkpt lat="49.43185" lon="1.24873">
        <ele>155</ele>
        <time>2017-03-07T14:08:18Z</time>
      </trkpt>
      <trkpt lat="49.43183" lon="1.24864">
        <ele>155</ele>
        <time>2017-03-07T14:08:18Z</time>
      </trkpt>
      <trkpt lat="49.43179" lon="1.24858">
        <ele>155</ele>
        <time>2017-03-07T14:08:18Z</time>
      </trkpt>
      <trkpt lat="49.4318" lon="1.24851">
        <ele>155</ele>
        <time>2017-03-07T14:08:35Z</time>
      </trkpt>
      <trkpt lat="49.4318" lon="1.24842">
        <ele>155</ele>
        <time>2017-03-07T14:08:35Z</time>
      </trkpt>
      <trkpt lat="49.43182" lon="1.24834">
        <ele>155</ele>
        <time>2017-03-07T14:08:35Z</time>
      </trkpt>
      <trkpt lat="49.43181" lon="1.24825">
        <ele>155</ele>
        <time>2017-03-07T14:08:35Z</time>
      </trkpt>
      <trkpt lat="49.4318" lon="1.24819">
        <ele>155</ele>
        <time>2017-03-07T14:08:49Z</time>
      </trkpt>
      <trkpt lat="49.43178" lon="1.24814">
        <ele>155</ele>
        <time>2017-03-07T14:08:50Z</time>
      </trkpt>
      <trkpt lat="49.43179" lon="1.24809">
        <ele>155</ele>
        <time>2017-03-07T14:08:50Z</time>
      </trkpt>
      <trkpt lat="49.43177" lon="1.24801">
        <ele>155</ele>
        <time>2017-03-07T14:08:50Z</time>
      </trkpt>
      <trkpt lat="49.43177" lon="1.24797">
        <ele>155</ele>
        <time>2017-03-07T14:09:06Z</time>
      </trkpt>
      <trkpt lat="49.43172" lon="1.24791">
        <ele>156</ele>
        <time>2017-03-07T14:09:06Z</time>
      </trkpt>
      <trkpt lat="49.43173" lon="1.24786">
        <ele>156</ele>
        <time>2017-03-07T14:09:06Z</time>
      </trkpt>
      <trkpt lat="49.43173" lon="1.24776">
        <ele>156</ele>
        <time>2017-03-07T14:09:07Z</time>
      </trkpt>
      <trkpt lat="49.43174" lon="1.2477">
        <ele>156</ele>
        <time>2017-03-07T14:09:42Z</time>
      </trkpt>
      <trkpt lat="49.43173" lon="1.24768">
        <ele>156</ele>
        <time>2017-03-07T14:09:42Z</time>
      </trkpt>
      <trkpt lat="49.4317" lon="1.24762">
        <ele>156</ele>
        <time>2017-03-07T14:09:42Z</time>
      </trkpt>
      <trkpt lat="49.43169" lon="1.24759">
        <ele>156</ele>
        <time>2017-03-07T14:09:42Z</time>
      </trkpt>
      <trkpt lat="49.43167" lon="1.2475">
        <ele>156</ele>
        <time>2017-03-07T14:09:42Z</time>
      </trkpt>
      <trkpt lat="49.43165" lon="1.24743">
        <ele>156</ele>
        <time>2017-03-07T14:09:58Z</time>
      </trkpt>
      <trkpt lat="49.43162" lon="1.24736">
        <ele>156</ele>
        <time>2017-03-07T14:09:58Z</time>
      </trkpt>
      <trkpt lat="49.43161" lon="1.24729">
        <ele>156</ele>
        <time>2017-03-07T14:09:58Z</time>
      </trkpt>
      <trkpt lat="49.43161" lon="1.24723">
        <ele>156</ele>
        <time>2017-03-07T14:09:58Z</time>
      </trkpt>
      <trkpt lat="49.43157" lon="1.24714">
        <ele>156</ele>
        <time>2017-03-07T14:10:14Z</time>
      </trkpt>
      <trkpt lat="49.43152" lon="1.24708">
        <ele>155</ele>
        <time>2017-03-07T14:10:14Z</time>
      </trkpt>
      <trkpt lat="49.43149" lon="1.24702">
        <ele>155</ele>
        <time>2017-03-07T14:10:14Z</time>
      </trkpt>
      <trkpt lat="49.43148" lon="1.24695">
        <ele>155</ele>
        <time>2017-03-07T14:10:14Z</time>
      </trkpt>
      <trkpt lat="49.43146" lon="1.24684">
        <ele>155</ele>
        <time>2017-03-07T14:10:30Z</time>
      </trkpt>
      <trkpt lat="49.43149" lon="1.24677">
        <ele>155</ele>
        <time>2017-03-07T14:10:30Z</time>
      </trkpt>
      <trkpt lat="49.43151" lon="1.24672">
        <ele>155</ele>
        <time>2017-03-07T14:10:31Z</time>
      </trkpt>
      <trkpt lat="49.43152" lon="1.24666">
        <ele>155</ele>
        <time>2017-03-07T14:10:31Z</time>
      </trkpt>
      <trkpt lat="49.43151" lon="1.24661">
        <ele>155</ele>
        <time>2017-03-07T14:10:45Z</time>
      </trkpt>
      <trkpt lat="49.43153" lon="1.24655">
        <ele>155</ele>
        <time>2017-03-07T14:10:46Z</time>
      </trkpt>
      <trkpt lat="49.43151" lon="1.2465">
        <ele>155</ele>
        <time>2017-03-07T14:10:46Z</time>
      </trkpt>
      <trkpt lat="49.43148" lon="1.24647">
        <ele>155</ele>
        <time>2017-03-07T14:10:46Z</time>
      </trkpt>
      <trkpt lat="49.43146" lon="1.24644">
        <ele>155</ele>
        <time>2017-03-07T14:11:21Z</time>
      </trkpt>
      <trkpt lat="49.43147" lon="1.24641">
        <ele>155</ele>
        <time>2017-03-07T14:11:22Z</time>
      </trkpt>
      <trkpt lat="49.43149" lon="1.24637">
        <ele>155</ele>
        <time>2017-03-07T14:11:22Z</time>
      </trkpt>
      <trkpt lat="49.43152" lon="1.24635">
        <ele>155</ele>
        <time>2017-03-07T14:11:22Z</time>
      </trkpt>
      <trkpt lat="49.43154" lon="1.24631">
        <ele>155</ele>
        <time>2017-03-07T14:11:22Z</time>
      </trkpt>
      <trkpt lat="49.43154" lon="1.24627">
        <ele>155</ele>
        <time>2017-03-07T14:11:41Z</time>
      </trkpt>
      <trkpt lat="49.43155" lon="1.24625">
        <ele>153</ele>
        <time>2017-03-07T14:11:42Z</time>
      </trkpt>
      <trkpt lat="49.43156" lon="1.24622">
        <ele>153</ele>
        <time>2017-03-07T14:11:42Z</time>
      </trkpt>
      <trkpt lat="49.43155" lon="1.24615">
        <ele>153</ele>
        <time>2017-03-07T14:11:42Z</time>
      </trkpt>
      <trkpt lat="49.43153" lon="1.24612">
        <ele>153</ele>
        <time>2017-03-07T14:11:42Z</time>
      </trkpt>
      <trkpt lat="49.43152" lon="1.24606">
        <ele>153</ele>
        <time>2017-03-07T14:11:57Z</time>
      </trkpt>
      <trkpt lat="49.43153" lon="1.24603">
        <ele>153</ele>
        <time>2017-03-07T14:11:58Z</time>
      </trkpt>
      <trkpt lat="49.43149" lon="1.24597">
        <ele>153</ele>
        <time>2017-03-07T14:11:58Z</time>
      </trkpt>
      <trkpt lat="49.43148" lon="1.24588">
        <ele>153</ele>
        <time>2017-03-07T14:11:58Z</time>
      </trkpt>
      <trkpt lat="49.43147" lon="1.24583">
        <ele>153</ele>
        <time>2017-03-07T14:12:13Z</time>
      </trkpt>
      <trkpt lat="49.43147" lon="1.24574">
        <ele>153</ele>
        <time>2017-03-07T14:12:14Z</time>
      </trkpt>
      <trkpt lat="49.43148" lon="1.24569">
        <ele>153</ele>
        <time>2017-03-07T14:12:14Z</time>
      </trkpt>
      <trkpt lat="49.43148" lon="1.24565">
        <ele>153</ele>
        <time>2017-03-07T14:12:14Z</time>
      </trkpt>
      <trkpt lat="49.43147" lon="1.24558">
        <ele>153</ele>
        <time>2017-03-07T14:12:30Z</time>
      </trkpt>
      <trkpt lat="49.43148" lon="1.24554">
        <ele>153</ele>
        <time>2017-03-07T14:12:30Z</time>
      </trkpt>
      <trkpt lat="49.43145" lon="1.24548">
        <ele>153</ele>
        <time>2017-03-07T14:12:30Z</time>
      </trkpt>
      <trkpt lat="49.43144" lon="1.24539">
        <ele>150</ele>
        <time>2017-03-07T14:12:30Z</time>
      </trkpt>
      <trkpt lat="49.43142" lon="1.24534">
        <ele>150</ele>
        <time>2017-03-07T14:12:45Z</time>
      </trkpt>
      <trkpt lat="49.43142" lon="1.24529">
        <ele>150</ele>
        <time>2017-03-07T14:12:46Z</time>
      </trkpt>
      <trkpt lat="49.43145" lon="1.24524">
        <ele>150</ele>
        <time>2017-03-07T14:12:46Z</time>
      </trkpt>
      <trkpt lat="49.43146" lon="1.24518">
        <ele>150</ele>
        <time>2017-03-07T14:12:46Z</time>
      </trkpt>
      <trkpt lat="49.43146" lon="1.24513">
        <ele>150</ele>
        <time>2017-03-07T14:13:02Z</time>
      </trkpt>
      <trkpt lat="49.43148" lon="1.24511">
        <ele>150</ele>
        <time>2017-03-07T14:13:03Z</time>
      </trkpt>
      <trkpt lat="49.43147" lon="1.24507">
        <ele>150</ele>
        <time>2017-03-07T14:13:03Z</time>
      </trkpt>
      <trkpt lat="49.43147" lon="1.24498">
        <ele>150</ele>
        <time>2017-03-07T14:13:03Z</time>
      </trkpt>
      <trkpt lat="49.43146" lon="1.24492">
        <ele>150</ele>
        <time>2017-03-07T14:13:19Z</time>
      </trkpt>
      <trkpt lat="49.43147" lon="1.24486">
        <ele>150</ele>
        <time>2017-03-07T14:13:19Z</time>
      </trkpt>
      <trkpt lat="49.43148" lon="1.24478">
        <ele>150</ele>
        <time>2017-03-07T14:13:19Z</time>
      </trkpt>
      <trkpt lat="49.43146" lon="1.24471">
        <ele>150</ele>
        <time>2017-03-07T14:13:19Z</time>
      </trkpt>
      <trkpt lat="49.43145" lon="1.24468">
        <ele>150</ele>
        <time>2017-03-07T14:13:34Z</time>
      </trkpt>
      <trkpt lat="49.43142" lon="1.24456">
        <ele>148</ele>
        <time>2017-03-07T14:13:34Z</time>
      </trkpt>
      <trkpt lat="49.43139" lon="1.24442">
        <ele>148</ele>
        <time>2017-03-07T14:13:34Z</time>
      </trkpt>
      <trkpt lat="49.43139" lon="1.24436">
        <ele>148</ele>
        <time>2017-03-07T14:13:34Z</time>
      </trkpt>
      <trkpt lat="49.43139" lon="1.24429">
        <ele>148</ele>
        <time>2017-03-07T14:13:51Z</time>
      </trkpt>
      <trkpt lat="49.43138" lon="1.24418">
        <ele>148</ele>
        <time>2017-03-07T14:13:51Z</time>
      </trkpt>
      <trkpt lat="49.43139" lon="1.24411">
        <ele>148</ele>
        <time>2017-03-07T14:13:51Z</time>
      </trkpt>
      <trkpt lat="49.43142" lon="1.24407">
        <ele>148</ele>
        <time>2017-03-07T14:13:51Z</time>
      </trkpt>
      <trkpt lat="49.43143" lon="1.24404">
        <ele>148</ele>
        <time>2017-03-07T14:14:06Z</time>
      </trkpt>
      <trkpt lat="49.43145" lon="1.24402">
        <ele>148</ele>
        <time>2017-03-07T14:14:06Z</time>
      </trkpt>
      <trkpt lat="49.43145" lon="1.24393">
        <ele>148</ele>
        <time>2017-03-07T14:14:06Z</time>
      </trkpt>
      <trkpt lat="49.43145" lon="1.24387">
        <ele>148</ele>
        <time>2017-03-07T14:14:06Z</time>
      </trkpt>
      <trkpt lat="49.43143" lon="1.24383">
        <ele>148</ele>
        <time>2017-03-07T14:14:22Z</time>
      </trkpt>
      <trkpt lat="49.43141" lon="1.24374">
        <ele>148</ele>
        <time>2017-03-07T14:14:22Z</time>
      </trkpt>
      <trkpt lat="49.43144" lon="1.24371">
        <ele>148</ele>
        <time>2017-03-07T14:14:22Z</time>
      </trkpt>
      <trkpt lat="49.43144" lon="1.24366">
        <ele>148</ele>
        <time>2017-03-07T14:14:22Z</time>
      </trkpt>
      <trkpt lat="49.43146" lon="1.24358">
        <ele>148</ele>
        <time>2017-03-07T14:14:39Z</time>
      </trkpt>
      <trkpt lat="49.43144" lon="1.24352">
        <ele>148</ele>
        <time>2017-03-07T14:14:39Z</time>
      </trkpt>
      <trkpt lat="49.43145" lon="1.24347">
        <ele>148</ele>
        <time>2017-03-07T14:14:39Z</time>
      </trkpt>
      <trkpt lat="49.43145" lon="1.24339">
        <ele>148</ele>
        <time>2017-03-07T14:14:39Z</time>
      </trkpt>
      <trkpt lat="49.43143" lon="1.24335">
        <ele>148</ele>
        <time>2017-03-07T14:14:54Z</time>
      </trkpt>
      <trkpt lat="49.43141" lon="1.24326">
        <ele>148</ele>
        <time>2017-03-07T14:14:54Z</time>
      </trkpt>
      <trkpt lat="49.43139" lon="1.24318">
        <ele>148</ele>
        <time>2017-03-07T14:14:54Z</time>
      </trkpt>
      <trkpt lat="49.4314" lon="1.24313">
        <ele>148</ele>
        <time>2017-03-07T14:14:54Z</time>
      </trkpt>
      <trkpt lat="49.43141" lon="1.24306">
        <ele>148</ele>
        <time>2017-03-07T14:15:11Z</time>
      </trkpt>
      <trkpt lat="49.43142" lon="1.24301">
        <ele>148</ele>
        <time>2017-03-07T14:15:11Z</time>
      </trkpt>
      <trkpt lat="49.43143" lon="1.24292">
        <ele>148</ele>
        <time>2017-03-07T14:15:11Z</time>
      </trkpt>
      <trkpt lat="49.43142" lon="1.24286">
        <ele>145</ele>
        <time>2017-03-07T14:15:11Z</time>
      </trkpt>
      <trkpt lat="49.43142" lon="1.24272">
        <ele>145</ele>
        <time>2017-03-07T14:15:31Z</time>
      </trkpt>
      <trkpt lat="49.43142" lon="1.24268">
        <ele>145</ele>
        <time>2017-03-07T14:15:31Z</time>
      </trkpt>
      <trkpt lat="49.43144" lon="1.24262">
        <ele>145</ele>
        <time>2017-03-07T14:15:31Z</time>
      </trkpt>
      <trkpt lat="49.43145" lon="1.24253">
        <ele>145</ele>
        <time>2017-03-07T14:15:31Z</time>
      </trkpt>
      <trkpt lat="49.43146" lon="1.2425">
        <ele>145</ele>
        <time>2017-03-07T14:15:46Z</time>
      </trkpt>
      <trkpt lat="49.43144" lon="1.24239">
        <ele>145</ele>
        <time>2017-03-07T14:15:46Z</time>
      </trkpt>
      <trkpt lat="49.43145" lon="1.24234">
        <ele>145</ele>
        <time>2017-03-07T14:15:46Z</time>
      </trkpt>
      <trkpt lat="49.43146" lon="1.24227">
        <ele>145</ele>
        <time>2017-03-07T14:15:46Z</time>
      </trkpt>
      <trkpt lat="49.43146" lon="1.24218">
        <ele>145</ele>
        <time>2017-03-07T14:16:03Z</time>
      </trkpt>
      <trkpt lat="49.43146" lon="1.24211">
        <ele>145</ele>
        <time>2017-03-07T14:16:03Z</time>
      </trkpt>
      <trkpt lat="49.43146" lon="1.24206">
        <ele>138</ele>
        <time>2017-03-07T14:16:03Z</time>
      </trkpt>
      <trkpt lat="49.43146" lon="1.242">
        <ele>138</ele>
        <time>2017-03-07T14:16:03Z</time>
      </trkpt>
      <trkpt lat="49.43146" lon="1.24193">
        <ele>138</ele>
        <time>2017-03-07T14:16:23Z</time>
      </trkpt>
      <trkpt lat="49.43143" lon="1.24185">
        <ele>138</ele>
        <time>2017-03-07T14:16:23Z</time>
      </trkpt>
      <trkpt lat="49.43142" lon="1.24184">
        <ele>138</ele>
        <time>2017-03-07T14:16:23Z</time>
      </trkpt>
      <trkpt lat="49.43142" lon="1.24182">
        <ele>138</ele>
        <time>2017-03-07T14:16:23Z</time>
      </trkpt>
      <trkpt lat="49.43142" lon="1.24181">
        <ele>138</ele>
        <time>2017-03-07T14:16:23Z</time>
      </trkpt>
      <trkpt lat="49.4314" lon="1.24175">
        <ele>138</ele>
        <time>2017-03-07T14:16:43Z</time>
      </trkpt>
      <trkpt lat="49.43139" lon="1.24169">
        <ele>138</ele>
        <time>2017-03-07T14:16:43Z</time>
      </trkpt>
      <trkpt lat="49.43137" lon="1.24161">
        <ele>138</ele>
        <time>2017-03-07T14:16:43Z</time>
      </trkpt>
      <trkpt lat="49.43136" lon="1.24155">
        <ele>138</ele>
        <time>2017-03-07T14:16:43Z</time>
      </trkpt>
      <trkpt lat="49.43137" lon="1.2415">
        <ele>138</ele>
        <time>2017-03-07T14:17:02Z</time>
      </trkpt>
      <trkpt lat="49.43138" lon="1.24149">
        <ele>138</ele>
        <time>2017-03-07T14:17:02Z</time>
      </trkpt>
      <trkpt lat="49.43137" lon="1.24147">
        <ele>138</ele>
        <time>2017-03-07T14:17:04Z</time>
      </trkpt>
      <trkpt lat="49.43136" lon="1.24142">
        <ele>138</ele>
        <time>2017-03-07T14:17:04Z</time>
      </trkpt>
      <trkpt lat="49.43134" lon="1.24137">
        <ele>138</ele>
        <time>2017-03-07T14:17:04Z</time>
      </trkpt>
      <trkpt lat="49.43134" lon="1.24128">
        <ele>138</ele>
        <time>2017-03-07T14:17:19Z</time>
      </trkpt>
      <trkpt lat="49.43137" lon="1.24124">
        <ele>131</ele>
        <time>2017-03-07T14:17:19Z</time>
      </trkpt>
      <trkpt lat="49.43137" lon="1.24117">
        <ele>131</ele>
        <time>2017-03-07T14:17:19Z</time>
      </trkpt>
      <trkpt lat="49.43137" lon="1.24113">
        <ele>131</ele>
        <time>2017-03-07T14:17:19Z</time>
      </trkpt>
      <trkpt lat="49.43137" lon="1.24109">
        <ele>131</ele>
        <time>2017-03-07T14:17:38Z</time>
      </trkpt>
      <trkpt lat="49.43137" lon="1.241">
        <ele>131</ele>
        <time>2017-03-07T14:17:39Z</time>
      </trkpt>
      <trkpt lat="49.43138" lon="1.24096">
        <ele>131</ele>
        <time>2017-03-07T14:17:40Z</time>
      </trkpt>
      <trkpt lat="49.4314" lon="1.24091">
        <ele>131</ele>
        <time>2017-03-07T14:17:40Z</time>
      </trkpt>
      <trkpt lat="49.43141" lon="1.24087">
        <ele>131</ele>
        <time>2017-03-07T14:17:54Z</time>
      </trkpt>
      <trkpt lat="49.43144" lon="1.24081">
        <ele>131</ele>
        <time>2017-03-07T14:17:54Z</time>
      </trkpt>
      <trkpt lat="49.43145" lon="1.24075">
        <ele>131</ele>
        <time>2017-03-07T14:17:54Z</time>
      </trkpt>
      <trkpt lat="49.43146" lon="1.24071">
        <ele>131</ele>
        <time>2017-03-07T14:17:54Z</time>
      </trkpt>
      <trkpt lat="49.43149" lon="1.2407">
        <ele>131</ele>
        <time>2017-03-07T14:18:11Z</time>
      </trkpt>
      <trkpt lat="49.4315" lon="1.24068">
        <ele>131</ele>
        <time>2017-03-07T14:18:11Z</time>
      </trkpt>
      <trkpt lat="49.43154" lon="1.24063">
        <ele>131</ele>
        <time>2017-03-07T14:18:11Z</time>
      </trkpt>
      <trkpt lat="49.43158" lon="1.24062">
        <ele>131</ele>
        <time>2017-03-07T14:18:11Z</time>
      </trkpt>
      <trkpt lat="49.43162" lon="1.24058">
        <ele>131</ele>
        <time>2017-03-07T14:18:26Z</time>
      </trkpt>
      <trkpt lat="49.43165" lon="1.24055">
        <ele>131</ele>
        <time>2017-03-07T14:18:26Z</time>
      </trkpt>
      <trkpt lat="49.43167" lon="1.24052">
        <ele>131</ele>
        <time>2017-03-07T14:18:26Z</time>
      </trkpt>
      <trkpt lat="49.4317" lon="1.24047">
        <ele>131</ele>
        <time>2017-03-07T14:18:26Z</time>
      </trkpt>
      <trkpt lat="49.43173" lon="1.24044">
        <ele>131</ele>
        <time>2017-03-07T14:18:42Z</time>
      </trkpt>
      <trkpt lat="49.43175" lon="1.24041">
        <ele>125</ele>
        <time>2017-03-07T14:18:42Z</time>
      </trkpt>
      <trkpt lat="49.43179" lon="1.24036">
        <ele>125</ele>
        <time>2017-03-07T14:18:43Z</time>
      </trkpt>
      <trkpt lat="49.43183" lon="1.24035">
        <ele>125</ele>
        <time>2017-03-07T14:18:43Z</time>
      </trkpt>
      <trkpt lat="49.43184" lon="1.24032">
        <ele>125</ele>
        <time>2017-03-07T14:18:58Z</time>
      </trkpt>
      <trkpt lat="49.43186" lon="1.24028">
        <ele>125</ele>
        <time>2017-03-07T14:18:59Z</time>
      </trkpt>
      <trkpt lat="49.4319" lon="1.24024">
        <ele>125</ele>
        <time>2017-03-07T14:18:59Z</time>
      </trkpt>
      <trkpt lat="49.43192" lon="1.24022">
        <ele>125</ele>
        <time>2017-03-07T14:18:59Z</time>
      </trkpt>
      <trkpt lat="49.43193" lon="1.24018">
        <ele>125</ele>
        <time>2017-03-07T14:19:15Z</time>
      </trkpt>
      <trkpt lat="49.43195" lon="1.24014">
        <ele>125</ele>
        <time>2017-03-07T14:19:15Z</time>
      </trkpt>
      <trkpt lat="49.43197" lon="1.24009">
        <ele>125</ele>
        <time>2017-03-07T14:19:15Z</time>
      </trkpt>
      <trkpt lat="49.43201" lon="1.24002">
        <ele>125</ele>
        <time>2017-03-07T14:19:15Z</time>
      </trkpt>
      <trkpt lat="49.43206" lon="1.23996">
        <ele>125</ele>
        <time>2017-03-07T14:19:30Z</time>
      </trkpt>
      <trkpt lat="49.43208" lon="1.23993">
        <ele>125</ele>
        <time>2017-03-07T14:19:30Z</time>
      </trkpt>
      <trkpt lat="49.43214" lon="1.23987">
        <ele>117</ele>
        <time>2017-03-07T14:19:30Z</time>
      </trkpt>
      <trkpt lat="49.43215" lon="1.23984">
        <ele>117</ele>
        <time>2017-03-07T14:19:30Z</time>
      </trkpt>
      <trkpt lat="49.43218" lon="1.23981">
        <ele>117</ele>
        <time>2017-03-07T14:19:46Z</time>
      </trkpt>
      <trkpt lat="49.43221" lon="1.23975">
        <ele>117</ele>
        <time>2017-03-07T14:19:46Z</time>
      </trkpt>
      <trkpt lat="49.43223" lon="1.23971">
        <ele>117</ele>
        <time>2017-03-07T14:19:46Z</time>
      </trkpt>
      <trkpt lat="49.43224" lon="1.23969">
        <ele>117</ele>
        <time>2017-03-07T14:19:46Z</time>
      </trkpt>
      <trkpt lat="49.43228" lon="1.23965">
        <ele>117</ele>
        <time>2017-03-07T14:20:02Z</time>
      </trkpt>
      <trkpt lat="49.43229" lon="1.23962">
        <ele>117</ele>
        <time>2017-03-07T14:20:02Z</time>
      </trkpt>
      <trkpt lat="49.43233" lon="1.23959">
        <ele>117</ele>
        <time>2017-03-07T14:20:02Z</time>
      </trkpt>
      <trkpt lat="49.43235" lon="1.23956">
        <ele>112</ele>
        <time>2017-03-07T14:20:02Z</time>
      </trkpt>
      <trkpt lat="49.43239" lon="1.23952">
        <ele>112</ele>
        <time>2017-03-07T14:20:18Z</time>
      </trkpt>
      <trkpt lat="49.43242" lon="1.23949">
        <ele>112</ele>
        <time>2017-03-07T14:20:18Z</time>
      </trkpt>
      <trkpt lat="49.43245" lon="1.23944">
        <ele>112</ele>
        <time>2017-03-07T14:20:18Z</time>
      </trkpt>
      <trkpt lat="49.43248" lon="1.23942">
        <ele>112</ele>
        <time>2017-03-07T14:20:18Z</time>
      </trkpt>
      <trkpt lat="49.43251" lon="1.23941">
        <ele>112</ele>
        <time>2017-03-07T14:20:35Z</time>
      </trkpt>
      <trkpt lat="49.43255" lon="1.23937">
        <ele>112</ele>
        <time>2017-03-07T14:20:35Z</time>
      </trkpt>
      <trkpt lat="49.43259" lon="1.23935">
        <ele>112</ele>
        <time>2017-03-07T14:20:35Z</time>
      </trkpt>
      <trkpt lat="49.43263" lon="1.2393">
        <ele>112</ele>
        <time>2017-03-07T14:20:35Z</time>
      </trkpt>
      <trkpt lat="49.43266" lon="1.23925">
        <ele>112</ele>
        <time>2017-03-07T14:20:50Z</time>
      </trkpt>
      <trkpt lat="49.43269" lon="1.23921">
        <ele>112</ele>
        <time>2017-03-07T14:20:50Z</time>
      </trkpt>
      <trkpt lat="49.4327" lon="1.23915">
        <ele>112</ele>
        <time>2017-03-07T14:20:50Z</time>
      </trkpt>
      <trkpt lat="49.43273" lon="1.23911">
        <ele>112</ele>
        <time>2017-03-07T14:20:50Z</time>
      </trkpt>
      <trkpt lat="49.43273" lon="1.23905">
        <ele>112</ele>
        <time>2017-03-07T14:21:05Z</time>
      </trkpt>
      <trkpt lat="49.43276" lon="1.23901">
        <ele>112</ele>
        <time>2017-03-07T14:21:06Z</time>
      </trkpt>
      <trkpt lat="49.43277" lon="1.23898">
        <ele>112</ele>
        <time>2017-03-07T14:21:06Z</time>
      </trkpt>
      <trkpt lat="49.43284" lon="1.23886">
        <ele>112</ele>
        <time>2017-03-07T14:21:06Z</time>
      </trkpt>
      <trkpt lat="49.43288" lon="1.2388">
        <ele>112</ele>
        <time>2017-03-07T14:21:21Z</time>
      </trkpt>
      <trkpt lat="49.43288" lon="1.23875">
        <ele>101</ele>
        <time>2017-03-07T14:21:22Z</time>
      </trkpt>
      <trkpt lat="49.43293" lon="1.23869">
        <ele>103</ele>
        <time>2017-03-07T14:21:22Z</time>
      </trkpt>
      <trkpt lat="49.43296" lon="1.23867">
        <ele>103</ele>
        <time>2017-03-07T14:21:22Z</time>
      </trkpt>
      <trkpt lat="49.43295" lon="1.23862">
        <ele>103</ele>
        <time>2017-03-07T14:21:37Z</time>
      </trkpt>
      <trkpt lat="49.43298" lon="1.23857">
        <ele>103</ele>
        <time>2017-03-07T14:21:38Z</time>
      </trkpt>
      <trkpt lat="49.43303" lon="1.23853">
        <ele>103</ele>
        <time>2017-03-07T14:21:38Z</time>
      </trkpt>
      <trkpt lat="49.43305" lon="1.23849">
        <ele>103</ele>
        <time>2017-03-07T14:21:38Z</time>
      </trkpt>
      <trkpt lat="49.43309" lon="1.23846">
        <ele>103</ele>
        <time>2017-03-07T14:21:53Z</time>
      </trkpt>
      <trkpt lat="49.43314" lon="1.23841">
        <ele>103</ele>
        <time>2017-03-07T14:21:54Z</time>
      </trkpt>
      <trkpt lat="49.43316" lon="1.23834">
        <ele>103</ele>
        <time>2017-03-07T14:21:54Z</time>
      </trkpt>
      <trkpt lat="49.43319" lon="1.2383">
        <ele>103</ele>
        <time>2017-03-07T14:21:54Z</time>
      </trkpt>
      <trkpt lat="49.43321" lon="1.23826">
        <ele>103</ele>
        <time>2017-03-07T14:22:10Z</time>
      </trkpt>
      <trkpt lat="49.43325" lon="1.23821">
        <ele>103</ele>
        <time>2017-03-07T14:22:11Z</time>
      </trkpt>
      <trkpt lat="49.43326" lon="1.23819">
        <ele>103</ele>
        <time>2017-03-07T14:22:11Z</time>
      </trkpt>
      <trkpt lat="49.43332" lon="1.23815">
        <ele>103</ele>
        <time>2017-03-07T14:22:11Z</time>
      </trkpt>
      <trkpt lat="49.43335" lon="1.23811">
        <ele>103</ele>
        <time>2017-03-07T14:22:25Z</time>
      </trkpt>
      <trkpt lat="49.43338" lon="1.23805">
        <ele>103</ele>
        <time>2017-03-07T14:22:26Z</time>
      </trkpt>
      <trkpt lat="49.43342" lon="1.23801">
        <ele>103</ele>
        <time>2017-03-07T14:22:26Z</time>
      </trkpt>
      <trkpt lat="49.43345" lon="1.23796">
        <ele>103</ele>
        <time>2017-03-07T14:22:26Z</time>
      </trkpt>
      <trkpt lat="49.4335" lon="1.23788">
        <ele>99</ele>
        <time>2017-03-07T14:22:41Z</time>
      </trkpt>
      <trkpt lat="49.43354" lon="1.23783">
        <ele>99</ele>
        <time>2017-03-07T14:22:42Z</time>
      </trkpt>
      <trkpt lat="49.43357" lon="1.2378">
        <ele>99</ele>
        <time>2017-03-07T14:22:42Z</time>
      </trkpt>
      <trkpt lat="49.43358" lon="1.23779">
        <ele>99</ele>
        <time>2017-03-07T14:22:42Z</time>
      </trkpt>
      <trkpt lat="49.43356" lon="1.23762">
        <ele>99</ele>
        <time>2017-03-07T14:23:49Z</time>
      </trkpt>
      <trkpt lat="49.43359" lon="1.23758">
        <ele>99</ele>
        <time>2017-03-07T14:23:50Z</time>
      </trkpt>
      <trkpt lat="49.43361" lon="1.23757">
        <ele>99</ele>
        <time>2017-03-07T14:23:50Z</time>
      </trkpt>
      <trkpt lat="49.43364" lon="1.23752">
        <ele>99</ele>
        <time>2017-03-07T14:23:50Z</time>
      </trkpt>
      <trkpt lat="49.43368" lon="1.23747">
        <ele>99</ele>
        <time>2017-03-07T14:23:50Z</time>
      </trkpt>
      <trkpt lat="49.43374" lon="1.23745">
        <ele>99</ele>
        <time>2017-03-07T14:24:05Z</time>
      </trkpt>
      <trkpt lat="49.43377" lon="1.23739">
        <ele>101</ele>
        <time>2017-03-07T14:24:06Z</time>
      </trkpt>
      <trkpt lat="49.43381" lon="1.23735">
        <ele>101</ele>
        <time>2017-03-07T14:24:06Z</time>
      </trkpt>
      <trkpt lat="49.43385" lon="1.23729">
        <ele>101</ele>
        <time>2017-03-07T14:24:06Z</time>
      </trkpt>
      <trkpt lat="49.43388" lon="1.23727">
        <ele>101</ele>
        <time>2017-03-07T14:24:21Z</time>
      </trkpt>
      <trkpt lat="49.43391" lon="1.23723">
        <ele>101</ele>
        <time>2017-03-07T14:24:22Z</time>
      </trkpt>
      <trkpt lat="49.43393" lon="1.23719">
        <ele>101</ele>
        <time>2017-03-07T14:24:22Z</time>
      </trkpt>
      <trkpt lat="49.43397" lon="1.2371">
        <ele>101</ele>
        <time>2017-03-07T14:24:22Z</time>
      </trkpt>
      <trkpt lat="49.43399" lon="1.23706">
        <ele>103</ele>
        <time>2017-03-07T14:24:38Z</time>
      </trkpt>
      <trkpt lat="49.43401" lon="1.23699">
        <ele>103</ele>
        <time>2017-03-07T14:24:38Z</time>
      </trkpt>
      <trkpt lat="49.43404" lon="1.23694">
        <ele>103</ele>
        <time>2017-03-07T14:24:38Z</time>
      </trkpt>
      <trkpt lat="49.43405" lon="1.23692">
        <ele>103</ele>
        <time>2017-03-07T14:24:38Z</time>
      </trkpt>
      <trkpt lat="49.43406" lon="1.23687">
        <ele>103</ele>
        <time>2017-03-07T14:24:53Z</time>
      </trkpt>
      <trkpt lat="49.43406" lon="1.23684">
        <ele>103</ele>
        <time>2017-03-07T14:24:54Z</time>
      </trkpt>
      <trkpt lat="49.4341" lon="1.23677">
        <ele>103</ele>
        <time>2017-03-07T14:24:54Z</time>
      </trkpt>
      <trkpt lat="49.43412" lon="1.23672">
        <ele>103</ele>
        <time>2017-03-07T14:24:54Z</time>
      </trkpt>
      <trkpt lat="49.43416" lon="1.23665">
        <ele>103</ele>
        <time>2017-03-07T14:25:09Z</time>
      </trkpt>
      <trkpt lat="49.43417" lon="1.23661">
        <ele>103</ele>
        <time>2017-03-07T14:25:10Z</time>
      </trkpt>
      <trkpt lat="49.43421" lon="1.23657">
        <ele>103</ele>
        <time>2017-03-07T14:25:10Z</time>
      </trkpt>
      <trkpt lat="49.43424" lon="1.2365">
        <ele>103</ele>
        <time>2017-03-07T14:25:10Z</time>
      </trkpt>
      <trkpt lat="49.43426" lon="1.23645">
        <ele>103</ele>
        <time>2017-03-07T14:25:25Z</time>
      </trkpt>
      <trkpt lat="49.43429" lon="1.23641">
        <ele>103</ele>
        <time>2017-03-07T14:25:26Z</time>
      </trkpt>
      <trkpt lat="49.43434" lon="1.23635">
        <ele>103</ele>
        <time>2017-03-07T14:25:26Z</time>
      </trkpt>
      <trkpt lat="49.43436" lon="1.23627">
        <ele>103</ele>
        <time>2017-03-07T14:25:26Z</time>
      </trkpt>
      <trkpt lat="49.43437" lon="1.23621">
        <ele>108</ele>
        <time>2017-03-07T14:25:41Z</time>
      </trkpt>
      <trkpt lat="49.4344" lon="1.23618">
        <ele>108</ele>
        <time>2017-03-07T14:25:42Z</time>
      </trkpt>
      <trkpt lat="49.43442" lon="1.23613">
        <ele>108</ele>
        <time>2017-03-07T14:25:42Z</time>
      </trkpt>
      <trkpt lat="49.43443" lon="1.23607">
        <ele>108</ele>
        <time>2017-03-07T14:25:42Z</time>
      </trkpt>
      <trkpt lat="49.43445" lon="1.23604">
        <ele>108</ele>
        <time>2017-03-07T14:25:57Z</time>
      </trkpt>
      <trkpt lat="49.43444" lon="1.23599">
        <ele>108</ele>
        <time>2017-03-07T14:25:58Z</time>
      </trkpt>
      <trkpt lat="49.43447" lon="1.23593">
        <ele>108</ele>
        <time>2017-03-07T14:25:58Z</time>
      </trkpt>
      <trkpt lat="49.4345" lon="1.23589">
        <ele>108</ele>
        <time>2017-03-07T14:25:58Z</time>
      </trkpt>
      <trkpt lat="49.43453" lon="1.23585">
        <ele>108</ele>
        <time>2017-03-07T14:26:14Z</time>
      </trkpt>
      <trkpt lat="49.43457" lon="1.23582">
        <ele>108</ele>
        <time>2017-03-07T14:26:14Z</time>
      </trkpt>
      <trkpt lat="49.43461" lon="1.2358">
        <ele>114</ele>
        <time>2017-03-07T14:26:14Z</time>
      </trkpt>
      <trkpt lat="49.43467" lon="1.23576">
        <ele>114</ele>
        <time>2017-03-07T14:26:14Z</time>
      </trkpt>
      <trkpt lat="49.43472" lon="1.23572">
        <ele>114</ele>
        <time>2017-03-07T14:26:30Z</time>
      </trkpt>
      <trkpt lat="49.43476" lon="1.23568">
        <ele>114</ele>
        <time>2017-03-07T14:26:30Z</time>
      </trkpt>
      <trkpt lat="49.4348" lon="1.23566">
        <ele>114</ele>
        <time>2017-03-07T14:26:30Z</time>
      </trkpt>
      <trkpt lat="49.43482" lon="1.23562">
        <ele>114</ele>
        <time>2017-03-07T14:26:30Z</time>
      </trkpt>
      <trkpt lat="49.43486" lon="1.2356">
        <ele>114</ele>
        <time>2017-03-07T14:26:50Z</time>
      </trkpt>
      <trkpt lat="49.43487" lon="1.23559">
        <ele>114</ele>
        <time>2017-03-07T14:26:50Z</time>
      </trkpt>
      <trkpt lat="49.43491" lon="1.23556">
        <ele>114</ele>
        <time>2017-03-07T14:26:50Z</time>
      </trkpt>
      <trkpt lat="49.43492" lon="1.23556">
        <ele>114</ele>
        <time>2017-03-07T14:26:50Z</time>
      </trkpt>
      <trkpt lat="49.43496" lon="1.23555">
        <ele>114</ele>
        <time>2017-03-07T14:26:50Z</time>
      </trkpt>
      <trkpt lat="49.43505" lon="1.23553">
        <ele>114</ele>
        <time>2017-03-07T14:27:05Z</time>
      </trkpt>
      <trkpt lat="49.43507" lon="1.23554">
        <ele>114</ele>
        <time>2017-03-07T14:27:06Z</time>
      </trkpt>
      <trkpt lat="49.43512" lon="1.23553">
        <ele>114</ele>
        <time>2017-03-07T14:27:06Z</time>
      </trkpt>
      <trkpt lat="49.43518" lon="1.2355">
        <ele>114</ele>
        <time>2017-03-07T14:27:06Z</time>
      </trkpt>
      <trkpt lat="49.43518" lon="1.23549">
        <ele>114</ele>
        <time>2017-03-07T14:27:21Z</time>
      </trkpt>
      <trkpt lat="49.43519" lon="1.23549">
        <ele>114</ele>
        <time>2017-03-07T14:27:22Z</time>
      </trkpt>
      <trkpt lat="49.43526" lon="1.2355">
        <ele>114</ele>
        <time>2017-03-07T14:27:22Z</time>
      </trkpt>
      <trkpt lat="49.43531" lon="1.2355">
        <ele>114</ele>
        <time>2017-03-07T14:27:22Z</time>
      </trkpt>
      <trkpt lat="49.43533" lon="1.2355">
        <ele>114</ele>
        <time>2017-03-07T14:27:39Z</time>
      </trkpt>
      <trkpt lat="49.43537" lon="1.23548">
        <ele>114</ele>
        <time>2017-03-07T14:27:39Z</time>
      </trkpt>
      <trkpt lat="49.43542" lon="1.23548">
        <ele>120</ele>
        <time>2017-03-07T14:27:39Z</time>
      </trkpt>
      <trkpt lat="49.43547" lon="1.2355">
        <ele>120</ele>
        <time>2017-03-07T14:27:39Z</time>
      </trkpt>
      <trkpt lat="49.4355" lon="1.23548">
        <ele>120</ele>
        <time>2017-03-07T14:27:53Z</time>
      </trkpt>
      <trkpt lat="49.43554" lon="1.2355">
        <ele>120</ele>
        <time>2017-03-07T14:27:54Z</time>
      </trkpt>
      <trkpt lat="49.43559" lon="1.2355">
        <ele>120</ele>
        <time>2017-03-07T14:27:54Z</time>
      </trkpt>
      <trkpt lat="49.43563" lon="1.23551">
        <ele>120</ele>
        <time>2017-03-07T14:27:54Z</time>
      </trkpt>
      <trkpt lat="49.43568" lon="1.23552">
        <ele>120</ele>
        <time>2017-03-07T14:28:10Z</time>
      </trkpt>
      <trkpt lat="49.43574" lon="1.23553">
        <ele>120</ele>
        <time>2017-03-07T14:28:10Z</time>
      </trkpt>
      <trkpt lat="49.43576" lon="1.23552">
        <ele>120</ele>
        <time>2017-03-07T14:28:10Z</time>
      </trkpt>
      <trkpt lat="49.4358" lon="1.23554">
        <ele>120</ele>
        <time>2017-03-07T14:28:10Z</time>
      </trkpt>
      <trkpt lat="49.43585" lon="1.23553">
        <ele>120</ele>
        <time>2017-03-07T14:28:25Z</time>
      </trkpt>
      <trkpt lat="49.4359" lon="1.23555">
        <ele>120</ele>
        <time>2017-03-07T14:28:26Z</time>
      </trkpt>
      <trkpt lat="49.43593" lon="1.23555">
        <ele>120</ele>
        <time>2017-03-07T14:28:26Z</time>
      </trkpt>
      <trkpt lat="49.43595" lon="1.23553">
        <ele>120</ele>
        <time>2017-03-07T14:28:26Z</time>
      </trkpt>
      <trkpt lat="49.43598" lon="1.23554">
        <ele>120</ele>
        <time>2017-03-07T14:28:42Z</time>
      </trkpt>
      <trkpt lat="49.43601" lon="1.23555">
        <ele>120</ele>
        <time>2017-03-07T14:28:42Z</time>
      </trkpt>
      <trkpt lat="49.43605" lon="1.23555">
        <ele>120</ele>
        <time>2017-03-07T14:28:42Z</time>
      </trkpt>
      <trkpt lat="49.43611" lon="1.23557">
        <ele>120</ele>
        <time>2017-03-07T14:28:42Z</time>
      </trkpt>
      <trkpt lat="49.43615" lon="1.23557">
        <ele>120</ele>
        <time>2017-03-07T14:29:01Z</time>
      </trkpt>
      <trkpt lat="49.43616" lon="1.23555">
        <ele>120</ele>
        <time>2017-03-07T14:29:02Z</time>
      </trkpt>
      <trkpt lat="49.43618" lon="1.23557">
        <ele>120</ele>
        <time>2017-03-07T14:29:02Z</time>
      </trkpt>
      <trkpt lat="49.43622" lon="1.23556">
        <ele>120</ele>
        <time>2017-03-07T14:29:02Z</time>
      </trkpt>
      <trkpt lat="49.43625" lon="1.23552">
        <ele>123</ele>
        <time>2017-03-07T14:29:02Z</time>
      </trkpt>
      <trkpt lat="49.43632" lon="1.2355">
        <ele>123</ele>
        <time>2017-03-07T14:29:17Z</time>
      </trkpt>
      <trkpt lat="49.43637" lon="1.23547">
        <ele>123</ele>
        <time>2017-03-07T14:29:18Z</time>
      </trkpt>
      <trkpt lat="49.4364" lon="1.23547">
        <ele>123</ele>
        <time>2017-03-07T14:29:18Z</time>
      </trkpt>
      <trkpt lat="49.43644" lon="1.23542">
        <ele>123</ele>
        <time>2017-03-07T14:29:18Z</time>
      </trkpt>
      <trkpt lat="49.43646" lon="1.23537">
        <ele>129</ele>
        <time>2017-03-07T14:29:33Z</time>
      </trkpt>
      <trkpt lat="49.4365" lon="1.23534">
        <ele>129</ele>
        <time>2017-03-07T14:29:34Z</time>
      </trkpt>
      <trkpt lat="49.43653" lon="1.23531">
        <ele>129</ele>
        <time>2017-03-07T14:29:34Z</time>
      </trkpt>
      <trkpt lat="49.43655" lon="1.23526">
        <ele>129</ele>
        <time>2017-03-07T14:29:34Z</time>
      </trkpt>
      <trkpt lat="49.43657" lon="1.23522">
        <ele>129</ele>
        <time>2017-03-07T14:29:53Z</time>
      </trkpt>
      <trkpt lat="49.4366" lon="1.23521">
        <ele>129</ele>
        <time>2017-03-07T14:29:54Z</time>
      </trkpt>
      <trkpt lat="49.43663" lon="1.23518">
        <ele>129</ele>
        <time>2017-03-07T14:29:55Z</time>
      </trkpt>
      <trkpt lat="49.43663" lon="1.23514">
        <ele>129</ele>
        <time>2017-03-07T14:29:55Z</time>
      </trkpt>
      <trkpt lat="49.43665" lon="1.2351">
        <ele>129</ele>
        <time>2017-03-07T14:29:55Z</time>
      </trkpt>
      <trkpt lat="49.4367" lon="1.2351">
        <ele>129</ele>
        <time>2017-03-07T14:30:09Z</time>
      </trkpt>
      <trkpt lat="49.43672" lon="1.23505">
        <ele>129</ele>
        <time>2017-03-07T14:30:10Z</time>
      </trkpt>
      <trkpt lat="49.43676" lon="1.23501">
        <ele>129</ele>
        <time>2017-03-07T14:30:10Z</time>
      </trkpt>
      <trkpt lat="49.43679" lon="1.23499">
        <ele>129</ele>
        <time>2017-03-07T14:30:10Z</time>
      </trkpt>
      <trkpt lat="49.4368" lon="1.23493">
        <ele>129</ele>
        <time>2017-03-07T14:30:25Z</time>
      </trkpt>
      <trkpt lat="49.43681" lon="1.23489">
        <ele>129</ele>
        <time>2017-03-07T14:30:26Z</time>
      </trkpt>
      <trkpt lat="49.43681" lon="1.23482">
        <ele>129</ele>
        <time>2017-03-07T14:30:26Z</time>
      </trkpt>
      <trkpt lat="49.43685" lon="1.23479">
        <ele>129</ele>
        <time>2017-03-07T14:30:26Z</time>
      </trkpt>
      <trkpt lat="49.43687" lon="1.23475">
        <ele>129</ele>
        <time>2017-03-07T14:30:41Z</time>
      </trkpt>
      <trkpt lat="49.43691" lon="1.23469">
        <ele>129</ele>
        <time>2017-03-07T14:30:42Z</time>
      </trkpt>
      <trkpt lat="49.43692" lon="1.23463">
        <ele>129</ele>
        <time>2017-03-07T14:30:42Z</time>
      </trkpt>
      <trkpt lat="49.43695" lon="1.2346">
        <ele>129</ele>
        <time>2017-03-07T14:30:42Z</time>
      </trkpt>
      <trkpt lat="49.43698" lon="1.23456">
        <ele>134</ele>
        <time>2017-03-07T14:30:57Z</time>
      </trkpt>
      <trkpt lat="49.43699" lon="1.2345">
        <ele>134</ele>
        <time>2017-03-07T14:30:58Z</time>
      </trkpt>
      <trkpt lat="49.43701" lon="1.23446">
        <ele>134</ele>
        <time>2017-03-07T14:30:58Z</time>
      </trkpt>
      <trkpt lat="49.43703" lon="1.23444">
        <ele>134</ele>
        <time>2017-03-07T14:30:58Z</time>
      </trkpt>
      <trkpt lat="49.43707" lon="1.23438">
        <ele>134</ele>
        <time>2017-03-07T14:31:21Z</time>
      </trkpt>
      <trkpt lat="49.43709" lon="1.23438">
        <ele>134</ele>
        <time>2017-03-07T14:31:22Z</time>
      </trkpt>
      <trkpt lat="49.43709" lon="1.23438">
        <ele>134</ele>
        <time>2017-03-07T14:31:22Z</time>
      </trkpt>
      <trkpt lat="49.43711" lon="1.23436">
        <ele>134</ele>
        <time>2017-03-07T14:31:22Z</time>
      </trkpt>
      <trkpt lat="49.43717" lon="1.23433">
        <ele>134</ele>
        <time>2017-03-07T14:31:22Z</time>
      </trkpt>
      <trkpt lat="49.43723" lon="1.2343">
        <ele>134</ele>
        <time>2017-03-07T14:31:37Z</time>
      </trkpt>
      <trkpt lat="49.43727" lon="1.23428">
        <ele>134</ele>
        <time>2017-03-07T14:31:38Z</time>
      </trkpt>
      <trkpt lat="49.43729" lon="1.23426">
        <ele>134</ele>
        <time>2017-03-07T14:31:38Z</time>
      </trkpt>
      <trkpt lat="49.43737" lon="1.23422">
        <ele>134</ele>
        <time>2017-03-07T14:31:38Z</time>
      </trkpt>
      <trkpt lat="49.43741" lon="1.23423">
        <ele>134</ele>
        <time>2017-03-07T14:33:17Z</time>
      </trkpt>
      <trkpt lat="49.43742" lon="1.23423">
        <ele>134</ele>
        <time>2017-03-07T14:33:18Z</time>
      </trkpt>
      <trkpt lat="49.43742" lon="1.23423">
        <ele>134</ele>
        <time>2017-03-07T14:33:18Z</time>
      </trkpt>
      <trkpt lat="49.43742" lon="1.23429">
        <ele>134</ele>
        <time>2017-03-07T14:33:18Z</time>
      </trkpt>
      <trkpt lat="49.43743" lon="1.23434">
        <ele>134</ele>
        <time>2017-03-07T14:33:18Z</time>
      </trkpt>
      <trkpt lat="49.43745" lon="1.23427">
        <ele>134</ele>
        <time>2017-03-07T14:34:46Z</time>
      </trkpt>
      <trkpt lat="49.43744" lon="1.23423">
        <ele>134</ele>
        <time>2017-03-07T14:34:46Z</time>
      </trkpt>
      <trkpt lat="49.43744" lon="1.23423">
        <ele>134</ele>
        <time>2017-03-07T14:34:46Z</time>
      </trkpt>
      <trkpt lat="49.43744" lon="1.23422">
        <ele>134</ele>
        <time>2017-03-07T14:34:46Z</time>
      </trkpt>
      <trkpt lat="49.43745" lon="1.23419">
        <ele>134</ele>
        <time>2017-03-07T14:34:47Z</time>
      </trkpt>
      <trkpt lat="49.43745" lon="1.23416">
        <ele>134</ele>
        <time>2017-03-07T14:37:10Z</time>
      </trkpt>
      <trkpt lat="49.43745" lon="1.23416">
        <ele>134</ele>
        <time>2017-03-07T14:37:11Z</time>
      </trkpt>
      <trkpt lat="49.43745" lon="1.23416">
        <ele>134</ele>
        <time>2017-03-07T14:37:11Z</time>
      </trkpt>
      <trkpt lat="49.43746" lon="1.23414">
        <ele>134</ele>
        <time>2017-03-07T14:37:11Z</time>
      </trkpt>
      <trkpt lat="49.43749" lon="1.23407">
        <ele>134</ele>
        <time>2017-03-07T14:37:11Z</time>
      </trkpt>
      <trkpt lat="49.43751" lon="1.23403">
        <ele>134</ele>
        <time>2017-03-07T14:37:27Z</time>
      </trkpt>
      <trkpt lat="49.43755" lon="1.234">
        <ele>134</ele>
        <time>2017-03-07T14:37:27Z</time>
      </trkpt>
      <trkpt lat="49.43756" lon="1.23389">
        <ele>134</ele>
        <time>2017-03-07T14:37:27Z</time>
      </trkpt>
      <trkpt lat="49.43754" lon="1.23381">
        <ele>134</ele>
        <time>2017-03-07T14:37:27Z</time>
      </trkpt>
      <trkpt lat="49.43754" lon="1.23376">
        <ele>134</ele>
        <time>2017-03-07T14:37:42Z</time>
      </trkpt>
      <trkpt lat="49.43754" lon="1.23371">
        <ele>136</ele>
        <time>2017-03-07T14:37:42Z</time>
      </trkpt>
      <trkpt lat="49.43755" lon="1.23367">
        <ele>136</ele>
        <time>2017-03-07T14:37:42Z</time>
      </trkpt>
      <trkpt lat="49.43754" lon="1.23358">
        <ele>136</ele>
        <time>2017-03-07T14:37:42Z</time>
      </trkpt>
      <trkpt lat="49.43756" lon="1.2335">
        <ele>136</ele>
        <time>2017-03-07T14:37:57Z</time>
      </trkpt>
      <trkpt lat="49.43757" lon="1.23344">
        <ele>136</ele>
        <time>2017-03-07T14:37:58Z</time>
      </trkpt>
      <trkpt lat="49.43757" lon="1.23335">
        <ele>136</ele>
        <time>2017-03-07T14:37:58Z</time>
      </trkpt>
      <trkpt lat="49.43758" lon="1.23329">
        <ele>136</ele>
        <time>2017-03-07T14:37:58Z</time>
      </trkpt>
      <trkpt lat="49.4376" lon="1.23322">
        <ele>136</ele>
        <time>2017-03-07T14:38:13Z</time>
      </trkpt>
      <trkpt lat="49.43761" lon="1.23314">
        <ele>136</ele>
        <time>2017-03-07T14:38:14Z</time>
      </trkpt>
      <trkpt lat="49.43762" lon="1.23307">
        <ele>136</ele>
        <time>2017-03-07T14:38:14Z</time>
      </trkpt>
      <trkpt lat="49.43764" lon="1.23301">
        <ele>136</ele>
        <time>2017-03-07T14:38:14Z</time>
      </trkpt>
      <trkpt lat="49.43766" lon="1.23294">
        <ele>136</ele>
        <time>2017-03-07T14:38:29Z</time>
      </trkpt>
      <trkpt lat="49.43768" lon="1.23287">
        <ele>138</ele>
        <time>2017-03-07T14:38:30Z</time>
      </trkpt>
      <trkpt lat="49.4377" lon="1.2328">
        <ele>138</ele>
        <time>2017-03-07T14:38:30Z</time>
      </trkpt>
      <trkpt lat="49.43772" lon="1.23274">
        <ele>138</ele>
        <time>2017-03-07T14:38:30Z</time>
      </trkpt>
      <trkpt lat="49.43773" lon="1.23266">
        <ele>138</ele>
        <time>2017-03-07T14:38:45Z</time>
      </trkpt>
      <trkpt lat="49.43773" lon="1.23261">
        <ele>138</ele>
        <time>2017-03-07T14:38:46Z</time>
      </trkpt>
      <trkpt lat="49.43775" lon="1.23253">
        <ele>138</ele>
        <time>2017-03-07T14:38:46Z</time>
      </trkpt>
      <trkpt lat="49.43776" lon="1.23247">
        <ele>138</ele>
        <time>2017-03-07T14:38:46Z</time>
      </trkpt>
      <trkpt lat="49.43778" lon="1.23239">
        <ele>138</ele>
        <time>2017-03-07T14:39:01Z</time>
      </trkpt>
      <trkpt lat="49.43781" lon="1.23233">
        <ele>138</ele>
        <time>2017-03-07T14:39:02Z</time>
      </trkpt>
      <trkpt lat="49.43784" lon="1.23226">
        <ele>138</ele>
        <time>2017-03-07T14:39:02Z</time>
      </trkpt>
      <trkpt lat="49.43785" lon="1.2322">
        <ele>138</ele>
        <time>2017-03-07T14:39:02Z</time>
      </trkpt>
      <trkpt lat="49.43789" lon="1.23213">
        <ele>138</ele>
        <time>2017-03-07T14:39:17Z</time>
      </trkpt>
      <trkpt lat="49.43791" lon="1.23208">
        <ele>142</ele>
        <time>2017-03-07T14:39:18Z</time>
      </trkpt>
      <trkpt lat="49.43793" lon="1.23201">
        <ele>145</ele>
        <time>2017-03-07T14:39:18Z</time>
      </trkpt>
      <trkpt lat="49.43795" lon="1.23192">
        <ele>145</ele>
        <time>2017-03-07T14:39:18Z</time>
      </trkpt>
      <trkpt lat="49.43796" lon="1.23187">
        <ele>145</ele>
        <time>2017-03-07T14:39:33Z</time>
      </trkpt>
      <trkpt lat="49.43799" lon="1.2318">
        <ele>145</ele>
        <time>2017-03-07T14:39:34Z</time>
      </trkpt>
      <trkpt lat="49.438" lon="1.2317">
        <ele>145</ele>
        <time>2017-03-07T14:39:34Z</time>
      </trkpt>
      <trkpt lat="49.43802" lon="1.23163">
        <ele>145</ele>
        <time>2017-03-07T14:39:34Z</time>
      </trkpt>
      <trkpt lat="49.43803" lon="1.23155">
        <ele>145</ele>
        <time>2017-03-07T14:39:49Z</time>
      </trkpt>
      <trkpt lat="49.43804" lon="1.23149">
        <ele>145</ele>
        <time>2017-03-07T14:39:50Z</time>
      </trkpt>
      <trkpt lat="49.43805" lon="1.23144">
        <ele>145</ele>
        <time>2017-03-07T14:39:50Z</time>
      </trkpt>
      <trkpt lat="49.4381" lon="1.2314">
        <ele>145</ele>
        <time>2017-03-07T14:39:50Z</time>
      </trkpt>
      <trkpt lat="49.43812" lon="1.23135">
        <ele>145</ele>
        <time>2017-03-07T14:40:05Z</time>
      </trkpt>
      <trkpt lat="49.43815" lon="1.23129">
        <ele>145</ele>
        <time>2017-03-07T14:40:06Z</time>
      </trkpt>
      <trkpt lat="49.43818" lon="1.23123">
        <ele>147</ele>
        <time>2017-03-07T14:40:06Z</time>
      </trkpt>
      <trkpt lat="49.4382" lon="1.23117">
        <ele>147</ele>
        <time>2017-03-07T14:40:06Z</time>
      </trkpt>
      <trkpt lat="49.43822" lon="1.23113">
        <ele>147</ele>
        <time>2017-03-07T14:40:22Z</time>
      </trkpt>
      <trkpt lat="49.43825" lon="1.23103">
        <ele>147</ele>
        <time>2017-03-07T14:40:22Z</time>
      </trkpt>
      <trkpt lat="49.43827" lon="1.23099">
        <ele>147</ele>
        <time>2017-03-07T14:40:22Z</time>
      </trkpt>
      <trkpt lat="49.43829" lon="1.23092">
        <ele>147</ele>
        <time>2017-03-07T14:40:22Z</time>
      </trkpt>
      <trkpt lat="49.43831" lon="1.23085">
        <ele>147</ele>
        <time>2017-03-07T14:40:37Z</time>
      </trkpt>
      <trkpt lat="49.43834" lon="1.23079">
        <ele>147</ele>
        <time>2017-03-07T14:40:38Z</time>
      </trkpt>
      <trkpt lat="49.43836" lon="1.23075">
        <ele>147</ele>
        <time>2017-03-07T14:40:38Z</time>
      </trkpt>
      <trkpt lat="49.43838" lon="1.23069">
        <ele>147</ele>
        <time>2017-03-07T14:40:38Z</time>
      </trkpt>
      <trkpt lat="49.43841" lon="1.2306">
        <ele>147</ele>
        <time>2017-03-07T14:40:54Z</time>
      </trkpt>
      <trkpt lat="49.43843" lon="1.23054">
        <ele>147</ele>
        <time>2017-03-07T14:40:54Z</time>
      </trkpt>
      <trkpt lat="49.43845" lon="1.2305">
        <ele>147</ele>
        <time>2017-03-07T14:40:54Z</time>
      </trkpt>
      <trkpt lat="49.43848" lon="1.23043">
        <ele>147</ele>
        <time>2017-03-07T14:40:54Z</time>
      </trkpt>
      <trkpt lat="49.43851" lon="1.23037">
        <ele>149</ele>
        <time>2017-03-07T14:41:10Z</time>
      </trkpt>
      <trkpt lat="49.43854" lon="1.23033">
        <ele>149</ele>
        <time>2017-03-07T14:41:10Z</time>
      </trkpt>
      <trkpt lat="49.43856" lon="1.23027">
        <ele>149</ele>
        <time>2017-03-07T14:41:10Z</time>
      </trkpt>
      <trkpt lat="49.43857" lon="1.23022">
        <ele>149</ele>
        <time>2017-03-07T14:41:10Z</time>
      </trkpt>
      <trkpt lat="49.43858" lon="1.23015">
        <ele>149</ele>
        <time>2017-03-07T14:41:26Z</time>
      </trkpt>
      <trkpt lat="49.43859" lon="1.23007">
        <ele>149</ele>
        <time>2017-03-07T14:41:26Z</time>
      </trkpt>
      <trkpt lat="49.43861" lon="1.22997">
        <ele>149</ele>
        <time>2017-03-07T14:41:26Z</time>
      </trkpt>
      <trkpt lat="49.43863" lon="1.22992">
        <ele>149</ele>
        <time>2017-03-07T14:41:26Z</time>
      </trkpt>
      <trkpt lat="49.43863" lon="1.22985">
        <ele>149</ele>
        <time>2017-03-07T14:41:41Z</time>
      </trkpt>
      <trkpt lat="49.43863" lon="1.22978">
        <ele>149</ele>
        <time>2017-03-07T14:41:42Z</time>
      </trkpt>
      <trkpt lat="49.43862" lon="1.22972">
        <ele>149</ele>
        <time>2017-03-07T14:41:42Z</time>
      </trkpt>
      <trkpt lat="49.43861" lon="1.22962">
        <ele>149</ele>
        <time>2017-03-07T14:41:42Z</time>
      </trkpt>
      <trkpt lat="49.4386" lon="1.22954">
        <ele>150</ele>
        <time>2017-03-07T14:41:57Z</time>
      </trkpt>
      <trkpt lat="49.43861" lon="1.22947">
        <ele>150</ele>
        <time>2017-03-07T14:41:58Z</time>
      </trkpt>
      <trkpt lat="49.43861" lon="1.22939">
        <ele>150</ele>
        <time>2017-03-07T14:41:58Z</time>
      </trkpt>
      <trkpt lat="49.4386" lon="1.22933">
        <ele>150</ele>
        <time>2017-03-07T14:41:58Z</time>
      </trkpt>
      <trkpt lat="49.43861" lon="1.22926">
        <ele>150</ele>
        <time>2017-03-07T14:42:15Z</time>
      </trkpt>
      <trkpt lat="49.43864" lon="1.22918">
        <ele>150</ele>
        <time>2017-03-07T14:42:15Z</time>
      </trkpt>
      <trkpt lat="49.43867" lon="1.22915">
        <ele>150</ele>
        <time>2017-03-07T14:42:15Z</time>
      </trkpt>
      <trkpt lat="49.43872" lon="1.2291">
        <ele>150</ele>
        <time>2017-03-07T14:42:15Z</time>
      </trkpt>
      <trkpt lat="49.43874" lon="1.22909">
        <ele>150</ele>
        <time>2017-03-07T14:42:32Z</time>
      </trkpt>
      <trkpt lat="49.4388" lon="1.22907">
        <ele>153</ele>
        <time>2017-03-07T14:42:32Z</time>
      </trkpt>
      <trkpt lat="49.43885" lon="1.22906">
        <ele>153</ele>
        <time>2017-03-07T14:42:32Z</time>
      </trkpt>
      <trkpt lat="49.4389" lon="1.22902">
        <ele>153</ele>
        <time>2017-03-07T14:42:32Z</time>
      </trkpt>
      <trkpt lat="49.43892" lon="1.22904">
        <ele>153</ele>
        <time>2017-03-07T14:42:46Z</time>
      </trkpt>
      <trkpt lat="49.43896" lon="1.22902">
        <ele>153</ele>
        <time>2017-03-07T14:42:46Z</time>
      </trkpt>
      <trkpt lat="49.43901" lon="1.229">
        <ele>153</ele>
        <time>2017-03-07T14:42:46Z</time>
      </trkpt>
      <trkpt lat="49.43905" lon="1.22897">
        <ele>153</ele>
        <time>2017-03-07T14:42:46Z</time>
      </trkpt>
      <trkpt lat="49.4391" lon="1.22893">
        <ele>153</ele>
        <time>2017-03-07T14:43:02Z</time>
      </trkpt>
      <trkpt lat="49.43915" lon="1.2289">
        <ele>153</ele>
        <time>2017-03-07T14:43:02Z</time>
      </trkpt>
      <trkpt lat="49.4392" lon="1.22885">
        <ele>153</ele>
        <time>2017-03-07T14:43:02Z</time>
      </trkpt>
      <trkpt lat="49.43922" lon="1.22884">
        <ele>153</ele>
        <time>2017-03-07T14:43:02Z</time>
      </trkpt>
      <trkpt lat="49.4393" lon="1.22877">
        <ele>153</ele>
        <time>2017-03-07T14:43:19Z</time>
      </trkpt>
      <trkpt lat="49.43934" lon="1.22877">
        <ele>153</ele>
        <time>2017-03-07T14:43:19Z</time>
      </trkpt>
      <trkpt lat="49.43939" lon="1.22874">
        <ele>151</ele>
        <time>2017-03-07T14:43:19Z</time>
      </trkpt>
      <trkpt lat="49.43944" lon="1.22869">
        <ele>151</ele>
        <time>2017-03-07T14:43:19Z</time>
      </trkpt>
      <trkpt lat="49.43947" lon="1.22866">
        <ele>151</ele>
        <time>2017-03-07T14:43:37Z</time>
      </trkpt>
      <trkpt lat="49.43952" lon="1.22864">
        <ele>151</ele>
        <time>2017-03-07T14:43:38Z</time>
      </trkpt>
      <trkpt lat="49.43953" lon="1.22859">
        <ele>151</ele>
        <time>2017-03-07T14:43:39Z</time>
      </trkpt>
      <trkpt lat="49.43953" lon="1.22858">
        <ele>151</ele>
        <time>2017-03-07T14:43:40Z</time>
      </trkpt>
      <trkpt lat="49.43956" lon="1.22856">
        <ele>151</ele>
        <time>2017-03-07T14:43:40Z</time>
      </trkpt>
      <trkpt lat="49.43961" lon="1.22853">
        <ele>150</ele>
        <time>2017-03-07T14:43:56Z</time>
      </trkpt>
      <trkpt lat="49.43968" lon="1.2285">
        <ele>150</ele>
        <time>2017-03-07T14:43:56Z</time>
      </trkpt>
      <trkpt lat="49.43971" lon="1.22847">
        <ele>150</ele>
        <time>2017-03-07T14:43:56Z</time>
      </trkpt>
      <trkpt lat="49.43977" lon="1.22842">
        <ele>150</ele>
        <time>2017-03-07T14:43:56Z</time>
      </trkpt>
      <trkpt lat="49.4398" lon="1.2284">
        <ele>150</ele>
        <time>2017-03-07T14:44:09Z</time>
      </trkpt>
      <trkpt lat="49.43985" lon="1.22834">
        <ele>150</ele>
        <time>2017-03-07T14:44:10Z</time>
      </trkpt>
      <trkpt lat="49.4399" lon="1.22833">
        <ele>150</ele>
        <time>2017-03-07T14:44:10Z</time>
      </trkpt>
      <trkpt lat="49.43994" lon="1.22832">
        <ele>150</ele>
        <time>2017-03-07T14:44:10Z</time>
      </trkpt>
      <trkpt lat="49.44" lon="1.22831">
        <ele>150</ele>
        <time>2017-03-07T14:44:25Z</time>
      </trkpt>
      <trkpt lat="49.44004" lon="1.22827">
        <ele>150</ele>
        <time>2017-03-07T14:44:26Z</time>
      </trkpt>
      <trkpt lat="49.44008" lon="1.22823">
        <ele>150</ele>
        <time>2017-03-07T14:44:26Z</time>
      </trkpt>
      <trkpt lat="49.44011" lon="1.22819">
        <ele>150</ele>
        <time>2017-03-07T14:44:26Z</time>
      </trkpt>
      <trkpt lat="49.44013" lon="1.22816">
        <ele>150</ele>
        <time>2017-03-07T14:44:41Z</time>
      </trkpt>
      <trkpt lat="49.44018" lon="1.22812">
        <ele>150</ele>
        <time>2017-03-07T14:44:42Z</time>
      </trkpt>
      <trkpt lat="49.44021" lon="1.22809">
        <ele>150</ele>
        <time>2017-03-07T14:44:42Z</time>
      </trkpt>
      <trkpt lat="49.44026" lon="1.22805">
        <ele>150</ele>
        <time>2017-03-07T14:44:42Z</time>
      </trkpt>
      <trkpt lat="49.4403" lon="1.22803">
        <ele>150</ele>
        <time>2017-03-07T14:44:57Z</time>
      </trkpt>
      <trkpt lat="49.44035" lon="1.22801">
        <ele>150</ele>
        <time>2017-03-07T14:44:58Z</time>
      </trkpt>
      <trkpt lat="49.44039" lon="1.22799">
        <ele>150</ele>
        <time>2017-03-07T14:44:58Z</time>
      </trkpt>
      <trkpt lat="49.44044" lon="1.22796">
        <ele>149</ele>
        <time>2017-03-07T14:44:58Z</time>
      </trkpt>
      <trkpt lat="49.44048" lon="1.22794">
        <ele>149</ele>
        <time>2017-03-07T14:45:13Z</time>
      </trkpt>
      <trkpt lat="49.44052" lon="1.2279">
        <ele>151</ele>
        <time>2017-03-07T14:45:14Z</time>
      </trkpt>
      <trkpt lat="49.44056" lon="1.22786">
        <ele>151</ele>
        <time>2017-03-07T14:45:14Z</time>
      </trkpt>
      <trkpt lat="49.4406" lon="1.22783">
        <ele>151</ele>
        <time>2017-03-07T14:45:14Z</time>
      </trkpt>
      <trkpt lat="49.44065" lon="1.22781">
        <ele>151</ele>
        <time>2017-03-07T14:45:30Z</time>
      </trkpt>
      <trkpt lat="49.4407" lon="1.22778">
        <ele>151</ele>
        <time>2017-03-07T14:45:30Z</time>
      </trkpt>
      <trkpt lat="49.44074" lon="1.22775">
        <ele>151</ele>
        <time>2017-03-07T14:45:30Z</time>
      </trkpt>
      <trkpt lat="49.44079" lon="1.22771">
        <ele>151</ele>
        <time>2017-03-07T14:45:30Z</time>
      </trkpt>
      <trkpt lat="49.44084" lon="1.22767">
        <ele>151</ele>
        <time>2017-03-07T14:45:45Z</time>
      </trkpt>
      <trkpt lat="49.44089" lon="1.22761">
        <ele>151</ele>
        <time>2017-03-07T14:45:46Z</time>
      </trkpt>
      <trkpt lat="49.44094" lon="1.22758">
        <ele>151</ele>
        <time>2017-03-07T14:45:46Z</time>
      </trkpt>
      <trkpt lat="49.44098" lon="1.22757">
        <ele>151</ele>
        <time>2017-03-07T14:45:46Z</time>
      </trkpt>
      <trkpt lat="49.44109" lon="1.22752">
        <ele>151</ele>
        <time>2017-03-07T14:46:05Z</time>
      </trkpt>
      <trkpt lat="49.44114" lon="1.22752">
        <ele>151</ele>
        <time>2017-03-07T14:46:06Z</time>
      </trkpt>
      <trkpt lat="49.44118" lon="1.22749">
        <ele>151</ele>
        <time>2017-03-07T14:46:06Z</time>
      </trkpt>
      <trkpt lat="49.4412" lon="1.22745">
        <ele>151</ele>
        <time>2017-03-07T14:46:06Z</time>
      </trkpt>
      <trkpt lat="49.44127" lon="1.22741">
        <ele>150</ele>
        <time>2017-03-07T14:46:21Z</time>
      </trkpt>
      <trkpt lat="49.44131" lon="1.22739">
        <ele>150</ele>
        <time>2017-03-07T14:46:22Z</time>
      </trkpt>
      <trkpt lat="49.44136" lon="1.22736">
        <ele>150</ele>
        <time>2017-03-07T14:46:22Z</time>
      </trkpt>
      <trkpt lat="49.4414" lon="1.22732">
        <ele>150</ele>
        <time>2017-03-07T14:46:22Z</time>
      </trkpt>
      <trkpt lat="49.44144" lon="1.22729">
        <ele>150</ele>
        <time>2017-03-07T14:46:37Z</time>
      </trkpt>
      <trkpt lat="49.4415" lon="1.22725">
        <ele>150</ele>
        <time>2017-03-07T14:46:38Z</time>
      </trkpt>
      <trkpt lat="49.44155" lon="1.22722">
        <ele>150</ele>
        <time>2017-03-07T14:46:38Z</time>
      </trkpt>
      <trkpt lat="49.4416" lon="1.2272">
        <ele>150</ele>
        <time>2017-03-07T14:46:38Z</time>
      </trkpt>
      <trkpt lat="49.44164" lon="1.22715">
        <ele>150</ele>
        <time>2017-03-07T14:46:53Z</time>
      </trkpt>
      <trkpt lat="49.44169" lon="1.22713">
        <ele>150</ele>
        <time>2017-03-07T14:46:54Z</time>
      </trkpt>
      <trkpt lat="49.44172" lon="1.2271">
        <ele>150</ele>
        <time>2017-03-07T14:46:54Z</time>
      </trkpt>
      <trkpt lat="49.44177" lon="1.22706">
        <ele>152</ele>
        <time>2017-03-07T14:46:54Z</time>
      </trkpt>
      <trkpt lat="49.44182" lon="1.227">
        <ele>152</ele>
        <time>2017-03-07T14:47:09Z</time>
      </trkpt>
      <trkpt lat="49.44188" lon="1.22697">
        <ele>152</ele>
        <time>2017-03-07T14:47:10Z</time>
      </trkpt>
      <trkpt lat="49.44193" lon="1.22695">
        <ele>152</ele>
        <time>2017-03-07T14:47:10Z</time>
      </trkpt>
      <trkpt lat="49.44197" lon="1.22691">
        <ele>152</ele>
        <time>2017-03-07T14:47:10Z</time>
      </trkpt>
      <trkpt lat="49.44202" lon="1.22689">
        <ele>152</ele>
        <time>2017-03-07T14:47:25Z</time>
      </trkpt>
      <trkpt lat="49.44209" lon="1.22685">
        <ele>149</ele>
        <time>2017-03-07T14:47:26Z</time>
      </trkpt>
      <trkpt lat="49.44213" lon="1.22682">
        <ele>149</ele>
        <time>2017-03-07T14:47:26Z</time>
      </trkpt>
      <trkpt lat="49.44218" lon="1.2268">
        <ele>149</ele>
        <time>2017-03-07T14:47:26Z</time>
      </trkpt>
      <trkpt lat="49.44221" lon="1.22676">
        <ele>149</ele>
        <time>2017-03-07T14:47:41Z</time>
      </trkpt>
      <trkpt lat="49.44224" lon="1.22675">
        <ele>149</ele>
        <time>2017-03-07T14:47:42Z</time>
      </trkpt>
      <trkpt lat="49.44231" lon="1.2267">
        <ele>149</ele>
        <time>2017-03-07T14:47:42Z</time>
      </trkpt>
      <trkpt lat="49.44235" lon="1.22668">
        <ele>149</ele>
        <time>2017-03-07T14:47:42Z</time>
      </trkpt>
      <trkpt lat="49.44232" lon="1.22673">
        <ele>149</ele>
        <time>2017-03-07T14:48:17Z</time>
      </trkpt>
      <trkpt lat="49.44235" lon="1.22667">
        <ele>149</ele>
        <time>2017-03-07T14:48:18Z</time>
      </trkpt>
      <trkpt lat="49.4424" lon="1.22665">
        <ele>149</ele>
        <time>2017-03-07T14:48:18Z</time>
      </trkpt>
      <trkpt lat="49.44245" lon="1.22662">
        <ele>149</ele>
        <time>2017-03-07T14:48:18Z</time>
      </trkpt>
      <trkpt lat="49.44251" lon="1.2266">
        <ele>149</ele>
        <time>2017-03-07T14:48:18Z</time>
      </trkpt>
      <trkpt lat="49.44256" lon="1.22658">
        <ele>149</ele>
        <time>2017-03-07T14:48:33Z</time>
      </trkpt>
      <trkpt lat="49.4426" lon="1.22655">
        <ele>149</ele>
        <time>2017-03-07T14:48:34Z</time>
      </trkpt>
      <trkpt lat="49.44263" lon="1.2265">
        <ele>149</ele>
        <time>2017-03-07T14:48:34Z</time>
      </trkpt>
      <trkpt lat="49.44269" lon="1.22647">
        <ele>149</ele>
        <time>2017-03-07T14:48:34Z</time>
      </trkpt>
      <trkpt lat="49.44274" lon="1.22645">
        <ele>149</ele>
        <time>2017-03-07T14:48:51Z</time>
      </trkpt>
      <trkpt lat="49.44278" lon="1.22641">
        <ele>149</ele>
        <time>2017-03-07T14:48:51Z</time>
      </trkpt>
      <trkpt lat="49.44282" lon="1.22639">
        <ele>149</ele>
        <time>2017-03-07T14:48:51Z</time>
      </trkpt>
      <trkpt lat="49.44286" lon="1.22637">
        <ele>149</ele>
        <time>2017-03-07T14:48:51Z</time>
      </trkpt>
      <trkpt lat="49.44291" lon="1.22635">
        <ele>149</ele>
        <time>2017-03-07T14:49:05Z</time>
      </trkpt>
      <trkpt lat="49.44296" lon="1.2263">
        <ele>147</ele>
        <time>2017-03-07T14:49:06Z</time>
      </trkpt>
      <trkpt lat="49.44301" lon="1.22626">
        <ele>147</ele>
        <time>2017-03-07T14:49:06Z</time>
      </trkpt>
      <trkpt lat="49.44307" lon="1.22628">
        <ele>147</ele>
        <time>2017-03-07T14:49:06Z</time>
      </trkpt>
      <trkpt lat="49.44308" lon="1.2262">
        <ele>147</ele>
        <time>2017-03-07T14:49:21Z</time>
      </trkpt>
      <trkpt lat="49.44313" lon="1.22612">
        <ele>147</ele>
        <time>2017-03-07T14:49:22Z</time>
      </trkpt>
      <trkpt lat="49.44317" lon="1.22614">
        <ele>147</ele>
        <time>2017-03-07T14:49:22Z</time>
      </trkpt>
      <trkpt lat="49.44325" lon="1.22614">
        <ele>147</ele>
        <time>2017-03-07T14:49:22Z</time>
      </trkpt>
      <trkpt lat="49.44331" lon="1.22614">
        <ele>147</ele>
        <time>2017-03-07T14:49:37Z</time>
      </trkpt>
      <trkpt lat="49.44335" lon="1.2261">
        <ele>147</ele>
        <time>2017-03-07T14:49:38Z</time>
      </trkpt>
      <trkpt lat="49.44339" lon="1.2261">
        <ele>147</ele>
        <time>2017-03-07T14:49:38Z</time>
      </trkpt>
      <trkpt lat="49.44344" lon="1.22608">
        <ele>147</ele>
        <time>2017-03-07T14:49:38Z</time>
      </trkpt>
      <trkpt lat="49.44348" lon="1.22602">
        <ele>147</ele>
        <time>2017-03-07T14:49:53Z</time>
      </trkpt>
      <trkpt lat="49.44352" lon="1.226">
        <ele>147</ele>
        <time>2017-03-07T14:49:54Z</time>
      </trkpt>
      <trkpt lat="49.44358" lon="1.22598">
        <ele>147</ele>
        <time>2017-03-07T14:49:54Z</time>
      </trkpt>
      <trkpt lat="49.44362" lon="1.22595">
        <ele>147</ele>
        <time>2017-03-07T14:49:54Z</time>
      </trkpt>
      <trkpt lat="49.44367" lon="1.22593">
        <ele>147</ele>
        <time>2017-03-07T14:50:10Z</time>
      </trkpt>
      <trkpt lat="49.44373" lon="1.22592">
        <ele>147</ele>
        <time>2017-03-07T14:50:10Z</time>
      </trkpt>
      <trkpt lat="49.44377" lon="1.2259">
        <ele>146</ele>
        <time>2017-03-07T14:50:10Z</time>
      </trkpt>
      <trkpt lat="49.44381" lon="1.22588">
        <ele>146</ele>
        <time>2017-03-07T14:50:10Z</time>
      </trkpt>
      <trkpt lat="49.44384" lon="1.22587">
        <ele>146</ele>
        <time>2017-03-07T14:50:37Z</time>
      </trkpt>
      <trkpt lat="49.44385" lon="1.22586">
        <ele>146</ele>
        <time>2017-03-07T14:50:38Z</time>
      </trkpt>
      <trkpt lat="49.44389" lon="1.22583">
        <ele>146</ele>
        <time>2017-03-07T14:50:38Z</time>
      </trkpt>
      <trkpt lat="49.44393" lon="1.2258">
        <ele>146</ele>
        <time>2017-03-07T14:50:38Z</time>
      </trkpt>
      <trkpt lat="49.44397" lon="1.22577">
        <ele>146</ele>
        <time>2017-03-07T14:50:38Z</time>
      </trkpt>
      <trkpt lat="49.44402" lon="1.22576">
        <ele>146</ele>
        <time>2017-03-07T14:50:53Z</time>
      </trkpt>
      <trkpt lat="49.44408" lon="1.22573">
        <ele>146</ele>
        <time>2017-03-07T14:50:54Z</time>
      </trkpt>
      <trkpt lat="49.44412" lon="1.2257">
        <ele>146</ele>
        <time>2017-03-07T14:50:54Z</time>
      </trkpt>
      <trkpt lat="49.44417" lon="1.22568">
        <ele>146</ele>
        <time>2017-03-07T14:50:54Z</time>
      </trkpt>
      <trkpt lat="49.44422" lon="1.22567">
        <ele>146</ele>
        <time>2017-03-07T14:51:10Z</time>
      </trkpt>
      <trkpt lat="49.44426" lon="1.22566">
        <ele>146</ele>
        <time>2017-03-07T14:51:10Z</time>
      </trkpt>
      <trkpt lat="49.44431" lon="1.22563">
        <ele>146</ele>
        <time>2017-03-07T14:51:10Z</time>
      </trkpt>
      <trkpt lat="49.44436" lon="1.2256">
        <ele>146</ele>
        <time>2017-03-07T14:51:10Z</time>
      </trkpt>
      <trkpt lat="49.4444" lon="1.22559">
        <ele>146</ele>
        <time>2017-03-07T14:51:26Z</time>
      </trkpt>
      <trkpt lat="49.44446" lon="1.22556">
        <ele>146</ele>
        <time>2017-03-07T14:51:26Z</time>
      </trkpt>
      <trkpt lat="49.44449" lon="1.22554">
        <ele>146</ele>
        <time>2017-03-07T14:51:26Z</time>
      </trkpt>
      <trkpt lat="49.44455" lon="1.22552">
        <ele>146</ele>
        <time>2017-03-07T14:51:27Z</time>
      </trkpt>
      <trkpt lat="49.44458" lon="1.2255">
        <ele>146</ele>
        <time>2017-03-07T14:51:41Z</time>
      </trkpt>
      <trkpt lat="49.44464" lon="1.22547">
        <ele>145</ele>
        <time>2017-03-07T14:51:42Z</time>
      </trkpt>
      <trkpt lat="49.44469" lon="1.22545">
        <ele>145</ele>
        <time>2017-03-07T14:51:42Z</time>
      </trkpt>
      <trkpt lat="49.44475" lon="1.22542">
        <ele>145</ele>
        <time>2017-03-07T14:51:42Z</time>
      </trkpt>
      <trkpt lat="49.4448" lon="1.22542">
        <ele>145</ele>
        <time>2017-03-07T14:51:57Z</time>
      </trkpt>
      <trkpt lat="49.44485" lon="1.2254">
        <ele>146</ele>
        <time>2017-03-07T14:51:58Z</time>
      </trkpt>
      <trkpt lat="49.44489" lon="1.22537">
        <ele>146</ele>
        <time>2017-03-07T14:51:58Z</time>
      </trkpt>
      <trkpt lat="49.44494" lon="1.22535">
        <ele>146</ele>
        <time>2017-03-07T14:51:58Z</time>
      </trkpt>
      <trkpt lat="49.44499" lon="1.22533">
        <ele>146</ele>
        <time>2017-03-07T14:52:13Z</time>
      </trkpt>
      <trkpt lat="49.44503" lon="1.22532">
        <ele>146</ele>
        <time>2017-03-07T14:52:14Z</time>
      </trkpt>
      <trkpt lat="49.44509" lon="1.22528">
        <ele>146</ele>
        <time>2017-03-07T14:52:14Z</time>
      </trkpt>
      <trkpt lat="49.44513" lon="1.22528">
        <ele>146</ele>
        <time>2017-03-07T14:52:14Z</time>
      </trkpt>
      <trkpt lat="49.44518" lon="1.22525">
        <ele>146</ele>
        <time>2017-03-07T14:52:30Z</time>
      </trkpt>
      <trkpt lat="49.44524" lon="1.22523">
        <ele>146</ele>
        <time>2017-03-07T14:52:30Z</time>
      </trkpt>
      <trkpt lat="49.44529" lon="1.22522">
        <ele>146</ele>
        <time>2017-03-07T14:52:30Z</time>
      </trkpt>
      <trkpt lat="49.44532" lon="1.2252">
        <ele>146</ele>
        <time>2017-03-07T14:52:30Z</time>
      </trkpt>
      <trkpt lat="49.44537" lon="1.22518">
        <ele>146</ele>
        <time>2017-03-07T14:52:51Z</time>
      </trkpt>
      <trkpt lat="49.44541" lon="1.22517">
        <ele>146</ele>
        <time>2017-03-07T14:52:51Z</time>
      </trkpt>
      <trkpt lat="49.44546" lon="1.22516">
        <ele>148</ele>
        <time>2017-03-07T14:52:51Z</time>
      </trkpt>
      <trkpt lat="49.44555" lon="1.2251">
        <ele>148</ele>
        <time>2017-03-07T14:52:51Z</time>
      </trkpt>
      <trkpt lat="49.44558" lon="1.22508">
        <ele>148</ele>
        <time>2017-03-07T14:53:05Z</time>
      </trkpt>
      <trkpt lat="49.44565" lon="1.22504">
        <ele>148</ele>
        <time>2017-03-07T14:53:06Z</time>
      </trkpt>
      <trkpt lat="49.44569" lon="1.22502">
        <ele>148</ele>
        <time>2017-03-07T14:53:06Z</time>
      </trkpt>
      <trkpt lat="49.44574" lon="1.22499">
        <ele>148</ele>
        <time>2017-03-07T14:53:06Z</time>
      </trkpt>
      <trkpt lat="49.44579" lon="1.22496">
        <ele>148</ele>
        <time>2017-03-07T14:53:22Z</time>
      </trkpt>
      <trkpt lat="49.44581" lon="1.22495">
        <ele>148</ele>
        <time>2017-03-07T14:53:23Z</time>
      </trkpt>
      <trkpt lat="49.44586" lon="1.22494">
        <ele>148</ele>
        <time>2017-03-07T14:53:23Z</time>
      </trkpt>
      <trkpt lat="49.4459" lon="1.22495">
        <ele>148</ele>
        <time>2017-03-07T14:53:23Z</time>
      </trkpt>
      <trkpt lat="49.44593" lon="1.22502">
        <ele>148</ele>
        <time>2017-03-07T14:53:38Z</time>
      </trkpt>
      <trkpt lat="49.44594" lon="1.22509">
        <ele>148</ele>
        <time>2017-03-07T14:53:38Z</time>
      </trkpt>
      <trkpt lat="49.44595" lon="1.22513">
        <ele>148</ele>
        <time>2017-03-07T14:53:38Z</time>
      </trkpt>
      <trkpt lat="49.44596" lon="1.2252">
        <ele>148</ele>
        <time>2017-03-07T14:53:38Z</time>
      </trkpt>
      <trkpt lat="49.44597" lon="1.22529">
        <ele>148</ele>
        <time>2017-03-07T14:53:54Z</time>
      </trkpt>
      <trkpt lat="49.44597" lon="1.22533">
        <ele>148</ele>
        <time>2017-03-07T14:53:54Z</time>
      </trkpt>
      <trkpt lat="49.44599" lon="1.22543">
        <ele>147</ele>
        <time>2017-03-07T14:53:54Z</time>
      </trkpt>
      <trkpt lat="49.44599" lon="1.22547">
        <ele>147</ele>
        <time>2017-03-07T14:53:54Z</time>
      </trkpt>
      <trkpt lat="49.446" lon="1.22553">
        <ele>147</ele>
        <time>2017-03-07T14:54:10Z</time>
      </trkpt>
      <trkpt lat="49.44601" lon="1.22561">
        <ele>147</ele>
        <time>2017-03-07T14:54:10Z</time>
      </trkpt>
      <trkpt lat="49.44602" lon="1.22569">
        <ele>147</ele>
        <time>2017-03-07T14:54:10Z</time>
      </trkpt>
      <trkpt lat="49.44602" lon="1.22575">
        <ele>147</ele>
        <time>2017-03-07T14:54:10Z</time>
      </trkpt>
      <trkpt lat="49.44604" lon="1.22583">
        <ele>147</ele>
        <time>2017-03-07T14:54:25Z</time>
      </trkpt>
      <trkpt lat="49.44604" lon="1.22591">
        <ele>147</ele>
        <time>2017-03-07T14:54:26Z</time>
      </trkpt>
      <trkpt lat="49.44605" lon="1.226">
        <ele>147</ele>
        <time>2017-03-07T14:54:26Z</time>
      </trkpt>
      <trkpt lat="49.44605" lon="1.22608">
        <ele>147</ele>
        <time>2017-03-07T14:54:26Z</time>
      </trkpt>
      <trkpt lat="49.44605" lon="1.22616">
        <ele>147</ele>
        <time>2017-03-07T14:54:42Z</time>
      </trkpt>
      <trkpt lat="49.44607" lon="1.22623">
        <ele>147</ele>
        <time>2017-03-07T14:54:42Z</time>
      </trkpt>
      <trkpt lat="49.44607" lon="1.22631">
        <ele>146</ele>
        <time>2017-03-07T14:54:42Z</time>
      </trkpt>
      <trkpt lat="49.44607" lon="1.22633">
        <ele>146</ele>
        <time>2017-03-07T14:54:42Z</time>
      </trkpt>
      <trkpt lat="49.44609" lon="1.22644">
        <ele>146</ele>
        <time>2017-03-07T14:55:02Z</time>
      </trkpt>
      <trkpt lat="49.44611" lon="1.22657">
        <ele>146</ele>
        <time>2017-03-07T14:55:02Z</time>
      </trkpt>
      <trkpt lat="49.44612" lon="1.22663">
        <ele>146</ele>
        <time>2017-03-07T14:55:02Z</time>
      </trkpt>
      <trkpt lat="49.44613" lon="1.22671">
        <ele>146</ele>
        <time>2017-03-07T14:55:02Z</time>
      </trkpt>
      <trkpt lat="49.44614" lon="1.22678">
        <ele>146</ele>
        <time>2017-03-07T14:55:17Z</time>
      </trkpt>
      <trkpt lat="49.44616" lon="1.22685">
        <ele>146</ele>
        <time>2017-03-07T14:55:18Z</time>
      </trkpt>
      <trkpt lat="49.44616" lon="1.22691">
        <ele>146</ele>
        <time>2017-03-07T14:55:18Z</time>
      </trkpt>
      <trkpt lat="49.44619" lon="1.22699">
        <ele>146</ele>
        <time>2017-03-07T14:55:18Z</time>
      </trkpt>
      <trkpt lat="49.4462" lon="1.22703">
        <ele>146</ele>
        <time>2017-03-07T14:55:33Z</time>
      </trkpt>
      <trkpt lat="49.44624" lon="1.22713">
        <ele>146</ele>
        <time>2017-03-07T14:55:34Z</time>
      </trkpt>
      <trkpt lat="49.44626" lon="1.2272">
        <ele>149</ele>
        <time>2017-03-07T14:55:34Z</time>
      </trkpt>
      <trkpt lat="49.44627" lon="1.22728">
        <ele>149</ele>
        <time>2017-03-07T14:55:34Z</time>
      </trkpt>
      <trkpt lat="49.44627" lon="1.22731">
        <ele>149</ele>
        <time>2017-03-07T14:55:49Z</time>
      </trkpt>
      <trkpt lat="49.44628" lon="1.22732">
        <ele>149</ele>
        <time>2017-03-07T14:55:50Z</time>
      </trkpt>
      <trkpt lat="49.44629" lon="1.22739">
        <ele>149</ele>
        <time>2017-03-07T14:55:50Z</time>
      </trkpt>
      <trkpt lat="49.4463" lon="1.22745">
        <ele>149</ele>
        <time>2017-03-07T14:55:50Z</time>
      </trkpt>
      <trkpt lat="49.44631" lon="1.22751">
        <ele>149</ele>
        <time>2017-03-07T14:56:06Z</time>
      </trkpt>
      <trkpt lat="49.44632" lon="1.22759">
        <ele>149</ele>
        <time>2017-03-07T14:56:06Z</time>
      </trkpt>
      <trkpt lat="49.44634" lon="1.22766">
        <ele>149</ele>
        <time>2017-03-07T14:56:06Z</time>
      </trkpt>
      <trkpt lat="49.44635" lon="1.22771">
        <ele>149</ele>
        <time>2017-03-07T14:56:06Z</time>
      </trkpt>
      <trkpt lat="49.44636" lon="1.2278">
        <ele>149</ele>
        <time>2017-03-07T14:56:23Z</time>
      </trkpt>
      <trkpt lat="49.44639" lon="1.22786">
        <ele>149</ele>
        <time>2017-03-07T14:56:23Z</time>
      </trkpt>
      <trkpt lat="49.44641" lon="1.22791">
        <ele>149</ele>
        <time>2017-03-07T14:56:23Z</time>
      </trkpt>
      <trkpt lat="49.44642" lon="1.22799">
        <ele>148</ele>
        <time>2017-03-07T14:56:23Z</time>
      </trkpt>
      <trkpt lat="49.44643" lon="1.22805">
        <ele>148</ele>
        <time>2017-03-07T14:56:38Z</time>
      </trkpt>
      <trkpt lat="49.44644" lon="1.22811">
        <ele>148</ele>
        <time>2017-03-07T14:56:38Z</time>
      </trkpt>
      <trkpt lat="49.44645" lon="1.22816">
        <ele>148</ele>
        <time>2017-03-07T14:56:38Z</time>
      </trkpt>
      <trkpt lat="49.44645" lon="1.22821">
        <ele>148</ele>
        <time>2017-03-07T14:56:38Z</time>
      </trkpt>
      <trkpt lat="49.44646" lon="1.22827">
        <ele>148</ele>
        <time>2017-03-07T14:56:55Z</time>
      </trkpt>
      <trkpt lat="49.44646" lon="1.22829">
        <ele>148</ele>
        <time>2017-03-07T14:56:55Z</time>
      </trkpt>
      <trkpt lat="49.44649" lon="1.22841">
        <ele>148</ele>
        <time>2017-03-07T14:56:55Z</time>
      </trkpt>
      <trkpt lat="49.44651" lon="1.22846">
        <ele>148</ele>
        <time>2017-03-07T14:56:55Z</time>
      </trkpt>
      <trkpt lat="49.44654" lon="1.22852">
        <ele>148</ele>
        <time>2017-03-07T14:57:10Z</time>
      </trkpt>
      <trkpt lat="49.44656" lon="1.22855">
        <ele>148</ele>
        <time>2017-03-07T14:57:10Z</time>
      </trkpt>
      <trkpt lat="49.44658" lon="1.2286">
        <ele>148</ele>
        <time>2017-03-07T14:57:10Z</time>
      </trkpt>
      <trkpt lat="49.44659" lon="1.22869">
        <ele>148</ele>
        <time>2017-03-07T14:57:10Z</time>
      </trkpt>
      <trkpt lat="49.44661" lon="1.22876">
        <ele>147</ele>
        <time>2017-03-07T14:57:31Z</time>
      </trkpt>
      <trkpt lat="49.44662" lon="1.22879">
        <ele>147</ele>
        <time>2017-03-07T14:57:31Z</time>
      </trkpt>
      <trkpt lat="49.44663" lon="1.22882">
        <ele>147</ele>
        <time>2017-03-07T14:57:31Z</time>
      </trkpt>
      <trkpt lat="49.44663" lon="1.22887">
        <ele>147</ele>
        <time>2017-03-07T14:57:31Z</time>
      </trkpt>
      <trkpt lat="49.44664" lon="1.2289">
        <ele>147</ele>
        <time>2017-03-07T14:57:31Z</time>
      </trkpt>
      <trkpt lat="49.44665" lon="1.22895">
        <ele>147</ele>
        <time>2017-03-07T14:57:46Z</time>
      </trkpt>
      <trkpt lat="49.44666" lon="1.229">
        <ele>147</ele>
        <time>2017-03-07T14:57:46Z</time>
      </trkpt>
      <trkpt lat="49.44668" lon="1.22904">
        <ele>147</ele>
        <time>2017-03-07T14:57:47Z</time>
      </trkpt>
      <trkpt lat="49.44668" lon="1.22909">
        <ele>147</ele>
        <time>2017-03-07T14:57:47Z</time>
      </trkpt>
      <trkpt lat="49.44669" lon="1.22914">
        <ele>147</ele>
        <time>2017-03-07T14:58:02Z</time>
      </trkpt>
      <trkpt lat="49.44669" lon="1.22918">
        <ele>147</ele>
        <time>2017-03-07T14:58:02Z</time>
      </trkpt>
      <trkpt lat="49.44669" lon="1.22924">
        <ele>147</ele>
        <time>2017-03-07T14:58:02Z</time>
      </trkpt>
      <trkpt lat="49.44672" lon="1.22931">
        <ele>147</ele>
        <time>2017-03-07T14:58:02Z</time>
      </trkpt>
      <trkpt lat="49.44673" lon="1.22936">
        <ele>147</ele>
        <time>2017-03-07T14:58:18Z</time>
      </trkpt>
      <trkpt lat="49.44674" lon="1.22944">
        <ele>147</ele>
        <time>2017-03-07T14:58:18Z</time>
      </trkpt>
      <trkpt lat="49.44676" lon="1.22947">
        <ele>147</ele>
        <time>2017-03-07T14:58:19Z</time>
      </trkpt>
      <trkpt lat="49.44678" lon="1.22954">
        <ele>147</ele>
        <time>2017-03-07T14:58:19Z</time>
      </trkpt>
      <trkpt lat="49.44681" lon="1.22961">
        <ele>147</ele>
        <time>2017-03-07T14:58:34Z</time>
      </trkpt>
      <trkpt lat="49.44683" lon="1.22966">
        <ele>147</ele>
        <time>2017-03-07T14:58:34Z</time>
      </trkpt>
      <trkpt lat="49.44686" lon="1.22974">
        <ele>147</ele>
        <time>2017-03-07T14:58:34Z</time>
      </trkpt>
      <trkpt lat="49.44688" lon="1.22978">
        <ele>147</ele>
        <time>2017-03-07T14:58:34Z</time>
      </trkpt>
      <trkpt lat="49.4469" lon="1.22985">
        <ele>147</ele>
        <time>2017-03-07T14:58:50Z</time>
      </trkpt>
      <trkpt lat="49.44692" lon="1.22991">
        <ele>147</ele>
        <time>2017-03-07T14:58:50Z</time>
      </trkpt>
      <trkpt lat="49.44696" lon="1.23001">
        <ele>147</ele>
        <time>2017-03-07T14:58:50Z</time>
      </trkpt>
      <trkpt lat="49.44697" lon="1.23007">
        <ele>147</ele>
        <time>2017-03-07T14:58:50Z</time>
      </trkpt>
      <trkpt lat="49.44699" lon="1.23011">
        <ele>147</ele>
        <time>2017-03-07T14:59:06Z</time>
      </trkpt>
      <trkpt lat="49.44702" lon="1.2302">
        <ele>147</ele>
        <time>2017-03-07T14:59:06Z</time>
      </trkpt>
      <trkpt lat="49.44704" lon="1.23026">
        <ele>147</ele>
        <time>2017-03-07T14:59:06Z</time>
      </trkpt>
      <trkpt lat="49.44705" lon="1.2303">
        <ele>147</ele>
        <time>2017-03-07T14:59:06Z</time>
      </trkpt>
      <trkpt lat="49.44706" lon="1.23035">
        <ele>147</ele>
        <time>2017-03-07T14:59:23Z</time>
      </trkpt>
      <trkpt lat="49.44709" lon="1.23041">
        <ele>149</ele>
        <time>2017-03-07T14:59:23Z</time>
      </trkpt>
      <trkpt lat="49.44712" lon="1.23049">
        <ele>148</ele>
        <time>2017-03-07T14:59:23Z</time>
      </trkpt>
      <trkpt lat="49.44714" lon="1.23055">
        <ele>148</ele>
        <time>2017-03-07T14:59:23Z</time>
      </trkpt>
      <trkpt lat="49.44718" lon="1.23068">
        <ele>148</ele>
        <time>2017-03-07T14:59:42Z</time>
      </trkpt>
      <trkpt lat="49.4472" lon="1.23074">
        <ele>148</ele>
        <time>2017-03-07T14:59:42Z</time>
      </trkpt>
      <trkpt lat="49.44722" lon="1.23079">
        <ele>148</ele>
        <time>2017-03-07T14:59:42Z</time>
      </trkpt>
      <trkpt lat="49.44724" lon="1.23084">
        <ele>148</ele>
        <time>2017-03-07T14:59:42Z</time>
      </trkpt>
      <trkpt lat="49.44729" lon="1.23105">
        <ele>148</ele>
        <time>2017-03-07T15:00:06Z</time>
      </trkpt>
      <trkpt lat="49.44732" lon="1.23111">
        <ele>148</ele>
        <time>2017-03-07T15:00:06Z</time>
      </trkpt>
      <trkpt lat="49.44734" lon="1.23116">
        <ele>148</ele>
        <time>2017-03-07T15:00:06Z</time>
      </trkpt>
      <trkpt lat="49.44736" lon="1.23123">
        <ele>148</ele>
        <time>2017-03-07T15:00:06Z</time>
      </trkpt>
      <trkpt lat="49.44738" lon="1.2313">
        <ele>148</ele>
        <time>2017-03-07T15:00:22Z</time>
      </trkpt>
      <trkpt lat="49.4474" lon="1.23136">
        <ele>148</ele>
        <time>2017-03-07T15:00:22Z</time>
      </trkpt>
      <trkpt lat="49.44742" lon="1.2314">
        <ele>148</ele>
        <time>2017-03-07T15:00:22Z</time>
      </trkpt>
      <trkpt lat="49.44744" lon="1.23149">
        <ele>148</ele>
        <time>2017-03-07T15:00:22Z</time>
      </trkpt>
      <trkpt lat="49.44747" lon="1.23153">
        <ele>148</ele>
        <time>2017-03-07T15:00:38Z</time>
      </trkpt>
      <trkpt lat="49.44749" lon="1.23162">
        <ele>148</ele>
        <time>2017-03-07T15:00:38Z</time>
      </trkpt>
      <trkpt lat="49.44752" lon="1.2317">
        <ele>148</ele>
        <time>2017-03-07T15:00:38Z</time>
      </trkpt>
      <trkpt lat="49.44753" lon="1.23176">
        <ele>148</ele>
        <time>2017-03-07T15:00:38Z</time>
      </trkpt>
      <trkpt lat="49.44757" lon="1.23192">
        <ele>148</ele>
        <time>2017-03-07T15:00:57Z</time>
      </trkpt>
      <trkpt lat="49.44759" lon="1.23199">
        <ele>148</ele>
        <time>2017-03-07T15:00:58Z</time>
      </trkpt>
      <trkpt lat="49.44761" lon="1.23206">
        <ele>148</ele>
        <time>2017-03-07T15:00:58Z</time>
      </trkpt>
      <trkpt lat="49.44763" lon="1.23213">
        <ele>148</ele>
        <time>2017-03-07T15:00:58Z</time>
      </trkpt>
      <trkpt lat="49.44765" lon="1.2322">
        <ele>148</ele>
        <time>2017-03-07T15:01:13Z</time>
      </trkpt>
      <trkpt lat="49.44766" lon="1.23227">
        <ele>148</ele>
        <time>2017-03-07T15:01:14Z</time>
      </trkpt>
      <trkpt lat="49.44766" lon="1.23235">
        <ele>148</ele>
        <time>2017-03-07T15:01:14Z</time>
      </trkpt>
      <trkpt lat="49.44767" lon="1.23241">
        <ele>148</ele>
        <time>2017-03-07T15:01:14Z</time>
      </trkpt>
      <trkpt lat="49.44768" lon="1.23248">
        <ele>148</ele>
        <time>2017-03-07T15:01:30Z</time>
      </trkpt>
      <trkpt lat="49.44769" lon="1.23256">
        <ele>148</ele>
        <time>2017-03-07T15:01:30Z</time>
      </trkpt>
      <trkpt lat="49.44771" lon="1.23263">
        <ele>148</ele>
        <time>2017-03-07T15:01:30Z</time>
      </trkpt>
      <trkpt lat="49.44772" lon="1.2327">
        <ele>148</ele>
        <time>2017-03-07T15:01:30Z</time>
      </trkpt>
      <trkpt lat="49.44773" lon="1.23279">
        <ele>148</ele>
        <time>2017-03-07T15:01:47Z</time>
      </trkpt>
      <trkpt lat="49.44773" lon="1.23287">
        <ele>148</ele>
        <time>2017-03-07T15:01:47Z</time>
      </trkpt>
      <trkpt lat="49.44775" lon="1.23295">
        <ele>149</ele>
        <time>2017-03-07T15:01:47Z</time>
      </trkpt>
      <trkpt lat="49.44775" lon="1.23302">
        <ele>149</ele>
        <time>2017-03-07T15:01:47Z</time>
      </trkpt>
      <trkpt lat="49.44777" lon="1.23308">
        <ele>149</ele>
        <time>2017-03-07T15:02:02Z</time>
      </trkpt>
      <trkpt lat="49.44778" lon="1.23313">
        <ele>149</ele>
        <time>2017-03-07T15:02:02Z</time>
      </trkpt>
      <trkpt lat="49.44779" lon="1.2332">
        <ele>149</ele>
        <time>2017-03-07T15:02:02Z</time>
      </trkpt>
      <trkpt lat="49.4478" lon="1.23328">
        <ele>149</ele>
        <time>2017-03-07T15:02:02Z</time>
      </trkpt>
      <trkpt lat="49.4478" lon="1.23334">
        <ele>149</ele>
        <time>2017-03-07T15:02:19Z</time>
      </trkpt>
      <trkpt lat="49.44781" lon="1.23341">
        <ele>149</ele>
        <time>2017-03-07T15:02:19Z</time>
      </trkpt>
      <trkpt lat="49.44782" lon="1.23346">
        <ele>149</ele>
        <time>2017-03-07T15:02:19Z</time>
      </trkpt>
      <trkpt lat="49.44783" lon="1.23354">
        <ele>149</ele>
        <time>2017-03-07T15:02:19Z</time>
      </trkpt>
      <trkpt lat="49.44784" lon="1.23361">
        <ele>149</ele>
        <time>2017-03-07T15:02:34Z</time>
      </trkpt>
      <trkpt lat="49.44785" lon="1.23366">
        <ele>149</ele>
        <time>2017-03-07T15:02:34Z</time>
      </trkpt>
      <trkpt lat="49.44786" lon="1.23371">
        <ele>149</ele>
        <time>2017-03-07T15:02:34Z</time>
      </trkpt>
      <trkpt lat="49.44787" lon="1.23375">
        <ele>153</ele>
        <time>2017-03-07T15:02:34Z</time>
      </trkpt>
      <trkpt lat="49.44788" lon="1.23382">
        <ele>153</ele>
        <time>2017-03-07T15:03:05Z</time>
      </trkpt>
      <trkpt lat="49.44789" lon="1.23382">
        <ele>153</ele>
        <time>2017-03-07T15:03:06Z</time>
      </trkpt>
      <trkpt lat="49.4479" lon="1.23387">
        <ele>153</ele>
        <time>2017-03-07T15:03:06Z</time>
      </trkpt>
      <trkpt lat="49.44792" lon="1.23393">
        <ele>146</ele>
        <time>2017-03-07T15:03:06Z</time>
      </trkpt>
      <trkpt lat="49.44794" lon="1.23397">
        <ele>146</ele>
        <time>2017-03-07T15:03:06Z</time>
      </trkpt>
      <trkpt lat="49.44796" lon="1.23397">
        <ele>146</ele>
        <time>2017-03-07T15:03:23Z</time>
      </trkpt>
      <trkpt lat="49.44796" lon="1.23398">
        <ele>146</ele>
        <time>2017-03-07T15:03:23Z</time>
      </trkpt>
      <trkpt lat="49.44797" lon="1.23407">
        <ele>146</ele>
        <time>2017-03-07T15:03:23Z</time>
      </trkpt>
      <trkpt lat="49.448" lon="1.23415">
        <ele>146</ele>
        <time>2017-03-07T15:03:23Z</time>
      </trkpt>
      <trkpt lat="49.44802" lon="1.23421">
        <ele>146</ele>
        <time>2017-03-07T15:03:39Z</time>
      </trkpt>
      <trkpt lat="49.44806" lon="1.2343">
        <ele>146</ele>
        <time>2017-03-07T15:03:39Z</time>
      </trkpt>
      <trkpt lat="49.44805" lon="1.23437">
        <ele>146</ele>
        <time>2017-03-07T15:03:39Z</time>
      </trkpt>
      <trkpt lat="49.44806" lon="1.23444">
        <ele>146</ele>
        <time>2017-03-07T15:03:39Z</time>
      </trkpt>
      <trkpt lat="49.44808" lon="1.23449">
        <ele>146</ele>
        <time>2017-03-07T15:03:54Z</time>
      </trkpt>
      <trkpt lat="49.44806" lon="1.23451">
        <ele>146</ele>
        <time>2017-03-07T15:03:54Z</time>
      </trkpt>
      <trkpt lat="49.44807" lon="1.23458">
        <ele>146</ele>
        <time>2017-03-07T15:03:54Z</time>
      </trkpt>
      <trkpt lat="49.44809" lon="1.23464">
        <ele>149</ele>
        <time>2017-03-07T15:03:54Z</time>
      </trkpt>
      <trkpt lat="49.44814" lon="1.2347">
        <ele>149</ele>
        <time>2017-03-07T15:04:10Z</time>
      </trkpt>
      <trkpt lat="49.44814" lon="1.23475">
        <ele>149</ele>
        <time>2017-03-07T15:04:10Z</time>
      </trkpt>
      <trkpt lat="49.44819" lon="1.2348">
        <ele>149</ele>
        <time>2017-03-07T15:04:10Z</time>
      </trkpt>
      <trkpt lat="49.44821" lon="1.23487">
        <ele>149</ele>
        <time>2017-03-07T15:04:10Z</time>
      </trkpt>
      <trkpt lat="49.44824" lon="1.23494">
        <ele>149</ele>
        <time>2017-03-07T15:04:26Z</time>
      </trkpt>
      <trkpt lat="49.44826" lon="1.23498">
        <ele>149</ele>
        <time>2017-03-07T15:04:26Z</time>
      </trkpt>
      <trkpt lat="49.44828" lon="1.23503">
        <ele>149</ele>
        <time>2017-03-07T15:04:26Z</time>
      </trkpt>
      <trkpt lat="49.44829" lon="1.23507">
        <ele>149</ele>
        <time>2017-03-07T15:04:26Z</time>
      </trkpt>
      <trkpt lat="49.44828" lon="1.23506">
        <ele>149</ele>
        <time>2017-03-07T15:04:42Z</time>
      </trkpt>
      <trkpt lat="49.44832" lon="1.23509">
        <ele>149</ele>
        <time>2017-03-07T15:04:42Z</time>
      </trkpt>
      <trkpt lat="49.44836" lon="1.23513">
        <ele>149</ele>
        <time>2017-03-07T15:04:42Z</time>
      </trkpt>
      <trkpt lat="49.44837" lon="1.23519">
        <ele>149</ele>
        <time>2017-03-07T15:04:42Z</time>
      </trkpt>
      <trkpt lat="49.44841" lon="1.23531">
        <ele>149</ele>
        <time>2017-03-07T15:05:02Z</time>
      </trkpt>
      <trkpt lat="49.44844" lon="1.23537">
        <ele>149</ele>
        <time>2017-03-07T15:05:02Z</time>
      </trkpt>
      <trkpt lat="49.44846" lon="1.23541">
        <ele>149</ele>
        <time>2017-03-07T15:05:02Z</time>
      </trkpt>
      <trkpt lat="49.44847" lon="1.23544">
        <ele>150</ele>
        <time>2017-03-07T15:05:03Z</time>
      </trkpt>
      <trkpt lat="49.44851" lon="1.23551">
        <ele>150</ele>
        <time>2017-03-07T15:05:22Z</time>
      </trkpt>
      <trkpt lat="49.44852" lon="1.23559">
        <ele>150</ele>
        <time>2017-03-07T15:05:22Z</time>
      </trkpt>
      <trkpt lat="49.4485" lon="1.23561">
        <ele>150</ele>
        <time>2017-03-07T15:05:22Z</time>
      </trkpt>
      <trkpt lat="49.4485" lon="1.23562">
        <ele>150</ele>
        <time>2017-03-07T15:05:22Z</time>
      </trkpt>
      <trkpt lat="49.44852" lon="1.23571">
        <ele>150</ele>
        <time>2017-03-07T15:05:22Z</time>
      </trkpt>
      <trkpt lat="49.44855" lon="1.23574">
        <ele>150</ele>
        <time>2017-03-07T15:05:38Z</time>
      </trkpt>
      <trkpt lat="49.44858" lon="1.23577">
        <ele>150</ele>
        <time>2017-03-07T15:05:38Z</time>
      </trkpt>
      <trkpt lat="49.4486" lon="1.2358">
        <ele>150</ele>
        <time>2017-03-07T15:05:38Z</time>
      </trkpt>
      <trkpt lat="49.4486" lon="1.23587">
        <ele>150</ele>
        <time>2017-03-07T15:05:38Z</time>
      </trkpt>
      <trkpt lat="49.4486" lon="1.23601">
        <ele>150</ele>
        <time>2017-03-07T15:06:02Z</time>
      </trkpt>
      <trkpt lat="49.44861" lon="1.23614">
        <ele>150</ele>
        <time>2017-03-07T15:06:02Z</time>
      </trkpt>
      <trkpt lat="49.44861" lon="1.23614">
        <ele>150</ele>
        <time>2017-03-07T15:06:02Z</time>
      </trkpt>
      <trkpt lat="49.44863" lon="1.23616">
        <ele>150</ele>
        <time>2017-03-07T15:06:02Z</time>
      </trkpt>
      <trkpt lat="49.44861" lon="1.23621">
        <ele>150</ele>
        <time>2017-03-07T15:09:30Z</time>
      </trkpt>
      <trkpt lat="49.44861" lon="1.23623">
        <ele>150</ele>
        <time>2017-03-07T15:09:30Z</time>
      </trkpt>
      <trkpt lat="49.44862" lon="1.23629">
        <ele>149</ele>
        <time>2017-03-07T15:09:30Z</time>
      </trkpt>
      <trkpt lat="49.44863" lon="1.23631">
        <ele>149</ele>
        <time>2017-03-07T15:09:30Z</time>
      </trkpt>
      <trkpt lat="49.44863" lon="1.23631">
        <ele>149</ele>
        <time>2017-03-07T15:09:30Z</time>
      </trkpt>
      <trkpt lat="49.44865" lon="1.23637">
        <ele>149</ele>
        <time>2017-03-07T15:09:45Z</time>
      </trkpt>
      <trkpt lat="49.44866" lon="1.23643">
        <ele>149</ele>
        <time>2017-03-07T15:09:46Z</time>
      </trkpt>
      <trkpt lat="49.44868" lon="1.2365">
        <ele>149</ele>
        <time>2017-03-07T15:09:46Z</time>
      </trkpt>
      <trkpt lat="49.44868" lon="1.23655">
        <ele>149</ele>
        <time>2017-03-07T15:09:46Z</time>
      </trkpt>
      <trkpt lat="49.44869" lon="1.23659">
        <ele>149</ele>
        <time>2017-03-07T15:10:10Z</time>
      </trkpt>
      <trkpt lat="49.44869" lon="1.23662">
        <ele>149</ele>
        <time>2017-03-07T15:10:10Z</time>
      </trkpt>
      <trkpt lat="49.4487" lon="1.23665">
        <ele>149</ele>
        <time>2017-03-07T15:10:10Z</time>
      </trkpt>
      <trkpt lat="49.4487" lon="1.23667">
        <ele>149</ele>
        <time>2017-03-07T15:10:10Z</time>
      </trkpt>
      <trkpt lat="49.44872" lon="1.23673">
        <ele>149</ele>
        <time>2017-03-07T15:10:10Z</time>
      </trkpt>
      <trkpt lat="49.44874" lon="1.23684">
        <ele>149</ele>
        <time>2017-03-07T15:10:26Z</time>
      </trkpt>
      <trkpt lat="49.44873" lon="1.23686">
        <ele>149</ele>
        <time>2017-03-07T15:10:27Z</time>
      </trkpt>
      <trkpt lat="49.44873" lon="1.23692">
        <ele>149</ele>
        <time>2017-03-07T15:10:28Z</time>
      </trkpt>
      <trkpt lat="49.44871" lon="1.23703">
        <ele>149</ele>
        <time>2017-03-07T15:10:28Z</time>
      </trkpt>
      <trkpt lat="49.44871" lon="1.23706">
        <ele>149</ele>
        <time>2017-03-07T15:10:41Z</time>
      </trkpt>
      <trkpt lat="49.44872" lon="1.23708">
        <ele>149</ele>
        <time>2017-03-07T15:10:42Z</time>
      </trkpt>
      <trkpt lat="49.44874" lon="1.23716">
        <ele>148</ele>
        <time>2017-03-07T15:10:42Z</time>
      </trkpt>
      <trkpt lat="49.44877" lon="1.23724">
        <ele>141</ele>
        <time>2017-03-07T15:10:42Z</time>
      </trkpt>
      <trkpt lat="49.44878" lon="1.23728">
        <ele>141</ele>
        <time>2017-03-07T15:10:57Z</time>
      </trkpt>
      <trkpt lat="49.44878" lon="1.23735">
        <ele>141</ele>
        <time>2017-03-07T15:10:58Z</time>
      </trkpt>
      <trkpt lat="49.44878" lon="1.23739">
        <ele>141</ele>
        <time>2017-03-07T15:10:58Z</time>
      </trkpt>
      <trkpt lat="49.4488" lon="1.23748">
        <ele>141</ele>
        <time>2017-03-07T15:10:58Z</time>
      </trkpt>
      <trkpt lat="49.44883" lon="1.23758">
        <ele>141</ele>
        <time>2017-03-07T15:11:26Z</time>
      </trkpt>
      <trkpt lat="49.44883" lon="1.2376">
        <ele>141</ele>
        <time>2017-03-07T15:11:27Z</time>
      </trkpt>
      <trkpt lat="49.44883" lon="1.2376">
        <ele>141</ele>
        <time>2017-03-07T15:11:27Z</time>
      </trkpt>
      <trkpt lat="49.44883" lon="1.23761">
        <ele>141</ele>
        <time>2017-03-07T15:11:27Z</time>
      </trkpt>
      <trkpt lat="49.44884" lon="1.23767">
        <ele>141</ele>
        <time>2017-03-07T15:11:27Z</time>
      </trkpt>
      <trkpt lat="49.44885" lon="1.23768">
        <ele>141</ele>
        <time>2017-03-07T15:11:41Z</time>
      </trkpt>
      <trkpt lat="49.44885" lon="1.23771">
        <ele>141</ele>
        <time>2017-03-07T15:11:42Z</time>
      </trkpt>
      <trkpt lat="49.44886" lon="1.23777">
        <ele>141</ele>
        <time>2017-03-07T15:11:42Z</time>
      </trkpt>
      <trkpt lat="49.44888" lon="1.23781">
        <ele>141</ele>
        <time>2017-03-07T15:11:42Z</time>
      </trkpt>
      <trkpt lat="49.44892" lon="1.23796">
        <ele>138</ele>
        <time>2017-03-07T15:12:03Z</time>
      </trkpt>
      <trkpt lat="49.44892" lon="1.23806">
        <ele>138</ele>
        <time>2017-03-07T15:12:03Z</time>
      </trkpt>
      <trkpt lat="49.44892" lon="1.23814">
        <ele>138</ele>
        <time>2017-03-07T15:12:03Z</time>
      </trkpt>
      <trkpt lat="49.44892" lon="1.23822">
        <ele>138</ele>
        <time>2017-03-07T15:12:03Z</time>
      </trkpt>
      <trkpt lat="49.44892" lon="1.23829">
        <ele>138</ele>
        <time>2017-03-07T15:12:19Z</time>
      </trkpt>
      <trkpt lat="49.44893" lon="1.23832">
        <ele>138</ele>
        <time>2017-03-07T15:12:19Z</time>
      </trkpt>
      <trkpt lat="49.44893" lon="1.23839">
        <ele>138</ele>
        <time>2017-03-07T15:12:19Z</time>
      </trkpt>
      <trkpt lat="49.44895" lon="1.23851">
        <ele>138</ele>
        <time>2017-03-07T15:12:19Z</time>
      </trkpt>
      <trkpt lat="49.44895" lon="1.2386">
        <ele>138</ele>
        <time>2017-03-07T15:12:34Z</time>
      </trkpt>
      <trkpt lat="49.44895" lon="1.23864">
        <ele>138</ele>
        <time>2017-03-07T15:12:34Z</time>
      </trkpt>
      <trkpt lat="49.44897" lon="1.23881">
        <ele>135</ele>
        <time>2017-03-07T15:12:34Z</time>
      </trkpt>
      <trkpt lat="49.44898" lon="1.23892">
        <ele>135</ele>
        <time>2017-03-07T15:12:34Z</time>
      </trkpt>
      <trkpt lat="49.44898" lon="1.23899">
        <ele>135</ele>
        <time>2017-03-07T15:12:51Z</time>
      </trkpt>
      <trkpt lat="49.44899" lon="1.23908">
        <ele>135</ele>
        <time>2017-03-07T15:12:51Z</time>
      </trkpt>
      <trkpt lat="49.44899" lon="1.23915">
        <ele>135</ele>
        <time>2017-03-07T15:12:51Z</time>
      </trkpt>
      <trkpt lat="49.44901" lon="1.23921">
        <ele>135</ele>
        <time>2017-03-07T15:12:51Z</time>
      </trkpt>
      <trkpt lat="49.44902" lon="1.23925">
        <ele>135</ele>
        <time>2017-03-07T15:13:06Z</time>
      </trkpt>
      <trkpt lat="49.44902" lon="1.23929">
        <ele>135</ele>
        <time>2017-03-07T15:13:06Z</time>
      </trkpt>
      <trkpt lat="49.44902" lon="1.23935">
        <ele>135</ele>
        <time>2017-03-07T15:13:06Z</time>
      </trkpt>
      <trkpt lat="49.44904" lon="1.23942">
        <ele>135</ele>
        <time>2017-03-07T15:13:06Z</time>
      </trkpt>
      <trkpt lat="49.44906" lon="1.2396">
        <ele>132</ele>
        <time>2017-03-07T15:13:26Z</time>
      </trkpt>
      <trkpt lat="49.44906" lon="1.23966">
        <ele>132</ele>
        <time>2017-03-07T15:13:26Z</time>
      </trkpt>
      <trkpt lat="49.44908" lon="1.23973">
        <ele>132</ele>
        <time>2017-03-07T15:13:26Z</time>
      </trkpt>
      <trkpt lat="49.44908" lon="1.23977">
        <ele>132</ele>
        <time>2017-03-07T15:13:26Z</time>
      </trkpt>
      <trkpt lat="49.44908" lon="1.23985">
        <ele>132</ele>
        <time>2017-03-07T15:13:42Z</time>
      </trkpt>
      <trkpt lat="49.44911" lon="1.23996">
        <ele>132</ele>
        <time>2017-03-07T15:13:42Z</time>
      </trkpt>
      <trkpt lat="49.44913" lon="1.24002">
        <ele>132</ele>
        <time>2017-03-07T15:13:42Z</time>
      </trkpt>
      <trkpt lat="49.44913" lon="1.24011">
        <ele>132</ele>
        <time>2017-03-07T15:13:42Z</time>
      </trkpt>
      <trkpt lat="49.44913" lon="1.24013">
        <ele>132</ele>
        <time>2017-03-07T15:13:57Z</time>
      </trkpt>
      <trkpt lat="49.44912" lon="1.24019">
        <ele>132</ele>
        <time>2017-03-07T15:13:58Z</time>
      </trkpt>
      <trkpt lat="49.44913" lon="1.24027">
        <ele>132</ele>
        <time>2017-03-07T15:13:58Z</time>
      </trkpt>
      <trkpt lat="49.44914" lon="1.24036">
        <ele>132</ele>
        <time>2017-03-07T15:13:58Z</time>
      </trkpt>
      <trkpt lat="49.44914" lon="1.24046">
        <ele>129</ele>
        <time>2017-03-07T15:14:13Z</time>
      </trkpt>
      <trkpt lat="49.44915" lon="1.24051">
        <ele>129</ele>
        <time>2017-03-07T15:14:14Z</time>
      </trkpt>
      <trkpt lat="49.44916" lon="1.24064">
        <ele>129</ele>
        <time>2017-03-07T15:14:14Z</time>
      </trkpt>
      <trkpt lat="49.44916" lon="1.24072">
        <ele>129</ele>
        <time>2017-03-07T15:14:14Z</time>
      </trkpt>
      <trkpt lat="49.44918" lon="1.24079">
        <ele>129</ele>
        <time>2017-03-07T15:14:29Z</time>
      </trkpt>
      <trkpt lat="49.44919" lon="1.24084">
        <ele>129</ele>
        <time>2017-03-07T15:14:30Z</time>
      </trkpt>
      <trkpt lat="49.44918" lon="1.2409">
        <ele>129</ele>
        <time>2017-03-07T15:14:30Z</time>
      </trkpt>
      <trkpt lat="49.44919" lon="1.24094">
        <ele>129</ele>
        <time>2017-03-07T15:14:30Z</time>
      </trkpt>
      <trkpt lat="49.44919" lon="1.241">
        <ele>129</ele>
        <time>2017-03-07T15:14:50Z</time>
      </trkpt>
      <trkpt lat="49.4492" lon="1.24106">
        <ele>129</ele>
        <time>2017-03-07T15:14:50Z</time>
      </trkpt>
      <trkpt lat="49.4492" lon="1.24109">
        <ele>129</ele>
        <time>2017-03-07T15:14:50Z</time>
      </trkpt>
      <trkpt lat="49.44921" lon="1.24112">
        <ele>129</ele>
        <time>2017-03-07T15:14:50Z</time>
      </trkpt>
      <trkpt lat="49.44922" lon="1.24119">
        <ele>129</ele>
        <time>2017-03-07T15:14:50Z</time>
      </trkpt>
      <trkpt lat="49.44924" lon="1.24124">
        <ele>129</ele>
        <time>2017-03-07T15:15:06Z</time>
      </trkpt>
      <trkpt lat="49.44926" lon="1.24133">
        <ele>125</ele>
        <time>2017-03-07T15:15:06Z</time>
      </trkpt>
      <trkpt lat="49.44926" lon="1.24138">
        <ele>125</ele>
        <time>2017-03-07T15:15:06Z</time>
      </trkpt>
      <trkpt lat="49.44928" lon="1.24145">
        <ele>125</ele>
        <time>2017-03-07T15:15:06Z</time>
      </trkpt>
      <trkpt lat="49.44929" lon="1.24153">
        <ele>125</ele>
        <time>2017-03-07T15:15:22Z</time>
      </trkpt>
      <trkpt lat="49.4493" lon="1.2416">
        <ele>125</ele>
        <time>2017-03-07T15:15:23Z</time>
      </trkpt>
      <trkpt lat="49.44932" lon="1.24165">
        <ele>125</ele>
        <time>2017-03-07T15:15:23Z</time>
      </trkpt>
      <trkpt lat="49.44931" lon="1.24175">
        <ele>125</ele>
        <time>2017-03-07T15:15:23Z</time>
      </trkpt>
      <trkpt lat="49.44927" lon="1.24182">
        <ele>125</ele>
        <time>2017-03-07T15:16:09Z</time>
      </trkpt>
      <trkpt lat="49.44927" lon="1.24185">
        <ele>125</ele>
        <time>2017-03-07T15:16:10Z</time>
      </trkpt>
      <trkpt lat="49.44927" lon="1.24184">
        <ele>125</ele>
        <time>2017-03-07T15:16:10Z</time>
      </trkpt>
      <trkpt lat="49.44925" lon="1.24189">
        <ele>125</ele>
        <time>2017-03-07T15:16:10Z</time>
      </trkpt>
      <trkpt lat="49.44921" lon="1.24194">
        <ele>125</ele>
        <time>2017-03-07T15:16:10Z</time>
      </trkpt>
      <trkpt lat="49.44924" lon="1.24191">
        <ele>125</ele>
        <time>2017-03-07T15:18:26Z</time>
      </trkpt>
      <trkpt lat="49.44927" lon="1.24189">
        <ele>125</ele>
        <time>2017-03-07T15:18:26Z</time>
      </trkpt>
      <trkpt lat="49.44928" lon="1.24186">
        <ele>125</ele>
        <time>2017-03-07T15:18:26Z</time>
      </trkpt>
      <trkpt lat="49.44928" lon="1.24186">
        <ele>125</ele>
        <time>2017-03-07T15:18:26Z</time>
      </trkpt>
      <trkpt lat="49.44928" lon="1.24185">
        <ele>125</ele>
        <time>2017-03-07T15:18:26Z</time>
      </trkpt>
      <trkpt lat="49.44928" lon="1.2419">
        <ele>125</ele>
        <time>2017-03-07T15:19:57Z</time>
      </trkpt>
      <trkpt lat="49.44928" lon="1.2419">
        <ele>125</ele>
        <time>2017-03-07T15:19:58Z</time>
      </trkpt>
      <trkpt lat="49.4493" lon="1.24194">
        <ele>125</ele>
        <time>2017-03-07T15:19:58Z</time>
      </trkpt>
      <trkpt lat="49.44928" lon="1.24198">
        <ele>125</ele>
        <time>2017-03-07T15:19:58Z</time>
      </trkpt>
      <trkpt lat="49.44928" lon="1.24202">
        <ele>125</ele>
        <time>2017-03-07T15:19:58Z</time>
      </trkpt>
      <trkpt lat="49.44929" lon="1.24206">
        <ele>125</ele>
        <time>2017-03-07T15:20:13Z</time>
      </trkpt>
      <trkpt lat="49.44932" lon="1.24208">
        <ele>125</ele>
        <time>2017-03-07T15:20:14Z</time>
      </trkpt>
      <trkpt lat="49.44934" lon="1.24213">
        <ele>120</ele>
        <time>2017-03-07T15:20:14Z</time>
      </trkpt>
      <trkpt lat="49.44935" lon="1.24222">
        <ele>120</ele>
        <time>2017-03-07T15:20:14Z</time>
      </trkpt>
      <trkpt lat="49.44934" lon="1.24232">
        <ele>120</ele>
        <time>2017-03-07T15:20:30Z</time>
      </trkpt>
      <trkpt lat="49.44936" lon="1.2424">
        <ele>120</ele>
        <time>2017-03-07T15:20:30Z</time>
      </trkpt>
      <trkpt lat="49.44937" lon="1.24245">
        <ele>120</ele>
        <time>2017-03-07T15:20:30Z</time>
      </trkpt>
      <trkpt lat="49.44938" lon="1.24248">
        <ele>120</ele>
        <time>2017-03-07T15:20:30Z</time>
      </trkpt>
      <trkpt lat="49.44937" lon="1.24256">
        <ele>120</ele>
        <time>2017-03-07T15:20:46Z</time>
      </trkpt>
      <trkpt lat="49.44938" lon="1.24262">
        <ele>120</ele>
        <time>2017-03-07T15:20:46Z</time>
      </trkpt>
      <trkpt lat="49.44938" lon="1.24268">
        <ele>120</ele>
        <time>2017-03-07T15:20:46Z</time>
      </trkpt>
      <trkpt lat="49.44944" lon="1.24279">
        <ele>120</ele>
        <time>2017-03-07T15:20:46Z</time>
      </trkpt>
      <trkpt lat="49.44946" lon="1.24289">
        <ele>120</ele>
        <time>2017-03-07T15:21:09Z</time>
      </trkpt>
      <trkpt lat="49.44947" lon="1.24289">
        <ele>120</ele>
        <time>2017-03-07T15:21:10Z</time>
      </trkpt>
      <trkpt lat="49.44948" lon="1.24295">
        <ele>122</ele>
        <time>2017-03-07T15:21:10Z</time>
      </trkpt>
      <trkpt lat="49.44948" lon="1.24299">
        <ele>122</ele>
        <time>2017-03-07T15:21:10Z</time>
      </trkpt>
      <trkpt lat="49.44945" lon="1.24303">
        <ele>122</ele>
        <time>2017-03-07T15:21:10Z</time>
      </trkpt>
      <trkpt lat="49.44946" lon="1.24306">
        <ele>122</ele>
        <time>2017-03-07T15:21:25Z</time>
      </trkpt>
      <trkpt lat="49.44948" lon="1.24311">
        <ele>122</ele>
        <time>2017-03-07T15:21:26Z</time>
      </trkpt>
      <trkpt lat="49.44949" lon="1.24317">
        <ele>122</ele>
        <time>2017-03-07T15:21:26Z</time>
      </trkpt>
      <trkpt lat="49.44949" lon="1.24325">
        <ele>122</ele>
        <time>2017-03-07T15:21:26Z</time>
      </trkpt>
      <trkpt lat="49.44955" lon="1.2434">
        <ele>122</ele>
        <time>2017-03-07T15:21:57Z</time>
      </trkpt>
      <trkpt lat="49.44955" lon="1.24342">
        <ele>122</ele>
        <time>2017-03-07T15:21:58Z</time>
      </trkpt>
      <trkpt lat="49.44956" lon="1.24343">
        <ele>122</ele>
        <time>2017-03-07T15:21:58Z</time>
      </trkpt>
      <trkpt lat="49.44959" lon="1.24346">
        <ele>128</ele>
        <time>2017-03-07T15:21:58Z</time>
      </trkpt>
      <trkpt lat="49.44961" lon="1.24351">
        <ele>128</ele>
        <time>2017-03-07T15:21:58Z</time>
      </trkpt>
      <trkpt lat="49.44962" lon="1.2435">
        <ele>128</ele>
        <time>2017-03-07T15:22:14Z</time>
      </trkpt>
      <trkpt lat="49.44965" lon="1.24354">
        <ele>128</ele>
        <time>2017-03-07T15:22:14Z</time>
      </trkpt>
      <trkpt lat="49.44968" lon="1.24361">
        <ele>128</ele>
        <time>2017-03-07T15:22:14Z</time>
      </trkpt>
      <trkpt lat="49.44971" lon="1.24364">
        <ele>128</ele>
        <time>2017-03-07T15:22:14Z</time>
      </trkpt>
      <trkpt lat="49.44975" lon="1.24367">
        <ele>128</ele>
        <time>2017-03-07T15:22:31Z</time>
      </trkpt>
      <trkpt lat="49.44978" lon="1.24367">
        <ele>128</ele>
        <time>2017-03-07T15:22:31Z</time>
      </trkpt>
      <trkpt lat="49.44983" lon="1.24363">
        <ele>128</ele>
        <time>2017-03-07T15:22:31Z</time>
      </trkpt>
      <trkpt lat="49.44985" lon="1.24364">
        <ele>128</ele>
        <time>2017-03-07T15:22:31Z</time>
      </trkpt>
      <trkpt lat="49.44986" lon="1.24363">
        <ele>128</ele>
        <time>2017-03-07T15:22:45Z</time>
      </trkpt>
      <trkpt lat="49.44986" lon="1.24363">
        <ele>128</ele>
        <time>2017-03-07T15:22:46Z</time>
      </trkpt>
      <trkpt lat="49.44989" lon="1.24368">
        <ele>128</ele>
        <time>2017-03-07T15:22:46Z</time>
      </trkpt>
      <trkpt lat="49.44992" lon="1.24373">
        <ele>128</ele>
        <time>2017-03-07T15:22:46Z</time>
      </trkpt>
      <trkpt lat="49.44997" lon="1.24378">
        <ele>129</ele>
        <time>2017-03-07T15:23:01Z</time>
      </trkpt>
      <trkpt lat="49.45001" lon="1.24384">
        <ele>129</ele>
        <time>2017-03-07T15:23:02Z</time>
      </trkpt>
      <trkpt lat="49.45005" lon="1.24392">
        <ele>129</ele>
        <time>2017-03-07T15:23:02Z</time>
      </trkpt>
      <trkpt lat="49.45008" lon="1.24392">
        <ele>129</ele>
        <time>2017-03-07T15:23:02Z</time>
      </trkpt>
      <trkpt lat="49.45012" lon="1.24394">
        <ele>129</ele>
        <time>2017-03-07T15:23:21Z</time>
      </trkpt>
      <trkpt lat="49.45013" lon="1.24396">
        <ele>129</ele>
        <time>2017-03-07T15:23:22Z</time>
      </trkpt>
      <trkpt lat="49.45015" lon="1.24402">
        <ele>129</ele>
        <time>2017-03-07T15:23:22Z</time>
      </trkpt>
      <trkpt lat="49.45017" lon="1.24403">
        <ele>129</ele>
        <time>2017-03-07T15:23:22Z</time>
      </trkpt>
      <trkpt lat="49.45023" lon="1.24404">
        <ele>129</ele>
        <time>2017-03-07T15:23:22Z</time>
      </trkpt>
      <trkpt lat="49.45026" lon="1.24401">
        <ele>129</ele>
        <time>2017-03-07T15:23:37Z</time>
      </trkpt>
      <trkpt lat="49.45031" lon="1.24399">
        <ele>129</ele>
        <time>2017-03-07T15:23:38Z</time>
      </trkpt>
      <trkpt lat="49.45033" lon="1.24401">
        <ele>129</ele>
        <time>2017-03-07T15:23:38Z</time>
      </trkpt>
      <trkpt lat="49.45036" lon="1.24402">
        <ele>129</ele>
        <time>2017-03-07T15:23:38Z</time>
      </trkpt>
      <trkpt lat="49.45038" lon="1.24402">
        <ele>129</ele>
        <time>2017-03-07T15:23:53Z</time>
      </trkpt>
      <trkpt lat="49.45039" lon="1.24402">
        <ele>129</ele>
        <time>2017-03-07T15:23:54Z</time>
      </trkpt>
      <trkpt lat="49.45042" lon="1.24408">
        <ele>130</ele>
        <time>2017-03-07T15:23:54Z</time>
      </trkpt>
      <trkpt lat="49.45046" lon="1.24415">
        <ele>130</ele>
        <time>2017-03-07T15:23:54Z</time>
      </trkpt>
      <trkpt lat="49.45051" lon="1.2442">
        <ele>130</ele>
        <time>2017-03-07T15:24:09Z</time>
      </trkpt>
      <trkpt lat="49.45056" lon="1.24425">
        <ele>130</ele>
        <time>2017-03-07T15:24:10Z</time>
      </trkpt>
      <trkpt lat="49.45059" lon="1.24432">
        <ele>130</ele>
        <time>2017-03-07T15:24:10Z</time>
      </trkpt>
      <trkpt lat="49.45065" lon="1.24439">
        <ele>130</ele>
        <time>2017-03-07T15:24:10Z</time>
      </trkpt>
      <trkpt lat="49.4507" lon="1.24446">
        <ele>130</ele>
        <time>2017-03-07T15:24:25Z</time>
      </trkpt>
      <trkpt lat="49.45072" lon="1.2445">
        <ele>130</ele>
        <time>2017-03-07T15:24:26Z</time>
      </trkpt>
      <trkpt lat="49.45073" lon="1.24457">
        <ele>130</ele>
        <time>2017-03-07T15:24:26Z</time>
      </trkpt>
      <trkpt lat="49.45074" lon="1.24462">
        <ele>129</ele>
        <time>2017-03-07T15:24:26Z</time>
      </trkpt>
      <trkpt lat="49.45076" lon="1.24465">
        <ele>129</ele>
        <time>2017-03-07T15:24:42Z</time>
      </trkpt>
      <trkpt lat="49.45079" lon="1.24471">
        <ele>129</ele>
        <time>2017-03-07T15:24:42Z</time>
      </trkpt>
      <trkpt lat="49.45082" lon="1.24475">
        <ele>129</ele>
        <time>2017-03-07T15:24:42Z</time>
      </trkpt>
      <trkpt lat="49.45084" lon="1.24478">
        <ele>129</ele>
        <time>2017-03-07T15:24:42Z</time>
      </trkpt>
      <trkpt lat="49.45086" lon="1.24484">
        <ele>129</ele>
        <time>2017-03-07T15:24:58Z</time>
      </trkpt>
      <trkpt lat="49.45088" lon="1.2449">
        <ele>129</ele>
        <time>2017-03-07T15:24:58Z</time>
      </trkpt>
      <trkpt lat="49.4509" lon="1.24498">
        <ele>129</ele>
        <time>2017-03-07T15:24:58Z</time>
      </trkpt>
      <trkpt lat="49.4509" lon="1.24501">
        <ele>129</ele>
        <time>2017-03-07T15:24:58Z</time>
      </trkpt>
      <trkpt lat="49.45091" lon="1.24505">
        <ele>129</ele>
        <time>2017-03-07T15:25:13Z</time>
      </trkpt>
      <trkpt lat="49.45092" lon="1.24508">
        <ele>129</ele>
        <time>2017-03-07T15:25:14Z</time>
      </trkpt>
      <trkpt lat="49.45093" lon="1.24517">
        <ele>129</ele>
        <time>2017-03-07T15:25:14Z</time>
      </trkpt>
      <trkpt lat="49.45094" lon="1.24519">
        <ele>129</ele>
        <time>2017-03-07T15:25:14Z</time>
      </trkpt>
      <trkpt lat="49.45086" lon="1.24519">
        <ele>129</ele>
        <time>2017-03-07T15:26:53Z</time>
      </trkpt>
      <trkpt lat="49.45086" lon="1.2452">
        <ele>129</ele>
        <time>2017-03-07T15:26:54Z</time>
      </trkpt>
      <trkpt lat="49.45084" lon="1.2452">
        <ele>129</ele>
        <time>2017-03-07T15:26:54Z</time>
      </trkpt>
      <trkpt lat="49.45082" lon="1.24521">
        <ele>129</ele>
        <time>2017-03-07T15:26:54Z</time>
      </trkpt>
      <trkpt lat="49.45082" lon="1.24521">
        <ele>129</ele>
        <time>2017-03-07T15:26:54Z</time>
      </trkpt>
      <trkpt lat="49.45083" lon="1.24528">
        <ele>129</ele>
        <time>2017-03-07T15:28:54Z</time>
      </trkpt>
      <trkpt lat="49.45082" lon="1.24529">
        <ele>129</ele>
        <time>2017-03-07T15:28:54Z</time>
      </trkpt>
      <trkpt lat="49.45082" lon="1.2453">
        <ele>129</ele>
        <time>2017-03-07T15:28:54Z</time>
      </trkpt>
      <trkpt lat="49.45082" lon="1.2453">
        <ele>129</ele>
        <time>2017-03-07T15:28:54Z</time>
      </trkpt>
      <trkpt lat="49.45077" lon="1.24536">
        <ele>129</ele>
        <time>2017-03-07T15:28:54Z</time>
      </trkpt>
      <trkpt lat="49.45075" lon="1.2454">
        <ele>129</ele>
        <time>2017-03-07T15:29:18Z</time>
      </trkpt>
      <trkpt lat="49.45074" lon="1.24541">
        <ele>129</ele>
        <time>2017-03-07T15:29:18Z</time>
      </trkpt>
      <trkpt lat="49.45074" lon="1.24541">
        <ele>129</ele>
        <time>2017-03-07T15:29:18Z</time>
      </trkpt>
      <trkpt lat="49.45073" lon="1.24542">
        <ele>129</ele>
        <time>2017-03-07T15:29:18Z</time>
      </trkpt>
      <trkpt lat="49.45069" lon="1.24547">
        <ele>129</ele>
        <time>2017-03-07T15:29:18Z</time>
      </trkpt>
      <trkpt lat="49.45065" lon="1.24551">
        <ele>129</ele>
        <time>2017-03-07T15:29:33Z</time>
      </trkpt>
      <trkpt lat="49.45063" lon="1.24554">
        <ele>129</ele>
        <time>2017-03-07T15:29:34Z</time>
      </trkpt>
      <trkpt lat="49.45063" lon="1.24555">
        <ele>129</ele>
        <time>2017-03-07T15:29:34Z</time>
      </trkpt>
      <trkpt lat="49.4506" lon="1.24562">
        <ele>129</ele>
        <time>2017-03-07T15:29:34Z</time>
      </trkpt>
      <trkpt lat="49.45057" lon="1.24566">
        <ele>129</ele>
        <time>2017-03-07T15:29:53Z</time>
      </trkpt>
      <trkpt lat="49.45055" lon="1.2457">
        <ele>129</ele>
        <time>2017-03-07T15:29:54Z</time>
      </trkpt>
      <trkpt lat="49.45053" lon="1.24573">
        <ele>129</ele>
        <time>2017-03-07T15:29:54Z</time>
      </trkpt>
      <trkpt lat="49.45053" lon="1.24574">
        <ele>129</ele>
        <time>2017-03-07T15:29:54Z</time>
      </trkpt>
      <trkpt lat="49.45045" lon="1.24583">
        <ele>129</ele>
        <time>2017-03-07T15:29:54Z</time>
      </trkpt>
      <trkpt lat="49.45042" lon="1.24589">
        <ele>129</ele>
        <time>2017-03-07T15:30:09Z</time>
      </trkpt>
      <trkpt lat="49.45037" lon="1.24595">
        <ele>144</ele>
        <time>2017-03-07T15:30:10Z</time>
      </trkpt>
      <trkpt lat="49.45034" lon="1.24598">
        <ele>144</ele>
        <time>2017-03-07T15:30:10Z</time>
      </trkpt>
      <trkpt lat="49.45031" lon="1.24602">
        <ele>144</ele>
        <time>2017-03-07T15:30:10Z</time>
      </trkpt>
      <trkpt lat="49.45026" lon="1.24603">
        <ele>144</ele>
        <time>2017-03-07T15:30:26Z</time>
      </trkpt>
      <trkpt lat="49.45021" lon="1.24613">
        <ele>144</ele>
        <time>2017-03-07T15:30:26Z</time>
      </trkpt>
      <trkpt lat="49.45018" lon="1.24616">
        <ele>144</ele>
        <time>2017-03-07T15:30:26Z</time>
      </trkpt>
      <trkpt lat="49.45015" lon="1.24618">
        <ele>144</ele>
        <time>2017-03-07T15:30:26Z</time>
      </trkpt>
      <trkpt lat="49.45013" lon="1.2462">
        <ele>144</ele>
        <time>2017-03-07T15:30:45Z</time>
      </trkpt>
      <trkpt lat="49.4501" lon="1.24622">
        <ele>144</ele>
        <time>2017-03-07T15:30:46Z</time>
      </trkpt>
      <trkpt lat="49.45009" lon="1.24622">
        <ele>144</ele>
        <time>2017-03-07T15:30:46Z</time>
      </trkpt>
      <trkpt lat="49.45006" lon="1.24626">
        <ele>147</ele>
        <time>2017-03-07T15:30:46Z</time>
      </trkpt>
      <trkpt lat="49.45002" lon="1.24634">
        <ele>147</ele>
        <time>2017-03-07T15:30:46Z</time>
      </trkpt>
      <trkpt lat="49.44997" lon="1.24639">
        <ele>147</ele>
        <time>2017-03-07T15:31:01Z</time>
      </trkpt>
      <trkpt lat="49.44993" lon="1.24641">
        <ele>147</ele>
        <time>2017-03-07T15:31:02Z</time>
      </trkpt>
      <trkpt lat="49.44991" lon="1.24642">
        <ele>147</ele>
        <time>2017-03-07T15:31:02Z</time>
      </trkpt>
      <trkpt lat="49.44988" lon="1.24641">
        <ele>147</ele>
        <time>2017-03-07T15:31:02Z</time>
      </trkpt>
      <trkpt lat="49.44985" lon="1.2464">
        <ele>147</ele>
        <time>2017-03-07T15:31:22Z</time>
      </trkpt>
      <trkpt lat="49.44983" lon="1.24637">
        <ele>147</ele>
        <time>2017-03-07T15:31:22Z</time>
      </trkpt>
      <trkpt lat="49.44979" lon="1.24638">
        <ele>147</ele>
        <time>2017-03-07T15:31:22Z</time>
      </trkpt>
      <trkpt lat="49.44978" lon="1.24637">
        <ele>147</ele>
        <time>2017-03-07T15:31:22Z</time>
      </trkpt>
      <trkpt lat="49.44972" lon="1.24635">
        <ele>147</ele>
        <time>2017-03-07T15:31:22Z</time>
      </trkpt>
      <trkpt lat="49.4497" lon="1.24635">
        <ele>147</ele>
        <time>2017-03-07T15:31:37Z</time>
      </trkpt>
      <trkpt lat="49.4496" lon="1.24633">
        <ele>147</ele>
        <time>2017-03-07T15:31:38Z</time>
      </trkpt>
      <trkpt lat="49.44957" lon="1.24631">
        <ele>150</ele>
        <time>2017-03-07T15:31:38Z</time>
      </trkpt>
      <trkpt lat="49.44953" lon="1.24631">
        <ele>150</ele>
        <time>2017-03-07T15:31:38Z</time>
      </trkpt>
      <trkpt lat="49.44948" lon="1.24629">
        <ele>150</ele>
        <time>2017-03-07T15:31:53Z</time>
      </trkpt>
      <trkpt lat="49.44943" lon="1.24627">
        <ele>150</ele>
        <time>2017-03-07T15:31:54Z</time>
      </trkpt>
      <trkpt lat="49.44938" lon="1.24627">
        <ele>150</ele>
        <time>2017-03-07T15:31:54Z</time>
      </trkpt>
      <trkpt lat="49.44933" lon="1.24626">
        <ele>150</ele>
        <time>2017-03-07T15:31:54Z</time>
      </trkpt>
      <trkpt lat="49.44928" lon="1.24623">
        <ele>150</ele>
        <time>2017-03-07T15:32:11Z</time>
      </trkpt>
      <trkpt lat="49.44923" lon="1.24621">
        <ele>150</ele>
        <time>2017-03-07T15:32:11Z</time>
      </trkpt>
      <trkpt lat="49.4492" lon="1.24619">
        <ele>150</ele>
        <time>2017-03-07T15:32:11Z</time>
      </trkpt>
      <trkpt lat="49.44915" lon="1.24616">
        <ele>150</ele>
        <time>2017-03-07T15:32:11Z</time>
      </trkpt>
      <trkpt lat="49.44912" lon="1.24613">
        <ele>150</ele>
        <time>2017-03-07T15:32:26Z</time>
      </trkpt>
      <trkpt lat="49.44908" lon="1.24613">
        <ele>150</ele>
        <time>2017-03-07T15:32:26Z</time>
      </trkpt>
      <trkpt lat="49.44903" lon="1.24612">
        <ele>150</ele>
        <time>2017-03-07T15:32:26Z</time>
      </trkpt>
      <trkpt lat="49.44897" lon="1.2461">
        <ele>150</ele>
        <time>2017-03-07T15:32:26Z</time>
      </trkpt>
      <trkpt lat="49.44891" lon="1.24611">
        <ele>150</ele>
        <time>2017-03-07T15:32:42Z</time>
      </trkpt>
      <trkpt lat="49.44887" lon="1.24609">
        <ele>150</ele>
        <time>2017-03-07T15:32:42Z</time>
      </trkpt>
      <trkpt lat="49.44882" lon="1.24607">
        <ele>150</ele>
        <time>2017-03-07T15:32:42Z</time>
      </trkpt>
      <trkpt lat="49.44879" lon="1.24607">
        <ele>150</ele>
        <time>2017-03-07T15:32:42Z</time>
      </trkpt>
      <trkpt lat="49.44873" lon="1.24608">
        <ele>153</ele>
        <time>2017-03-07T15:32:57Z</time>
      </trkpt>
      <trkpt lat="49.44869" lon="1.24607">
        <ele>153</ele>
        <time>2017-03-07T15:32:58Z</time>
      </trkpt>
      <trkpt lat="49.44863" lon="1.24609">
        <ele>153</ele>
        <time>2017-03-07T15:32:58Z</time>
      </trkpt>
      <trkpt lat="49.44859" lon="1.24609">
        <ele>153</ele>
        <time>2017-03-07T15:32:58Z</time>
      </trkpt>
      <trkpt lat="49.44855" lon="1.24611">
        <ele>153</ele>
        <time>2017-03-07T15:33:15Z</time>
      </trkpt>
      <trkpt lat="49.44848" lon="1.24613">
        <ele>153</ele>
        <time>2017-03-07T15:33:15Z</time>
      </trkpt>
      <trkpt lat="49.44845" lon="1.24616">
        <ele>153</ele>
        <time>2017-03-07T15:33:15Z</time>
      </trkpt>
      <trkpt lat="49.44841" lon="1.24617">
        <ele>153</ele>
        <time>2017-03-07T15:33:15Z</time>
      </trkpt>
      <trkpt lat="49.44835" lon="1.24621">
        <ele>153</ele>
        <time>2017-03-07T15:33:31Z</time>
      </trkpt>
      <trkpt lat="49.44831" lon="1.24623">
        <ele>153</ele>
        <time>2017-03-07T15:33:31Z</time>
      </trkpt>
      <trkpt lat="49.44826" lon="1.24624">
        <ele>153</ele>
        <time>2017-03-07T15:33:31Z</time>
      </trkpt>
      <trkpt lat="49.44823" lon="1.24624">
        <ele>153</ele>
        <time>2017-03-07T15:33:31Z</time>
      </trkpt>
      <trkpt lat="49.44818" lon="1.24625">
        <ele>150</ele>
        <time>2017-03-07T15:33:46Z</time>
      </trkpt>
      <trkpt lat="49.44814" lon="1.24628">
        <ele>150</ele>
        <time>2017-03-07T15:33:46Z</time>
      </trkpt>
      <trkpt lat="49.4481" lon="1.24628">
        <ele>150</ele>
        <time>2017-03-07T15:33:46Z</time>
      </trkpt>
      <trkpt lat="49.44805" lon="1.24631">
        <ele>150</ele>
        <time>2017-03-07T15:33:46Z</time>
      </trkpt>
      <trkpt lat="49.448" lon="1.24633">
        <ele>150</ele>
        <time>2017-03-07T15:34:02Z</time>
      </trkpt>
      <trkpt lat="49.44797" lon="1.24633">
        <ele>150</ele>
        <time>2017-03-07T15:34:02Z</time>
      </trkpt>
      <trkpt lat="49.44791" lon="1.24636">
        <ele>149</ele>
        <time>2017-03-07T15:34:02Z</time>
      </trkpt>
      <trkpt lat="49.44787" lon="1.24637">
        <ele>149</ele>
        <time>2017-03-07T15:34:02Z</time>
      </trkpt>
      <trkpt lat="49.44783" lon="1.24649">
        <ele>149</ele>
        <time>2017-03-07T15:37:09Z</time>
      </trkpt>
      <trkpt lat="49.44783" lon="1.24649">
        <ele>149</ele>
        <time>2017-03-07T15:37:10Z</time>
      </trkpt>
      <trkpt lat="49.44784" lon="1.24654">
        <ele>149</ele>
        <time>2017-03-07T15:37:10Z</time>
      </trkpt>
      <trkpt lat="49.44785" lon="1.24662">
        <ele>149</ele>
        <time>2017-03-07T15:37:10Z</time>
      </trkpt>
      <trkpt lat="49.44786" lon="1.24667">
        <ele>149</ele>
        <time>2017-03-07T15:37:10Z</time>
      </trkpt>
      <trkpt lat="49.44787" lon="1.2467">
        <ele>149</ele>
        <time>2017-03-07T15:37:25Z</time>
      </trkpt>
      <trkpt lat="49.44788" lon="1.24677">
        <ele>149</ele>
        <time>2017-03-07T15:37:26Z</time>
      </trkpt>
      <trkpt lat="49.44788" lon="1.24684">
        <ele>149</ele>
        <time>2017-03-07T15:37:26Z</time>
      </trkpt>
      <trkpt lat="49.44788" lon="1.24689">
        <ele>149</ele>
        <time>2017-03-07T15:37:26Z</time>
      </trkpt>
      <trkpt lat="49.44788" lon="1.24697">
        <ele>149</ele>
        <time>2017-03-07T15:37:42Z</time>
      </trkpt>
      <trkpt lat="49.4479" lon="1.24704">
        <ele>149</ele>
        <time>2017-03-07T15:37:42Z</time>
      </trkpt>
      <trkpt lat="49.44791" lon="1.24712">
        <ele>146</ele>
        <time>2017-03-07T15:37:42Z</time>
      </trkpt>
      <trkpt lat="49.44792" lon="1.2472">
        <ele>146</ele>
        <time>2017-03-07T15:37:42Z</time>
      </trkpt>
      <trkpt lat="49.44792" lon="1.24728">
        <ele>151</ele>
        <time>2017-03-07T15:37:57Z</time>
      </trkpt>
      <trkpt lat="49.44793" lon="1.24735">
        <ele>151</ele>
        <time>2017-03-07T15:37:58Z</time>
      </trkpt>
      <trkpt lat="49.44794" lon="1.24743">
        <ele>151</ele>
        <time>2017-03-07T15:37:58Z</time>
      </trkpt>
      <trkpt lat="49.44795" lon="1.2475">
        <ele>151</ele>
        <time>2017-03-07T15:37:58Z</time>
      </trkpt>
      <trkpt lat="49.44796" lon="1.24757">
        <ele>151</ele>
        <time>2017-03-07T15:38:13Z</time>
      </trkpt>
      <trkpt lat="49.44796" lon="1.24766">
        <ele>151</ele>
        <time>2017-03-07T15:38:14Z</time>
      </trkpt>
      <trkpt lat="49.44797" lon="1.24772">
        <ele>151</ele>
        <time>2017-03-07T15:38:14Z</time>
      </trkpt>
      <trkpt lat="49.44799" lon="1.2478">
        <ele>151</ele>
        <time>2017-03-07T15:38:14Z</time>
      </trkpt>
      <trkpt lat="49.448" lon="1.24787">
        <ele>151</ele>
        <time>2017-03-07T15:38:29Z</time>
      </trkpt>
      <trkpt lat="49.44801" lon="1.24794">
        <ele>149</ele>
        <time>2017-03-07T15:38:30Z</time>
      </trkpt>
      <trkpt lat="49.44801" lon="1.24801">
        <ele>149</ele>
        <time>2017-03-07T15:38:30Z</time>
      </trkpt>
      <trkpt lat="49.44803" lon="1.24808">
        <ele>149</ele>
        <time>2017-03-07T15:38:30Z</time>
      </trkpt>
      <trkpt lat="49.44803" lon="1.24814">
        <ele>149</ele>
        <time>2017-03-07T15:38:46Z</time>
      </trkpt>
      <trkpt lat="49.44804" lon="1.24824">
        <ele>149</ele>
        <time>2017-03-07T15:38:46Z</time>
      </trkpt>
      <trkpt lat="49.44805" lon="1.24831">
        <ele>149</ele>
        <time>2017-03-07T15:38:46Z</time>
      </trkpt>
      <trkpt lat="49.44806" lon="1.24838">
        <ele>149</ele>
        <time>2017-03-07T15:38:46Z</time>
      </trkpt>
      <trkpt lat="49.44807" lon="1.24843">
        <ele>149</ele>
        <time>2017-03-07T15:39:03Z</time>
      </trkpt>
      <trkpt lat="49.44807" lon="1.24848">
        <ele>149</ele>
        <time>2017-03-07T15:39:03Z</time>
      </trkpt>
      <trkpt lat="49.44807" lon="1.24858">
        <ele>149</ele>
        <time>2017-03-07T15:39:03Z</time>
      </trkpt>
      <trkpt lat="49.44808" lon="1.24862">
        <ele>149</ele>
        <time>2017-03-07T15:39:03Z</time>
      </trkpt>
      <trkpt lat="49.44808" lon="1.24873">
        <ele>149</ele>
        <time>2017-03-07T15:39:18Z</time>
      </trkpt>
      <trkpt lat="49.44809" lon="1.24879">
        <ele>147</ele>
        <time>2017-03-07T15:39:18Z</time>
      </trkpt>
      <trkpt lat="49.4481" lon="1.24886">
        <ele>147</ele>
        <time>2017-03-07T15:39:18Z</time>
      </trkpt>
      <trkpt lat="49.4481" lon="1.24892">
        <ele>147</ele>
        <time>2017-03-07T15:39:18Z</time>
      </trkpt>
      <trkpt lat="49.44811" lon="1.249">
        <ele>147</ele>
        <time>2017-03-07T15:39:33Z</time>
      </trkpt>
      <trkpt lat="49.44812" lon="1.24907">
        <ele>147</ele>
        <time>2017-03-07T15:39:34Z</time>
      </trkpt>
      <trkpt lat="49.44813" lon="1.24914">
        <ele>147</ele>
        <time>2017-03-07T15:39:34Z</time>
      </trkpt>
      <trkpt lat="49.44814" lon="1.24921">
        <ele>147</ele>
        <time>2017-03-07T15:39:34Z</time>
      </trkpt>
      <trkpt lat="49.44814" lon="1.24929">
        <ele>147</ele>
        <time>2017-03-07T15:39:50Z</time>
      </trkpt>
      <trkpt lat="49.44815" lon="1.24934">
        <ele>147</ele>
        <time>2017-03-07T15:39:50Z</time>
      </trkpt>
      <trkpt lat="49.44817" lon="1.24943">
        <ele>147</ele>
        <time>2017-03-07T15:39:50Z</time>
      </trkpt>
      <trkpt lat="49.44818" lon="1.24948">
        <ele>147</ele>
        <time>2017-03-07T15:39:50Z</time>
      </trkpt>
      <trkpt lat="49.44818" lon="1.24955">
        <ele>147</ele>
        <time>2017-03-07T15:40:05Z</time>
      </trkpt>
      <trkpt lat="49.4482" lon="1.24964">
        <ele>146</ele>
        <time>2017-03-07T15:40:06Z</time>
      </trkpt>
      <trkpt lat="49.44821" lon="1.24971">
        <ele>146</ele>
        <time>2017-03-07T15:40:06Z</time>
      </trkpt>
      <trkpt lat="49.44821" lon="1.24979">
        <ele>146</ele>
        <time>2017-03-07T15:40:06Z</time>
      </trkpt>
      <trkpt lat="49.44822" lon="1.24984">
        <ele>146</ele>
        <time>2017-03-07T15:40:21Z</time>
      </trkpt>
      <trkpt lat="49.44822" lon="1.24993">
        <ele>146</ele>
        <time>2017-03-07T15:40:22Z</time>
      </trkpt>
      <trkpt lat="49.44823" lon="1.25">
        <ele>146</ele>
        <time>2017-03-07T15:40:23Z</time>
      </trkpt>
      <trkpt lat="49.44823" lon="1.25007">
        <ele>146</ele>
        <time>2017-03-07T15:40:23Z</time>
      </trkpt>
      <trkpt lat="49.44823" lon="1.25014">
        <ele>146</ele>
        <time>2017-03-07T15:40:38Z</time>
      </trkpt>
      <trkpt lat="49.44825" lon="1.25021">
        <ele>146</ele>
        <time>2017-03-07T15:40:38Z</time>
      </trkpt>
      <trkpt lat="49.44826" lon="1.25029">
        <ele>146</ele>
        <time>2017-03-07T15:40:38Z</time>
      </trkpt>
      <trkpt lat="49.44827" lon="1.25036">
        <ele>146</ele>
        <time>2017-03-07T15:40:38Z</time>
      </trkpt>
      <trkpt lat="49.44828" lon="1.25041">
        <ele>146</ele>
        <time>2017-03-07T15:40:53Z</time>
      </trkpt>
      <trkpt lat="49.44828" lon="1.25048">
        <ele>147</ele>
        <time>2017-03-07T15:40:54Z</time>
      </trkpt>
      <trkpt lat="49.4483" lon="1.25056">
        <ele>147</ele>
        <time>2017-03-07T15:40:54Z</time>
      </trkpt>
      <trkpt lat="49.44831" lon="1.2506">
        <ele>147</ele>
        <time>2017-03-07T15:40:54Z</time>
      </trkpt>
      <trkpt lat="49.44832" lon="1.25066">
        <ele>147</ele>
        <time>2017-03-07T15:41:09Z</time>
      </trkpt>
      <trkpt lat="49.44833" lon="1.25074">
        <ele>147</ele>
        <time>2017-03-07T15:41:10Z</time>
      </trkpt>
      <trkpt lat="49.44834" lon="1.25081">
        <ele>147</ele>
        <time>2017-03-07T15:41:10Z</time>
      </trkpt>
      <trkpt lat="49.44834" lon="1.2509">
        <ele>147</ele>
        <time>2017-03-07T15:41:10Z</time>
      </trkpt>
      <trkpt lat="49.44834" lon="1.25098">
        <ele>147</ele>
        <time>2017-03-07T15:41:25Z</time>
      </trkpt>
      <trkpt lat="49.44835" lon="1.25105">
        <ele>147</ele>
        <time>2017-03-07T15:41:26Z</time>
      </trkpt>
      <trkpt lat="49.44835" lon="1.25113">
        <ele>147</ele>
        <time>2017-03-07T15:41:26Z</time>
      </trkpt>
      <trkpt lat="49.44836" lon="1.2512">
        <ele>147</ele>
        <time>2017-03-07T15:41:26Z</time>
      </trkpt>
      <trkpt lat="49.44837" lon="1.25129">
        <ele>148</ele>
        <time>2017-03-07T15:41:41Z</time>
      </trkpt>
      <trkpt lat="49.44838" lon="1.25138">
        <ele>148</ele>
        <time>2017-03-07T15:41:42Z</time>
      </trkpt>
      <trkpt lat="49.44839" lon="1.25145">
        <ele>148</ele>
        <time>2017-03-07T15:41:42Z</time>
      </trkpt>
      <trkpt lat="49.4484" lon="1.25153">
        <ele>148</ele>
        <time>2017-03-07T15:41:42Z</time>
      </trkpt>
      <trkpt lat="49.4484" lon="1.25158">
        <ele>148</ele>
        <time>2017-03-07T15:41:57Z</time>
      </trkpt>
      <trkpt lat="49.44842" lon="1.25167">
        <ele>148</ele>
        <time>2017-03-07T15:41:58Z</time>
      </trkpt>
      <trkpt lat="49.44843" lon="1.25174">
        <ele>148</ele>
        <time>2017-03-07T15:41:58Z</time>
      </trkpt>
      <trkpt lat="49.44843" lon="1.25181">
        <ele>148</ele>
        <time>2017-03-07T15:41:58Z</time>
      </trkpt>
      <trkpt lat="49.44844" lon="1.25187">
        <ele>148</ele>
        <time>2017-03-07T15:42:13Z</time>
      </trkpt>
      <trkpt lat="49.44845" lon="1.25195">
        <ele>148</ele>
        <time>2017-03-07T15:42:14Z</time>
      </trkpt>
      <trkpt lat="49.44846" lon="1.25201">
        <ele>148</ele>
        <time>2017-03-07T15:42:14Z</time>
      </trkpt>
      <trkpt lat="49.44846" lon="1.25206">
        <ele>148</ele>
        <time>2017-03-07T15:42:14Z</time>
      </trkpt>
      <trkpt lat="49.44847" lon="1.25212">
        <ele>149</ele>
        <time>2017-03-07T15:42:29Z</time>
      </trkpt>
      <trkpt lat="49.44847" lon="1.25217">
        <ele>149</ele>
        <time>2017-03-07T15:42:30Z</time>
      </trkpt>
      <trkpt lat="49.44847" lon="1.25227">
        <ele>149</ele>
        <time>2017-03-07T15:42:30Z</time>
      </trkpt>
      <trkpt lat="49.44847" lon="1.25235">
        <ele>149</ele>
        <time>2017-03-07T15:42:30Z</time>
      </trkpt>
      <trkpt lat="49.44848" lon="1.25238">
        <ele>149</ele>
        <time>2017-03-07T15:42:46Z</time>
      </trkpt>
      <trkpt lat="49.4485" lon="1.25252">
        <ele>149</ele>
        <time>2017-03-07T15:42:46Z</time>
      </trkpt>
      <trkpt lat="49.4485" lon="1.25256">
        <ele>149</ele>
        <time>2017-03-07T15:42:46Z</time>
      </trkpt>
      <trkpt lat="49.4485" lon="1.25262">
        <ele>149</ele>
        <time>2017-03-07T15:42:46Z</time>
      </trkpt>
      <trkpt lat="49.4485" lon="1.25267">
        <ele>149</ele>
        <time>2017-03-07T15:43:01Z</time>
      </trkpt>
      <trkpt lat="49.44852" lon="1.25273">
        <ele>149</ele>
        <time>2017-03-07T15:43:02Z</time>
      </trkpt>
      <trkpt lat="49.44853" lon="1.25284">
        <ele>149</ele>
        <time>2017-03-07T15:43:02Z</time>
      </trkpt>
      <trkpt lat="49.44853" lon="1.25289">
        <ele>149</ele>
        <time>2017-03-07T15:43:02Z</time>
      </trkpt>
      <trkpt lat="49.44854" lon="1.25294">
        <ele>149</ele>
        <time>2017-03-07T15:43:18Z</time>
      </trkpt>
      <trkpt lat="49.44855" lon="1.25301">
        <ele>149</ele>
        <time>2017-03-07T15:43:18Z</time>
      </trkpt>
      <trkpt lat="49.44857" lon="1.2531">
        <ele>149</ele>
        <time>2017-03-07T15:43:18Z</time>
      </trkpt>
      <trkpt lat="49.44857" lon="1.25319">
        <ele>149</ele>
        <time>2017-03-07T15:43:18Z</time>
      </trkpt>
      <trkpt lat="49.44857" lon="1.25327">
        <ele>149</ele>
        <time>2017-03-07T15:43:35Z</time>
      </trkpt>
      <trkpt lat="49.44856" lon="1.25333">
        <ele>149</ele>
        <time>2017-03-07T15:43:35Z</time>
      </trkpt>
      <trkpt lat="49.44856" lon="1.25336">
        <ele>149</ele>
        <time>2017-03-07T15:43:35Z</time>
      </trkpt>
      <trkpt lat="49.44858" lon="1.25345">
        <ele>149</ele>
        <time>2017-03-07T15:43:35Z</time>
      </trkpt>
      <trkpt lat="49.44859" lon="1.25353">
        <ele>149</ele>
        <time>2017-03-07T15:43:50Z</time>
      </trkpt>
      <trkpt lat="49.4486" lon="1.25357">
        <ele>149</ele>
        <time>2017-03-07T15:43:50Z</time>
      </trkpt>
      <trkpt lat="49.4486" lon="1.25368">
        <ele>149</ele>
        <time>2017-03-07T15:43:50Z</time>
      </trkpt>
      <trkpt lat="49.44861" lon="1.25371">
        <ele>149</ele>
        <time>2017-03-07T15:43:50Z</time>
      </trkpt>
      <trkpt lat="49.44862" lon="1.25378">
        <ele>147</ele>
        <time>2017-03-07T15:44:06Z</time>
      </trkpt>
      <trkpt lat="49.44862" lon="1.25381">
        <ele>147</ele>
        <time>2017-03-07T15:44:06Z</time>
      </trkpt>
      <trkpt lat="49.44864" lon="1.25391">
        <ele>147</ele>
        <time>2017-03-07T15:44:06Z</time>
      </trkpt>
      <trkpt lat="49.44864" lon="1.25399">
        <ele>147</ele>
        <time>2017-03-07T15:44:06Z</time>
      </trkpt>
      <trkpt lat="49.44865" lon="1.25408">
        <ele>147</ele>
        <time>2017-03-07T15:44:21Z</time>
      </trkpt>
      <trkpt lat="49.44866" lon="1.25416">
        <ele>147</ele>
        <time>2017-03-07T15:44:22Z</time>
      </trkpt>
      <trkpt lat="49.44867" lon="1.25428">
        <ele>147</ele>
        <time>2017-03-07T15:44:22Z</time>
      </trkpt>
      <trkpt lat="49.44868" lon="1.25436">
        <ele>147</ele>
        <time>2017-03-07T15:44:22Z</time>
      </trkpt>
      <trkpt lat="49.44868" lon="1.25441">
        <ele>147</ele>
        <time>2017-03-07T15:44:38Z</time>
      </trkpt>
      <trkpt lat="49.44869" lon="1.25449">
        <ele>147</ele>
        <time>2017-03-07T15:44:38Z</time>
      </trkpt>
      <trkpt lat="49.4487" lon="1.25457">
        <ele>147</ele>
        <time>2017-03-07T15:44:38Z</time>
      </trkpt>
      <trkpt lat="49.4487" lon="1.25464">
        <ele>145</ele>
        <time>2017-03-07T15:44:38Z</time>
      </trkpt>
      <trkpt lat="49.44871" lon="1.25468">
        <ele>145</ele>
        <time>2017-03-07T15:44:54Z</time>
      </trkpt>
      <trkpt lat="49.44871" lon="1.25478">
        <ele>145</ele>
        <time>2017-03-07T15:44:54Z</time>
      </trkpt>
      <trkpt lat="49.44872" lon="1.25481">
        <ele>145</ele>
        <time>2017-03-07T15:44:54Z</time>
      </trkpt>
      <trkpt lat="49.44873" lon="1.25491">
        <ele>145</ele>
        <time>2017-03-07T15:44:54Z</time>
      </trkpt>
      <trkpt lat="49.44874" lon="1.25501">
        <ele>145</ele>
        <time>2017-03-07T15:45:10Z</time>
      </trkpt>
      <trkpt lat="49.44873" lon="1.25507">
        <ele>145</ele>
        <time>2017-03-07T15:45:10Z</time>
      </trkpt>
      <trkpt lat="49.44875" lon="1.25515">
        <ele>145</ele>
        <time>2017-03-07T15:45:10Z</time>
      </trkpt>
      <trkpt lat="49.44875" lon="1.25519">
        <ele>145</ele>
        <time>2017-03-07T15:45:10Z</time>
      </trkpt>
      <trkpt lat="49.44876" lon="1.25527">
        <ele>144</ele>
        <time>2017-03-07T15:45:25Z</time>
      </trkpt>
      <trkpt lat="49.44877" lon="1.25534">
        <ele>144</ele>
        <time>2017-03-07T15:45:26Z</time>
      </trkpt>
      <trkpt lat="49.44877" lon="1.25542">
        <ele>143</ele>
        <time>2017-03-07T15:45:26Z</time>
      </trkpt>
      <trkpt lat="49.44877" lon="1.25549">
        <ele>143</ele>
        <time>2017-03-07T15:45:26Z</time>
      </trkpt>
      <trkpt lat="49.44879" lon="1.25558">
        <ele>143</ele>
        <time>2017-03-07T15:45:42Z</time>
      </trkpt>
      <trkpt lat="49.44879" lon="1.25562">
        <ele>143</ele>
        <time>2017-03-07T15:45:42Z</time>
      </trkpt>
      <trkpt lat="49.44879" lon="1.25569">
        <ele>143</ele>
        <time>2017-03-07T15:45:42Z</time>
      </trkpt>
      <trkpt lat="49.4488" lon="1.25575">
        <ele>143</ele>
        <time>2017-03-07T15:45:42Z</time>
      </trkpt>
      <trkpt lat="49.44881" lon="1.2558">
        <ele>143</ele>
        <time>2017-03-07T15:45:57Z</time>
      </trkpt>
      <trkpt lat="49.44882" lon="1.25589">
        <ele>143</ele>
        <time>2017-03-07T15:45:58Z</time>
      </trkpt>
      <trkpt lat="49.44883" lon="1.25598">
        <ele>143</ele>
        <time>2017-03-07T15:45:58Z</time>
      </trkpt>
      <trkpt lat="49.44887" lon="1.25603">
        <ele>143</ele>
        <time>2017-03-07T15:45:58Z</time>
      </trkpt>
      <trkpt lat="49.44891" lon="1.25604">
        <ele>143</ele>
        <time>2017-03-07T15:46:14Z</time>
      </trkpt>
      <trkpt lat="49.44896" lon="1.25603">
        <ele>143</ele>
        <time>2017-03-07T15:46:14Z</time>
      </trkpt>
      <trkpt lat="49.44899" lon="1.25603">
        <ele>143</ele>
        <time>2017-03-07T15:46:14Z</time>
      </trkpt>
      <trkpt lat="49.44905" lon="1.25601">
        <ele>143</ele>
        <time>2017-03-07T15:46:14Z</time>
      </trkpt>
      <trkpt lat="49.4491" lon="1.256">
        <ele>143</ele>
        <time>2017-03-07T15:46:30Z</time>
      </trkpt>
      <trkpt lat="49.44915" lon="1.25599">
        <ele>143</ele>
        <time>2017-03-07T15:46:30Z</time>
      </trkpt>
      <trkpt lat="49.44918" lon="1.25598">
        <ele>143</ele>
        <time>2017-03-07T15:46:30Z</time>
      </trkpt>
      <trkpt lat="49.44924" lon="1.25598">
        <ele>143</ele>
        <time>2017-03-07T15:46:30Z</time>
      </trkpt>
      <trkpt lat="49.44933" lon="1.25595">
        <ele>143</ele>
        <time>2017-03-07T15:46:50Z</time>
      </trkpt>
      <trkpt lat="49.44939" lon="1.25594">
        <ele>143</ele>
        <time>2017-03-07T15:46:50Z</time>
      </trkpt>
      <trkpt lat="49.44943" lon="1.25592">
        <ele>143</ele>
        <time>2017-03-07T15:46:50Z</time>
      </trkpt>
      <trkpt lat="49.44947" lon="1.25595">
        <ele>143</ele>
        <time>2017-03-07T15:46:50Z</time>
      </trkpt>
      <trkpt lat="49.4495" lon="1.256">
        <ele>143</ele>
        <time>2017-03-07T15:47:06Z</time>
      </trkpt>
      <trkpt lat="49.44952" lon="1.25607">
        <ele>143</ele>
        <time>2017-03-07T15:47:06Z</time>
      </trkpt>
      <trkpt lat="49.44953" lon="1.25615">
        <ele>143</ele>
        <time>2017-03-07T15:47:06Z</time>
      </trkpt>
      <trkpt lat="49.44954" lon="1.25622">
        <ele>143</ele>
        <time>2017-03-07T15:47:06Z</time>
      </trkpt>
      <trkpt lat="49.44955" lon="1.25629">
        <ele>144</ele>
        <time>2017-03-07T15:47:23Z</time>
      </trkpt>
      <trkpt lat="49.44957" lon="1.25636">
        <ele>144</ele>
        <time>2017-03-07T15:47:23Z</time>
      </trkpt>
      <trkpt lat="49.44958" lon="1.25642">
        <ele>144</ele>
        <time>2017-03-07T15:47:23Z</time>
      </trkpt>
      <trkpt lat="49.44958" lon="1.25648">
        <ele>144</ele>
        <time>2017-03-07T15:47:23Z</time>
      </trkpt>
      <trkpt lat="49.44961" lon="1.25655">
        <ele>144</ele>
        <time>2017-03-07T15:47:39Z</time>
      </trkpt>
      <trkpt lat="49.44961" lon="1.25662">
        <ele>144</ele>
        <time>2017-03-07T15:47:39Z</time>
      </trkpt>
      <trkpt lat="49.44963" lon="1.2567">
        <ele>144</ele>
        <time>2017-03-07T15:47:39Z</time>
      </trkpt>
      <trkpt lat="49.44965" lon="1.25676">
        <ele>144</ele>
        <time>2017-03-07T15:47:39Z</time>
      </trkpt>
      <trkpt lat="49.44965" lon="1.25682">
        <ele>144</ele>
        <time>2017-03-07T15:47:54Z</time>
      </trkpt>
      <trkpt lat="49.44967" lon="1.25689">
        <ele>144</ele>
        <time>2017-03-07T15:47:54Z</time>
      </trkpt>
      <trkpt lat="49.44968" lon="1.25696">
        <ele>144</ele>
        <time>2017-03-07T15:47:54Z</time>
      </trkpt>
      <trkpt lat="49.44969" lon="1.25704">
        <ele>144</ele>
        <time>2017-03-07T15:47:54Z</time>
      </trkpt>
      <trkpt lat="49.4497" lon="1.25712">
        <ele>147</ele>
        <time>2017-03-07T15:48:10Z</time>
      </trkpt>
      <trkpt lat="49.4497" lon="1.25716">
        <ele>147</ele>
        <time>2017-03-07T15:48:10Z</time>
      </trkpt>
      <trkpt lat="49.44972" lon="1.25725">
        <ele>147</ele>
        <time>2017-03-07T15:48:10Z</time>
      </trkpt>
      <trkpt lat="49.44973" lon="1.25734">
        <ele>147</ele>
        <time>2017-03-07T15:48:10Z</time>
      </trkpt>
      <trkpt lat="49.44974" lon="1.2574">
        <ele>147</ele>
        <time>2017-03-07T15:48:25Z</time>
      </trkpt>
      <trkpt lat="49.44975" lon="1.25746">
        <ele>147</ele>
        <time>2017-03-07T15:48:26Z</time>
      </trkpt>
      <trkpt lat="49.44976" lon="1.25753">
        <ele>147</ele>
        <time>2017-03-07T15:48:26Z</time>
      </trkpt>
      <trkpt lat="49.44977" lon="1.2576">
        <ele>147</ele>
        <time>2017-03-07T15:48:26Z</time>
      </trkpt>
      <trkpt lat="49.44979" lon="1.25766">
        <ele>147</ele>
        <time>2017-03-07T15:48:42Z</time>
      </trkpt>
      <trkpt lat="49.44979" lon="1.25771">
        <ele>147</ele>
        <time>2017-03-07T15:48:43Z</time>
      </trkpt>
      <trkpt lat="49.44981" lon="1.25778">
        <ele>147</ele>
        <time>2017-03-07T15:48:43Z</time>
      </trkpt>
      <trkpt lat="49.44982" lon="1.25785">
        <ele>147</ele>
        <time>2017-03-07T15:48:43Z</time>
      </trkpt>
      <trkpt lat="49.44983" lon="1.25792">
        <ele>148</ele>
        <time>2017-03-07T15:48:58Z</time>
      </trkpt>
      <trkpt lat="49.44984" lon="1.258">
        <ele>148</ele>
        <time>2017-03-07T15:48:58Z</time>
      </trkpt>
      <trkpt lat="49.44985" lon="1.25806">
        <ele>148</ele>
        <time>2017-03-07T15:48:58Z</time>
      </trkpt>
      <trkpt lat="49.44986" lon="1.25812">
        <ele>148</ele>
        <time>2017-03-07T15:48:58Z</time>
      </trkpt>
      <trkpt lat="49.44987" lon="1.25817">
        <ele>148</ele>
        <time>2017-03-07T15:49:14Z</time>
      </trkpt>
      <trkpt lat="49.44987" lon="1.25826">
        <ele>148</ele>
        <time>2017-03-07T15:49:14Z</time>
      </trkpt>
      <trkpt lat="49.44987" lon="1.25833">
        <ele>148</ele>
        <time>2017-03-07T15:49:14Z</time>
      </trkpt>
      <trkpt lat="49.44988" lon="1.25839">
        <ele>148</ele>
        <time>2017-03-07T15:49:14Z</time>
      </trkpt>
      <trkpt lat="49.4499" lon="1.25855">
        <ele>148</ele>
        <time>2017-03-07T15:49:34Z</time>
      </trkpt>
      <trkpt lat="49.44991" lon="1.25864">
        <ele>148</ele>
        <time>2017-03-07T15:49:34Z</time>
      </trkpt>
      <trkpt lat="49.44993" lon="1.25871">
        <ele>148</ele>
        <time>2017-03-07T15:49:34Z</time>
      </trkpt>
      <trkpt lat="49.44993" lon="1.25876">
        <ele>148</ele>
        <time>2017-03-07T15:49:34Z</time>
      </trkpt>
      <trkpt lat="49.44993" lon="1.25878">
        <ele>148</ele>
        <time>2017-03-07T15:49:50Z</time>
      </trkpt>
      <trkpt lat="49.44995" lon="1.25892">
        <ele>148</ele>
        <time>2017-03-07T15:49:50Z</time>
      </trkpt>
      <trkpt lat="49.44997" lon="1.25903">
        <ele>148</ele>
        <time>2017-03-07T15:49:50Z</time>
      </trkpt>
      <trkpt lat="49.44999" lon="1.25909">
        <ele>148</ele>
        <time>2017-03-07T15:49:50Z</time>
      </trkpt>
      <trkpt lat="49.45" lon="1.25916">
        <ele>148</ele>
        <time>2017-03-07T15:50:05Z</time>
      </trkpt>
      <trkpt lat="49.45001" lon="1.25923">
        <ele>148</ele>
        <time>2017-03-07T15:50:06Z</time>
      </trkpt>
      <trkpt lat="49.45002" lon="1.2593">
        <ele>148</ele>
        <time>2017-03-07T15:50:06Z</time>
      </trkpt>
      <trkpt lat="49.45003" lon="1.25937">
        <ele>148</ele>
        <time>2017-03-07T15:50:06Z</time>
      </trkpt>
      <trkpt lat="49.45005" lon="1.25944">
        <ele>148</ele>
        <time>2017-03-07T15:50:22Z</time>
      </trkpt>
      <trkpt lat="49.45006" lon="1.25952">
        <ele>148</ele>
        <time>2017-03-07T15:50:22Z</time>
      </trkpt>
      <trkpt lat="49.45008" lon="1.25959">
        <ele>149</ele>
        <time>2017-03-07T15:50:22Z</time>
      </trkpt>
      <trkpt lat="49.45009" lon="1.25967">
        <ele>149</ele>
        <time>2017-03-07T15:50:22Z</time>
      </trkpt>
      <trkpt lat="49.4501" lon="1.25973">
        <ele>149</ele>
        <time>2017-03-07T15:50:37Z</time>
      </trkpt>
      <trkpt lat="49.45012" lon="1.25981">
        <ele>149</ele>
        <time>2017-03-07T15:50:38Z</time>
      </trkpt>
      <trkpt lat="49.45014" lon="1.25988">
        <ele>149</ele>
        <time>2017-03-07T15:50:38Z</time>
      </trkpt>
      <trkpt lat="49.45015" lon="1.25995">
        <ele>149</ele>
        <time>2017-03-07T15:50:38Z</time>
      </trkpt>
      <trkpt lat="49.45016" lon="1.26003">
        <ele>149</ele>
        <time>2017-03-07T15:50:53Z</time>
      </trkpt>
      <trkpt lat="49.45018" lon="1.26011">
        <ele>149</ele>
        <time>2017-03-07T15:50:54Z</time>
      </trkpt>
      <trkpt lat="49.45018" lon="1.26016">
        <ele>149</ele>
        <time>2017-03-07T15:50:54Z</time>
      </trkpt>
      <trkpt lat="49.45021" lon="1.26024">
        <ele>149</ele>
        <time>2017-03-07T15:50:54Z</time>
      </trkpt>
      <trkpt lat="49.45021" lon="1.26031">
        <ele>149</ele>
        <time>2017-03-07T15:51:10Z</time>
      </trkpt>
      <trkpt lat="49.45023" lon="1.26037">
        <ele>149</ele>
        <time>2017-03-07T15:51:10Z</time>
      </trkpt>
      <trkpt lat="49.45024" lon="1.26047">
        <ele>150</ele>
        <time>2017-03-07T15:51:10Z</time>
      </trkpt>
      <trkpt lat="49.45026" lon="1.26054">
        <ele>150</ele>
        <time>2017-03-07T15:51:10Z</time>
      </trkpt>
      <trkpt lat="49.45026" lon="1.2606">
        <ele>150</ele>
        <time>2017-03-07T15:51:26Z</time>
      </trkpt>
      <trkpt lat="49.45026" lon="1.26066">
        <ele>150</ele>
        <time>2017-03-07T15:51:26Z</time>
      </trkpt>
      <trkpt lat="49.45027" lon="1.26073">
        <ele>150</ele>
        <time>2017-03-07T15:51:26Z</time>
      </trkpt>
      <trkpt lat="49.45029" lon="1.26081">
        <ele>150</ele>
        <time>2017-03-07T15:51:26Z</time>
      </trkpt>
      <trkpt lat="49.45029" lon="1.26092">
        <ele>150</ele>
        <time>2017-03-07T15:51:42Z</time>
      </trkpt>
      <trkpt lat="49.45031" lon="1.26098">
        <ele>150</ele>
        <time>2017-03-07T15:51:42Z</time>
      </trkpt>
      <trkpt lat="49.45031" lon="1.26103">
        <ele>150</ele>
        <time>2017-03-07T15:51:43Z</time>
      </trkpt>
      <trkpt lat="49.45032" lon="1.26112">
        <ele>150</ele>
        <time>2017-03-07T15:51:43Z</time>
      </trkpt>
      <trkpt lat="49.45033" lon="1.26115">
        <ele>150</ele>
        <time>2017-03-07T15:51:59Z</time>
      </trkpt>
      <trkpt lat="49.45033" lon="1.26123">
        <ele>150</ele>
        <time>2017-03-07T15:51:59Z</time>
      </trkpt>
      <trkpt lat="49.45034" lon="1.26128">
        <ele>152</ele>
        <time>2017-03-07T15:51:59Z</time>
      </trkpt>
      <trkpt lat="49.45036" lon="1.26135">
        <ele>152</ele>
        <time>2017-03-07T15:51:59Z</time>
      </trkpt>
      <trkpt lat="49.45039" lon="1.26138">
        <ele>152</ele>
        <time>2017-03-07T15:52:13Z</time>
      </trkpt>
      <trkpt lat="49.45038" lon="1.26148">
        <ele>152</ele>
        <time>2017-03-07T15:52:14Z</time>
      </trkpt>
      <trkpt lat="49.45037" lon="1.26156">
        <ele>152</ele>
        <time>2017-03-07T15:52:14Z</time>
      </trkpt>
      <trkpt lat="49.45037" lon="1.26162">
        <ele>152</ele>
        <time>2017-03-07T15:52:14Z</time>
      </trkpt>
      <trkpt lat="49.45039" lon="1.26168">
        <ele>152</ele>
        <time>2017-03-07T15:55:30Z</time>
      </trkpt>
      <trkpt lat="49.45039" lon="1.26168">
        <ele>152</ele>
        <time>2017-03-07T15:55:30Z</time>
      </trkpt>
      <trkpt lat="49.4504" lon="1.26169">
        <ele>152</ele>
        <time>2017-03-07T15:55:30Z</time>
      </trkpt>
      <trkpt lat="49.4504" lon="1.26178">
        <ele>152</ele>
        <time>2017-03-07T15:55:30Z</time>
      </trkpt>
      <trkpt lat="49.4504" lon="1.26184">
        <ele>152</ele>
        <time>2017-03-07T15:55:30Z</time>
      </trkpt>
      <trkpt lat="49.45042" lon="1.26193">
        <ele>153</ele>
        <time>2017-03-07T15:55:45Z</time>
      </trkpt>
      <trkpt lat="49.45043" lon="1.26199">
        <ele>153</ele>
        <time>2017-03-07T15:55:46Z</time>
      </trkpt>
      <trkpt lat="49.45047" lon="1.26208">
        <ele>153</ele>
        <time>2017-03-07T15:55:46Z</time>
      </trkpt>
      <trkpt lat="49.45045" lon="1.26216">
        <ele>155</ele>
        <time>2017-03-07T15:55:46Z</time>
      </trkpt>
      <trkpt lat="49.45044" lon="1.26216">
        <ele>155</ele>
        <time>2017-03-07T15:56:14Z</time>
      </trkpt>
      <trkpt lat="49.45044" lon="1.26214">
        <ele>155</ele>
        <time>2017-03-07T15:56:14Z</time>
      </trkpt>
      <trkpt lat="49.45044" lon="1.2622">
        <ele>155</ele>
        <time>2017-03-07T15:56:14Z</time>
      </trkpt>
      <trkpt lat="49.45046" lon="1.26226">
        <ele>155</ele>
        <time>2017-03-07T15:56:14Z</time>
      </trkpt>
      <trkpt lat="49.45049" lon="1.2623">
        <ele>155</ele>
        <time>2017-03-07T15:56:14Z</time>
      </trkpt>
      <trkpt lat="49.4505" lon="1.26237">
        <ele>155</ele>
        <time>2017-03-07T15:56:31Z</time>
      </trkpt>
      <trkpt lat="49.45051" lon="1.26242">
        <ele>155</ele>
        <time>2017-03-07T15:56:31Z</time>
      </trkpt>
      <trkpt lat="49.45053" lon="1.26248">
        <ele>155</ele>
        <time>2017-03-07T15:56:31Z</time>
      </trkpt>
      <trkpt lat="49.45055" lon="1.26254">
        <ele>155</ele>
        <time>2017-03-07T15:56:31Z</time>
      </trkpt>
      <trkpt lat="49.45055" lon="1.26262">
        <ele>155</ele>
        <time>2017-03-07T15:56:49Z</time>
      </trkpt>
      <trkpt lat="49.45056" lon="1.26263">
        <ele>155</ele>
        <time>2017-03-07T15:56:50Z</time>
      </trkpt>
      <trkpt lat="49.45055" lon="1.26265">
        <ele>155</ele>
        <time>2017-03-07T15:56:50Z</time>
      </trkpt>
      <trkpt lat="49.45054" lon="1.26273">
        <ele>155</ele>
        <time>2017-03-07T15:56:50Z</time>
      </trkpt>
      <trkpt lat="49.45053" lon="1.26276">
        <ele>155</ele>
        <time>2017-03-07T15:56:50Z</time>
      </trkpt>
      <trkpt lat="49.45053" lon="1.2628">
        <ele>155</ele>
        <time>2017-03-07T15:57:05Z</time>
      </trkpt>
      <trkpt lat="49.45054" lon="1.26286">
        <ele>155</ele>
        <time>2017-03-07T15:57:06Z</time>
      </trkpt>
      <trkpt lat="49.45054" lon="1.26291">
        <ele>155</ele>
        <time>2017-03-07T15:57:06Z</time>
      </trkpt>
      <trkpt lat="49.45055" lon="1.26294">
        <ele>154</ele>
        <time>2017-03-07T15:57:06Z</time>
      </trkpt>
      <trkpt lat="49.45057" lon="1.26302">
        <ele>154</ele>
        <time>2017-03-07T15:57:21Z</time>
      </trkpt>
      <trkpt lat="49.45059" lon="1.26313">
        <ele>154</ele>
        <time>2017-03-07T15:57:22Z</time>
      </trkpt>
      <trkpt lat="49.45061" lon="1.2632">
        <ele>154</ele>
        <time>2017-03-07T15:57:22Z</time>
      </trkpt>
      <trkpt lat="49.45062" lon="1.26327">
        <ele>154</ele>
        <time>2017-03-07T15:57:22Z</time>
      </trkpt>
      <trkpt lat="49.45062" lon="1.26331">
        <ele>154</ele>
        <time>2017-03-07T15:57:37Z</time>
      </trkpt>
      <trkpt lat="49.45061" lon="1.26338">
        <ele>154</ele>
        <time>2017-03-07T15:57:38Z</time>
      </trkpt>
      <trkpt lat="49.45059" lon="1.26343">
        <ele>154</ele>
        <time>2017-03-07T15:57:38Z</time>
      </trkpt>
      <trkpt lat="49.45058" lon="1.26352">
        <ele>154</ele>
        <time>2017-03-07T15:57:38Z</time>
      </trkpt>
      <trkpt lat="49.45056" lon="1.26356">
        <ele>154</ele>
        <time>2017-03-07T15:57:53Z</time>
      </trkpt>
      <trkpt lat="49.45056" lon="1.26361">
        <ele>154</ele>
        <time>2017-03-07T15:57:54Z</time>
      </trkpt>
      <trkpt lat="49.45052" lon="1.26365">
        <ele>154</ele>
        <time>2017-03-07T15:57:54Z</time>
      </trkpt>
      <trkpt lat="49.45051" lon="1.26371">
        <ele>154</ele>
        <time>2017-03-07T15:57:54Z</time>
      </trkpt>
      <trkpt lat="49.45053" lon="1.26377">
        <ele>154</ele>
        <time>2017-03-07T15:58:53Z</time>
      </trkpt>
      <trkpt lat="49.45053" lon="1.26379">
        <ele>154</ele>
        <time>2017-03-07T15:58:55Z</time>
      </trkpt>
      <trkpt lat="49.45053" lon="1.26382">
        <ele>154</ele>
        <time>2017-03-07T15:58:55Z</time>
      </trkpt>
      <trkpt lat="49.45054" lon="1.26385">
        <ele>154</ele>
        <time>2017-03-07T15:58:55Z</time>
      </trkpt>
      <trkpt lat="49.45056" lon="1.26389">
        <ele>154</ele>
        <time>2017-03-07T15:58:55Z</time>
      </trkpt>
      <trkpt lat="49.45049" lon="1.26391">
        <ele>154</ele>
        <time>2017-03-07T16:05:29Z</time>
      </trkpt>
      <trkpt lat="49.45048" lon="1.2639">
        <ele>154</ele>
        <time>2017-03-07T16:05:30Z</time>
      </trkpt>
      <trkpt lat="49.45048" lon="1.26388">
        <ele>154</ele>
        <time>2017-03-07T16:05:30Z</time>
      </trkpt>
      <trkpt lat="49.45047" lon="1.26387">
        <ele>154</ele>
        <time>2017-03-07T16:05:30Z</time>
      </trkpt>
      <trkpt lat="49.45047" lon="1.26387">
        <ele>154</ele>
        <time>2017-03-07T16:05:30Z</time>
      </trkpt>
      <trkpt lat="49.45051" lon="1.26386">
        <ele>154</ele>
        <time>2017-03-07T16:08:45Z</time>
      </trkpt>
      <trkpt lat="49.45055" lon="1.26387">
        <ele>154</ele>
        <time>2017-03-07T16:08:46Z</time>
      </trkpt>
      <trkpt lat="49.4506" lon="1.26392">
        <ele>154</ele>
        <time>2017-03-07T16:08:47Z</time>
      </trkpt>
      <trkpt lat="49.45066" lon="1.26395">
        <ele>154</ele>
        <time>2017-03-07T16:08:48Z</time>
      </trkpt>
      <trkpt lat="49.4507" lon="1.26399">
        <ele>154</ele>
        <time>2017-03-07T16:08:48Z</time>
      </trkpt>
      <trkpt lat="49.45074" lon="1.26402">
        <ele>154</ele>
        <time>2017-03-07T16:09:01Z</time>
      </trkpt>
      <trkpt lat="49.4508" lon="1.26405">
        <ele>154</ele>
        <time>2017-03-07T16:09:02Z</time>
      </trkpt>
      <trkpt lat="49.45084" lon="1.26406">
        <ele>154</ele>
        <time>2017-03-07T16:09:02Z</time>
      </trkpt>
      <trkpt lat="49.45089" lon="1.26407">
        <ele>154</ele>
        <time>2017-03-07T16:09:02Z</time>
      </trkpt>
      <trkpt lat="49.45094" lon="1.26408">
        <ele>154</ele>
        <time>2017-03-07T16:09:18Z</time>
      </trkpt>
      <trkpt lat="49.45099" lon="1.26409">
        <ele>154</ele>
        <time>2017-03-07T16:09:18Z</time>
      </trkpt>
      <trkpt lat="49.45104" lon="1.26408">
        <ele>154</ele>
        <time>2017-03-07T16:09:18Z</time>
      </trkpt>
      <trkpt lat="49.45108" lon="1.26408">
        <ele>154</ele>
        <time>2017-03-07T16:09:18Z</time>
      </trkpt>
      <trkpt lat="49.45112" lon="1.26407">
        <ele>154</ele>
        <time>2017-03-07T16:09:33Z</time>
      </trkpt>
      <trkpt lat="49.45118" lon="1.26406">
        <ele>154</ele>
        <time>2017-03-07T16:09:34Z</time>
      </trkpt>
      <trkpt lat="49.45123" lon="1.26407">
        <ele>154</ele>
        <time>2017-03-07T16:09:34Z</time>
      </trkpt>
      <trkpt lat="49.45128" lon="1.26408">
        <ele>155</ele>
        <time>2017-03-07T16:09:34Z</time>
      </trkpt>
      <trkpt lat="49.45132" lon="1.26409">
        <ele>155</ele>
        <time>2017-03-07T16:09:49Z</time>
      </trkpt>
      <trkpt lat="49.45137" lon="1.2641">
        <ele>155</ele>
        <time>2017-03-07T16:09:50Z</time>
      </trkpt>
      <trkpt lat="49.45141" lon="1.26411">
        <ele>155</ele>
        <time>2017-03-07T16:09:50Z</time>
      </trkpt>
      <trkpt lat="49.45146" lon="1.26412">
        <ele>155</ele>
        <time>2017-03-07T16:09:50Z</time>
      </trkpt>
      <trkpt lat="49.45152" lon="1.26415">
        <ele>155</ele>
        <time>2017-03-07T16:10:05Z</time>
      </trkpt>
      <trkpt lat="49.45157" lon="1.26415">
        <ele>155</ele>
        <time>2017-03-07T16:10:06Z</time>
      </trkpt>
      <trkpt lat="49.45163" lon="1.26418">
        <ele>155</ele>
        <time>2017-03-07T16:10:06Z</time>
      </trkpt>
      <trkpt lat="49.45167" lon="1.26419">
        <ele>155</ele>
        <time>2017-03-07T16:10:06Z</time>
      </trkpt>
      <trkpt lat="49.45172" lon="1.26419">
        <ele>155</ele>
        <time>2017-03-07T16:10:21Z</time>
      </trkpt>
      <trkpt lat="49.45178" lon="1.26421">
        <ele>155</ele>
        <time>2017-03-07T16:10:22Z</time>
      </trkpt>
      <trkpt lat="49.45184" lon="1.26422">
        <ele>155</ele>
        <time>2017-03-07T16:10:22Z</time>
      </trkpt>
      <trkpt lat="49.4519" lon="1.26425">
        <ele>155</ele>
        <time>2017-03-07T16:10:22Z</time>
      </trkpt>
      <trkpt lat="49.45194" lon="1.26427">
        <ele>155</ele>
        <time>2017-03-07T16:10:38Z</time>
      </trkpt>
      <trkpt lat="49.45199" lon="1.26428">
        <ele>155</ele>
        <time>2017-03-07T16:10:38Z</time>
      </trkpt>
      <trkpt lat="49.45204" lon="1.26429">
        <ele>155</ele>
        <time>2017-03-07T16:10:38Z</time>
      </trkpt>
      <trkpt lat="49.45209" lon="1.26431">
        <ele>153</ele>
        <time>2017-03-07T16:10:38Z</time>
      </trkpt>
      <trkpt lat="49.45212" lon="1.26432">
        <ele>153</ele>
        <time>2017-03-07T16:10:54Z</time>
      </trkpt>
      <trkpt lat="49.45218" lon="1.26435">
        <ele>153</ele>
        <time>2017-03-07T16:10:54Z</time>
      </trkpt>
      <trkpt lat="49.4522" lon="1.26436">
        <ele>153</ele>
        <time>2017-03-07T16:10:54Z</time>
      </trkpt>
      <trkpt lat="49.45224" lon="1.26439">
        <ele>153</ele>
        <time>2017-03-07T16:10:54Z</time>
      </trkpt>
      <trkpt lat="49.45227" lon="1.26442">
        <ele>153</ele>
        <time>2017-03-07T16:11:09Z</time>
      </trkpt>
      <trkpt lat="49.45231" lon="1.26443">
        <ele>153</ele>
        <time>2017-03-07T16:11:10Z</time>
      </trkpt>
      <trkpt lat="49.45238" lon="1.26445">
        <ele>153</ele>
        <time>2017-03-07T16:11:10Z</time>
      </trkpt>
      <trkpt lat="49.45242" lon="1.26447">
        <ele>153</ele>
        <time>2017-03-07T16:11:10Z</time>
      </trkpt>
      <trkpt lat="49.45247" lon="1.26447">
        <ele>153</ele>
        <time>2017-03-07T16:11:25Z</time>
      </trkpt>
      <trkpt lat="49.45252" lon="1.26447">
        <ele>153</ele>
        <time>2017-03-07T16:11:26Z</time>
      </trkpt>
      <trkpt lat="49.45257" lon="1.26452">
        <ele>153</ele>
        <time>2017-03-07T16:11:26Z</time>
      </trkpt>
      <trkpt lat="49.45262" lon="1.26454">
        <ele>153</ele>
        <time>2017-03-07T16:11:26Z</time>
      </trkpt>
      <trkpt lat="49.45266" lon="1.26456">
        <ele>153</ele>
        <time>2017-03-07T16:11:41Z</time>
      </trkpt>
      <trkpt lat="49.45271" lon="1.26458">
        <ele>153</ele>
        <time>2017-03-07T16:11:42Z</time>
      </trkpt>
      <trkpt lat="49.45275" lon="1.26461">
        <ele>154</ele>
        <time>2017-03-07T16:11:42Z</time>
      </trkpt>
      <trkpt lat="49.4528" lon="1.26464">
        <ele>154</ele>
        <time>2017-03-07T16:11:42Z</time>
      </trkpt>
      <trkpt lat="49.45285" lon="1.26466">
        <ele>154</ele>
        <time>2017-03-07T16:11:57Z</time>
      </trkpt>
      <trkpt lat="49.4529" lon="1.26468">
        <ele>154</ele>
        <time>2017-03-07T16:11:58Z</time>
      </trkpt>
      <trkpt lat="49.45295" lon="1.26471">
        <ele>151</ele>
        <time>2017-03-07T16:11:58Z</time>
      </trkpt>
      <trkpt lat="49.45301" lon="1.26473">
        <ele>151</ele>
        <time>2017-03-07T16:11:58Z</time>
      </trkpt>
      <trkpt lat="49.45303" lon="1.26476">
        <ele>151</ele>
        <time>2017-03-07T16:12:13Z</time>
      </trkpt>
      <trkpt lat="49.45306" lon="1.26472">
        <ele>151</ele>
        <time>2017-03-07T16:12:14Z</time>
      </trkpt>
      <trkpt lat="49.45308" lon="1.26474">
        <ele>151</ele>
        <time>2017-03-07T16:12:14Z</time>
      </trkpt>
      <trkpt lat="49.45315" lon="1.26478">
        <ele>151</ele>
        <time>2017-03-07T16:12:14Z</time>
      </trkpt>
      <trkpt lat="49.45319" lon="1.26481">
        <ele>151</ele>
        <time>2017-03-07T16:12:29Z</time>
      </trkpt>
      <trkpt lat="49.45325" lon="1.26485">
        <ele>151</ele>
        <time>2017-03-07T16:12:30Z</time>
      </trkpt>
      <trkpt lat="49.4533" lon="1.26488">
        <ele>151</ele>
        <time>2017-03-07T16:12:30Z</time>
      </trkpt>
      <trkpt lat="49.45334" lon="1.26493">
        <ele>151</ele>
        <time>2017-03-07T16:12:30Z</time>
      </trkpt>
      <trkpt lat="49.45338" lon="1.26495">
        <ele>151</ele>
        <time>2017-03-07T16:12:46Z</time>
      </trkpt>
      <trkpt lat="49.45344" lon="1.26499">
        <ele>151</ele>
        <time>2017-03-07T16:12:46Z</time>
      </trkpt>
      <trkpt lat="49.45349" lon="1.265">
        <ele>151</ele>
        <time>2017-03-07T16:12:46Z</time>
      </trkpt>
      <trkpt lat="49.45355" lon="1.26501">
        <ele>151</ele>
        <time>2017-03-07T16:12:46Z</time>
      </trkpt>
      <trkpt lat="49.4536" lon="1.26503">
        <ele>151</ele>
        <time>2017-03-07T16:13:04Z</time>
      </trkpt>
      <trkpt lat="49.45365" lon="1.26505">
        <ele>151</ele>
        <time>2017-03-07T16:13:04Z</time>
      </trkpt>
      <trkpt lat="49.45369" lon="1.26506">
        <ele>151</ele>
        <time>2017-03-07T16:13:04Z</time>
      </trkpt>
      <trkpt lat="49.45372" lon="1.2651">
        <ele>151</ele>
        <time>2017-03-07T16:13:04Z</time>
      </trkpt>
      <trkpt lat="49.45376" lon="1.26512">
        <ele>148</ele>
        <time>2017-03-07T16:13:18Z</time>
      </trkpt>
      <trkpt lat="49.45379" lon="1.26516">
        <ele>148</ele>
        <time>2017-03-07T16:13:18Z</time>
      </trkpt>
      <trkpt lat="49.45383" lon="1.26521">
        <ele>148</ele>
        <time>2017-03-07T16:13:18Z</time>
      </trkpt>
      <trkpt lat="49.45387" lon="1.26528">
        <ele>148</ele>
        <time>2017-03-07T16:13:18Z</time>
      </trkpt>
      <trkpt lat="49.45385" lon="1.26531">
        <ele>148</ele>
        <time>2017-03-07T16:13:34Z</time>
      </trkpt>
      <trkpt lat="49.45379" lon="1.26538">
        <ele>148</ele>
        <time>2017-03-07T16:13:34Z</time>
      </trkpt>
      <trkpt lat="49.45374" lon="1.26545">
        <ele>151</ele>
        <time>2017-03-07T16:13:34Z</time>
      </trkpt>
      <trkpt lat="49.45372" lon="1.26548">
        <ele>151</ele>
        <time>2017-03-07T16:13:34Z</time>
      </trkpt>
      <trkpt lat="49.45367" lon="1.26554">
        <ele>151</ele>
        <time>2017-03-07T16:13:50Z</time>
      </trkpt>
      <trkpt lat="49.45362" lon="1.26557">
        <ele>151</ele>
        <time>2017-03-07T16:13:50Z</time>
      </trkpt>
      <trkpt lat="49.45357" lon="1.26558">
        <ele>151</ele>
        <time>2017-03-07T16:13:50Z</time>
      </trkpt>
      <trkpt lat="49.45352" lon="1.26561">
        <ele>151</ele>
        <time>2017-03-07T16:13:50Z</time>
      </trkpt>
      <trkpt lat="49.45348" lon="1.26563">
        <ele>151</ele>
        <time>2017-03-07T16:14:05Z</time>
      </trkpt>
      <trkpt lat="49.45345" lon="1.26563">
        <ele>151</ele>
        <time>2017-03-07T16:14:06Z</time>
      </trkpt>
      <trkpt lat="49.45339" lon="1.26569">
        <ele>151</ele>
        <time>2017-03-07T16:14:06Z</time>
      </trkpt>
      <trkpt lat="49.45335" lon="1.26573">
        <ele>151</ele>
        <time>2017-03-07T16:14:06Z</time>
      </trkpt>
      <trkpt lat="49.4533" lon="1.26572">
        <ele>151</ele>
        <time>2017-03-07T16:14:21Z</time>
      </trkpt>
      <trkpt lat="49.45323" lon="1.26575">
        <ele>151</ele>
        <time>2017-03-07T16:14:22Z</time>
      </trkpt>
      <trkpt lat="49.4532" lon="1.26576">
        <ele>151</ele>
        <time>2017-03-07T16:14:22Z</time>
      </trkpt>
      <trkpt lat="49.45315" lon="1.26578">
        <ele>151</ele>
        <time>2017-03-07T16:14:22Z</time>
      </trkpt>
      <trkpt lat="49.4531" lon="1.2658">
        <ele>151</ele>
        <time>2017-03-07T16:14:39Z</time>
      </trkpt>
      <trkpt lat="49.45306" lon="1.26581">
        <ele>151</ele>
        <time>2017-03-07T16:14:39Z</time>
      </trkpt>
      <trkpt lat="49.453" lon="1.26584">
        <ele>151</ele>
        <time>2017-03-07T16:14:39Z</time>
      </trkpt>
      <trkpt lat="49.45294" lon="1.26585">
        <ele>151</ele>
        <time>2017-03-07T16:14:39Z</time>
      </trkpt>
      <trkpt lat="49.45289" lon="1.26589">
        <ele>154</ele>
        <time>2017-03-07T16:14:54Z</time>
      </trkpt>
      <trkpt lat="49.45284" lon="1.2659">
        <ele>154</ele>
        <time>2017-03-07T16:14:54Z</time>
      </trkpt>
      <trkpt lat="49.4528" lon="1.26591">
        <ele>154</ele>
        <time>2017-03-07T16:14:54Z</time>
      </trkpt>
      <trkpt lat="49.45276" lon="1.26593">
        <ele>154</ele>
        <time>2017-03-07T16:14:54Z</time>
      </trkpt>
      <trkpt lat="49.45271" lon="1.26593">
        <ele>154</ele>
        <time>2017-03-07T16:15:11Z</time>
      </trkpt>
      <trkpt lat="49.45267" lon="1.26592">
        <ele>154</ele>
        <time>2017-03-07T16:15:11Z</time>
      </trkpt>
      <trkpt lat="49.45262" lon="1.26592">
        <ele>154</ele>
        <time>2017-03-07T16:15:11Z</time>
      </trkpt>
      <trkpt lat="49.45257" lon="1.26593">
        <ele>154</ele>
        <time>2017-03-07T16:15:11Z</time>
      </trkpt>
      <trkpt lat="49.45252" lon="1.26594">
        <ele>154</ele>
        <time>2017-03-07T16:15:26Z</time>
      </trkpt>
      <trkpt lat="49.45246" lon="1.26596">
        <ele>154</ele>
        <time>2017-03-07T16:15:26Z</time>
      </trkpt>
      <trkpt lat="49.45239" lon="1.26597">
        <ele>154</ele>
        <time>2017-03-07T16:15:26Z</time>
      </trkpt>
      <trkpt lat="49.45235" lon="1.26598">
        <ele>154</ele>
        <time>2017-03-07T16:15:26Z</time>
      </trkpt>
      <trkpt lat="49.45231" lon="1.26598">
        <ele>154</ele>
        <time>2017-03-07T16:15:43Z</time>
      </trkpt>
      <trkpt lat="49.45228" lon="1.26599">
        <ele>154</ele>
        <time>2017-03-07T16:15:43Z</time>
      </trkpt>
      <trkpt lat="49.45224" lon="1.26598">
        <ele>154</ele>
        <time>2017-03-07T16:15:43Z</time>
      </trkpt>
      <trkpt lat="49.4522" lon="1.26599">
        <ele>154</ele>
        <time>2017-03-07T16:15:43Z</time>
      </trkpt>
      <trkpt lat="49.45214" lon="1.266">
        <ele>154</ele>
        <time>2017-03-07T16:15:58Z</time>
      </trkpt>
      <trkpt lat="49.45208" lon="1.26602">
        <ele>155</ele>
        <time>2017-03-07T16:15:58Z</time>
      </trkpt>
      <trkpt lat="49.45203" lon="1.26603">
        <ele>155</ele>
        <time>2017-03-07T16:15:58Z</time>
      </trkpt>
      <trkpt lat="49.45199" lon="1.26605">
        <ele>155</ele>
        <time>2017-03-07T16:15:58Z</time>
      </trkpt>
      <trkpt lat="49.45193" lon="1.26608">
        <ele>155</ele>
        <time>2017-03-07T16:16:15Z</time>
      </trkpt>
      <trkpt lat="49.4519" lon="1.26609">
        <ele>155</ele>
        <time>2017-03-07T16:16:15Z</time>
      </trkpt>
      <trkpt lat="49.45186" lon="1.26608">
        <ele>155</ele>
        <time>2017-03-07T16:16:15Z</time>
      </trkpt>
      <trkpt lat="49.45179" lon="1.2661">
        <ele>155</ele>
        <time>2017-03-07T16:16:15Z</time>
      </trkpt>
      <trkpt lat="49.4517" lon="1.26612">
        <ele>155</ele>
        <time>2017-03-07T16:16:34Z</time>
      </trkpt>
      <trkpt lat="49.45162" lon="1.26612">
        <ele>155</ele>
        <time>2017-03-07T16:16:34Z</time>
      </trkpt>
      <trkpt lat="49.45157" lon="1.26612">
        <ele>155</ele>
        <time>2017-03-07T16:16:34Z</time>
      </trkpt>
      <trkpt lat="49.45153" lon="1.26613">
        <ele>155</ele>
        <time>2017-03-07T16:16:34Z</time>
      </trkpt>
      <trkpt lat="49.45149" lon="1.26612">
        <ele>155</ele>
        <time>2017-03-07T16:16:51Z</time>
      </trkpt>
      <trkpt lat="49.45143" lon="1.26613">
        <ele>155</ele>
        <time>2017-03-07T16:16:51Z</time>
      </trkpt>
      <trkpt lat="49.45138" lon="1.26614">
        <ele>155</ele>
        <time>2017-03-07T16:16:51Z</time>
      </trkpt>
      <trkpt lat="49.45133" lon="1.26612">
        <ele>155</ele>
        <time>2017-03-07T16:16:51Z</time>
      </trkpt>
      <trkpt lat="49.45124" lon="1.26612">
        <ele>154</ele>
        <time>2017-03-07T16:17:10Z</time>
      </trkpt>
      <trkpt lat="49.45118" lon="1.26613">
        <ele>154</ele>
        <time>2017-03-07T16:17:10Z</time>
      </trkpt>
      <trkpt lat="49.45113" lon="1.26614">
        <ele>154</ele>
        <time>2017-03-07T16:17:10Z</time>
      </trkpt>
      <trkpt lat="49.45109" lon="1.26614">
        <ele>154</ele>
        <time>2017-03-07T16:17:10Z</time>
      </trkpt>
      <trkpt lat="49.45093" lon="1.26615">
        <ele>154</ele>
        <time>2017-03-07T16:17:33Z</time>
      </trkpt>
      <trkpt lat="49.45087" lon="1.26616">
        <ele>154</ele>
        <time>2017-03-07T16:17:34Z</time>
      </trkpt>
      <trkpt lat="49.45084" lon="1.26616">
        <ele>154</ele>
        <time>2017-03-07T16:17:34Z</time>
      </trkpt>
      <trkpt lat="49.45079" lon="1.26618">
        <ele>154</ele>
        <time>2017-03-07T16:17:34Z</time>
      </trkpt>
      <trkpt lat="49.45075" lon="1.2662">
        <ele>154</ele>
        <time>2017-03-07T16:17:50Z</time>
      </trkpt>
      <trkpt lat="49.4507" lon="1.26621">
        <ele>154</ele>
        <time>2017-03-07T16:17:50Z</time>
      </trkpt>
      <trkpt lat="49.45067" lon="1.26624">
        <ele>154</ele>
        <time>2017-03-07T16:17:51Z</time>
      </trkpt>
      <trkpt lat="49.4506" lon="1.26625">
        <ele>154</ele>
        <time>2017-03-07T16:17:51Z</time>
      </trkpt>
      <trkpt lat="49.45058" lon="1.26625">
        <ele>154</ele>
        <time>2017-03-07T16:18:06Z</time>
      </trkpt>
      <trkpt lat="49.45049" lon="1.26628">
        <ele>154</ele>
        <time>2017-03-07T16:18:06Z</time>
      </trkpt>
      <trkpt lat="49.45042" lon="1.26629">
        <ele>154</ele>
        <time>2017-03-07T16:18:06Z</time>
      </trkpt>
      <trkpt lat="49.45038" lon="1.26628">
        <ele>153</ele>
        <time>2017-03-07T16:18:06Z</time>
      </trkpt>
      <trkpt lat="49.45033" lon="1.2663">
        <ele>153</ele>
        <time>2017-03-07T16:18:23Z</time>
      </trkpt>
      <trkpt lat="49.45028" lon="1.2663">
        <ele>153</ele>
        <time>2017-03-07T16:18:23Z</time>
      </trkpt>
      <trkpt lat="49.45024" lon="1.2663">
        <ele>153</ele>
        <time>2017-03-07T16:18:23Z</time>
      </trkpt>
      <trkpt lat="49.45018" lon="1.2663">
        <ele>153</ele>
        <time>2017-03-07T16:18:23Z</time>
      </trkpt>
      <trkpt lat="49.45014" lon="1.26631">
        <ele>153</ele>
        <time>2017-03-07T16:18:38Z</time>
      </trkpt>
      <trkpt lat="49.4501" lon="1.26632">
        <ele>153</ele>
        <time>2017-03-07T16:18:38Z</time>
      </trkpt>
      <trkpt lat="49.45004" lon="1.26631">
        <ele>153</ele>
        <time>2017-03-07T16:18:38Z</time>
      </trkpt>
      <trkpt lat="49.45" lon="1.2663">
        <ele>153</ele>
        <time>2017-03-07T16:18:38Z</time>
      </trkpt>
      <trkpt lat="49.44994" lon="1.2663">
        <ele>153</ele>
        <time>2017-03-07T16:18:53Z</time>
      </trkpt>
      <trkpt lat="49.44987" lon="1.26629">
        <ele>153</ele>
        <time>2017-03-07T16:18:54Z</time>
      </trkpt>
      <trkpt lat="49.44982" lon="1.2663">
        <ele>153</ele>
        <time>2017-03-07T16:18:54Z</time>
      </trkpt>
      <trkpt lat="49.44977" lon="1.26631">
        <ele>153</ele>
        <time>2017-03-07T16:18:54Z</time>
      </trkpt>
      <trkpt lat="49.44973" lon="1.26631">
        <ele>153</ele>
        <time>2017-03-07T16:19:11Z</time>
      </trkpt>
      <trkpt lat="49.44968" lon="1.26632">
        <ele>153</ele>
        <time>2017-03-07T16:19:11Z</time>
      </trkpt>
      <trkpt lat="49.44962" lon="1.26633">
        <ele>153</ele>
        <time>2017-03-07T16:19:11Z</time>
      </trkpt>
      <trkpt lat="49.44957" lon="1.26633">
        <ele>153</ele>
        <time>2017-03-07T16:19:11Z</time>
      </trkpt>
      <trkpt lat="49.44951" lon="1.26633">
        <ele>153</ele>
        <time>2017-03-07T16:19:27Z</time>
      </trkpt>
      <trkpt lat="49.44946" lon="1.26634">
        <ele>153</ele>
        <time>2017-03-07T16:19:27Z</time>
      </trkpt>
      <trkpt lat="49.44942" lon="1.26635">
        <ele>153</ele>
        <time>2017-03-07T16:19:27Z</time>
      </trkpt>
      <trkpt lat="49.44937" lon="1.26635">
        <ele>153</ele>
        <time>2017-03-07T16:19:27Z</time>
      </trkpt>
      <trkpt lat="49.44933" lon="1.26635">
        <ele>153</ele>
        <time>2017-03-07T16:19:46Z</time>
      </trkpt>
      <trkpt lat="49.44929" lon="1.26635">
        <ele>153</ele>
        <time>2017-03-07T16:19:46Z</time>
      </trkpt>
      <trkpt lat="49.44918" lon="1.26639">
        <ele>153</ele>
        <time>2017-03-07T16:19:46Z</time>
      </trkpt>
      <trkpt lat="49.44914" lon="1.26638">
        <ele>153</ele>
        <time>2017-03-07T16:19:46Z</time>
      </trkpt>
      <trkpt lat="49.44909" lon="1.26641">
        <ele>153</ele>
        <time>2017-03-07T16:20:03Z</time>
      </trkpt>
      <trkpt lat="49.44901" lon="1.26643">
        <ele>153</ele>
        <time>2017-03-07T16:20:03Z</time>
      </trkpt>
      <trkpt lat="49.44896" lon="1.26644">
        <ele>153</ele>
        <time>2017-03-07T16:20:03Z</time>
      </trkpt>
      <trkpt lat="49.44891" lon="1.26645">
        <ele>153</ele>
        <time>2017-03-07T16:20:03Z</time>
      </trkpt>
      <trkpt lat="49.44882" lon="1.26647">
        <ele>153</ele>
        <time>2017-03-07T16:20:22Z</time>
      </trkpt>
      <trkpt lat="49.44876" lon="1.26648">
        <ele>153</ele>
        <time>2017-03-07T16:20:22Z</time>
      </trkpt>
      <trkpt lat="49.44872" lon="1.26649">
        <ele>152</ele>
        <time>2017-03-07T16:20:22Z</time>
      </trkpt>
      <trkpt lat="49.4487" lon="1.26648">
        <ele>152</ele>
        <time>2017-03-07T16:20:22Z</time>
      </trkpt>
      <trkpt lat="49.44864" lon="1.26648">
        <ele>152</ele>
        <time>2017-03-07T16:20:38Z</time>
      </trkpt>
      <trkpt lat="49.44858" lon="1.2665">
        <ele>152</ele>
        <time>2017-03-07T16:20:38Z</time>
      </trkpt>
      <trkpt lat="49.44854" lon="1.26647">
        <ele>152</ele>
        <time>2017-03-07T16:20:38Z</time>
      </trkpt>
      <trkpt lat="49.4485" lon="1.26649">
        <ele>152</ele>
        <time>2017-03-07T16:20:38Z</time>
      </trkpt>
      <trkpt lat="49.44847" lon="1.26649">
        <ele>152</ele>
        <time>2017-03-07T16:20:54Z</time>
      </trkpt>
      <trkpt lat="49.4484" lon="1.26653">
        <ele>152</ele>
        <time>2017-03-07T16:20:54Z</time>
      </trkpt>
      <trkpt lat="49.44835" lon="1.26655">
        <ele>152</ele>
        <time>2017-03-07T16:20:54Z</time>
      </trkpt>
      <trkpt lat="49.44832" lon="1.26652">
        <ele>152</ele>
        <time>2017-03-07T16:20:54Z</time>
      </trkpt>
      <trkpt lat="49.44828" lon="1.26652">
        <ele>152</ele>
        <time>2017-03-07T16:21:09Z</time>
      </trkpt>
      <trkpt lat="49.44823" lon="1.26653">
        <ele>152</ele>
        <time>2017-03-07T16:21:10Z</time>
      </trkpt>
      <trkpt lat="49.44818" lon="1.26654">
        <ele>152</ele>
        <time>2017-03-07T16:21:10Z</time>
      </trkpt>
      <trkpt lat="49.44814" lon="1.26654">
        <ele>152</ele>
        <time>2017-03-07T16:21:10Z</time>
      </trkpt>
      <trkpt lat="49.44796" lon="1.26648">
        <ele>152</ele>
        <time>2017-03-07T16:21:50Z</time>
      </trkpt>
      <trkpt lat="49.44794" lon="1.26648">
        <ele>152</ele>
        <time>2017-03-07T16:21:50Z</time>
      </trkpt>
      <trkpt lat="49.4479" lon="1.26646">
        <ele>151</ele>
        <time>2017-03-07T16:21:50Z</time>
      </trkpt>
      <trkpt lat="49.44784" lon="1.26643">
        <ele>151</ele>
        <time>2017-03-07T16:21:50Z</time>
      </trkpt>
      <trkpt lat="49.44779" lon="1.26641">
        <ele>151</ele>
        <time>2017-03-07T16:21:50Z</time>
      </trkpt>
      <trkpt lat="49.44774" lon="1.2664">
        <ele>151</ele>
        <time>2017-03-07T16:22:06Z</time>
      </trkpt>
      <trkpt lat="49.44772" lon="1.26638">
        <ele>151</ele>
        <time>2017-03-07T16:22:06Z</time>
      </trkpt>
      <trkpt lat="49.44768" lon="1.26637">
        <ele>151</ele>
        <time>2017-03-07T16:22:06Z</time>
      </trkpt>
      <trkpt lat="49.44762" lon="1.26635">
        <ele>151</ele>
        <time>2017-03-07T16:22:07Z</time>
      </trkpt>
      <trkpt lat="49.44758" lon="1.26634">
        <ele>151</ele>
        <time>2017-03-07T16:22:22Z</time>
      </trkpt>
      <trkpt lat="49.44753" lon="1.26631">
        <ele>151</ele>
        <time>2017-03-07T16:22:22Z</time>
      </trkpt>
      <trkpt lat="49.44749" lon="1.26628">
        <ele>151</ele>
        <time>2017-03-07T16:22:22Z</time>
      </trkpt>
      <trkpt lat="49.44746" lon="1.26627">
        <ele>151</ele>
        <time>2017-03-07T16:22:22Z</time>
      </trkpt>
      <trkpt lat="49.44739" lon="1.26625">
        <ele>151</ele>
        <time>2017-03-07T16:22:38Z</time>
      </trkpt>
      <trkpt lat="49.44735" lon="1.26623">
        <ele>153</ele>
        <time>2017-03-07T16:22:38Z</time>
      </trkpt>
      <trkpt lat="49.44731" lon="1.26622">
        <ele>153</ele>
        <time>2017-03-07T16:22:38Z</time>
      </trkpt>
      <trkpt lat="49.44725" lon="1.26621">
        <ele>153</ele>
        <time>2017-03-07T16:22:38Z</time>
      </trkpt>
      <trkpt lat="49.44722" lon="1.26619">
        <ele>153</ele>
        <time>2017-03-07T16:22:54Z</time>
      </trkpt>
      <trkpt lat="49.44716" lon="1.26618">
        <ele>153</ele>
        <time>2017-03-07T16:22:54Z</time>
      </trkpt>
      <trkpt lat="49.4471" lon="1.2662">
        <ele>153</ele>
        <time>2017-03-07T16:22:54Z</time>
      </trkpt>
      <trkpt lat="49.44706" lon="1.26618">
        <ele>150</ele>
        <time>2017-03-07T16:22:54Z</time>
      </trkpt>
      <trkpt lat="49.44704" lon="1.26617">
        <ele>150</ele>
        <time>2017-03-07T16:23:10Z</time>
      </trkpt>
      <trkpt lat="49.44697" lon="1.26616">
        <ele>150</ele>
        <time>2017-03-07T16:23:10Z</time>
      </trkpt>
      <trkpt lat="49.44695" lon="1.26617">
        <ele>150</ele>
        <time>2017-03-07T16:23:10Z</time>
      </trkpt>
      <trkpt lat="49.44691" lon="1.26614">
        <ele>150</ele>
        <time>2017-03-07T16:23:10Z</time>
      </trkpt>
      <trkpt lat="49.44687" lon="1.26614">
        <ele>150</ele>
        <time>2017-03-07T16:23:26Z</time>
      </trkpt>
      <trkpt lat="49.44683" lon="1.26613">
        <ele>150</ele>
        <time>2017-03-07T16:23:27Z</time>
      </trkpt>
      <trkpt lat="49.44677" lon="1.26612">
        <ele>150</ele>
        <time>2017-03-07T16:23:27Z</time>
      </trkpt>
      <trkpt lat="49.44671" lon="1.26613">
        <ele>150</ele>
        <time>2017-03-07T16:23:27Z</time>
      </trkpt>
      <trkpt lat="49.44667" lon="1.26614">
        <ele>150</ele>
        <time>2017-03-07T16:23:42Z</time>
      </trkpt>
      <trkpt lat="49.44662" lon="1.26613">
        <ele>150</ele>
        <time>2017-03-07T16:23:42Z</time>
      </trkpt>
      <trkpt lat="49.44657" lon="1.26613">
        <ele>150</ele>
        <time>2017-03-07T16:23:42Z</time>
      </trkpt>
      <trkpt lat="49.44654" lon="1.26612">
        <ele>150</ele>
        <time>2017-03-07T16:23:42Z</time>
      </trkpt>
      <trkpt lat="49.44648" lon="1.26613">
        <ele>150</ele>
        <time>2017-03-07T16:23:57Z</time>
      </trkpt>
      <trkpt lat="49.44644" lon="1.26615">
        <ele>150</ele>
        <time>2017-03-07T16:23:58Z</time>
      </trkpt>
      <trkpt lat="49.4464" lon="1.26614">
        <ele>150</ele>
        <time>2017-03-07T16:23:58Z</time>
      </trkpt>
      <trkpt lat="49.44635" lon="1.26613">
        <ele>150</ele>
        <time>2017-03-07T16:23:58Z</time>
      </trkpt>
      <trkpt lat="49.4463" lon="1.26612">
        <ele>150</ele>
        <time>2017-03-07T16:24:14Z</time>
      </trkpt>
      <trkpt lat="49.44626" lon="1.26609">
        <ele>150</ele>
        <time>2017-03-07T16:24:14Z</time>
      </trkpt>
      <trkpt lat="49.44621" lon="1.26607">
        <ele>149</ele>
        <time>2017-03-07T16:24:14Z</time>
      </trkpt>
      <trkpt lat="49.44617" lon="1.26607">
        <ele>149</ele>
        <time>2017-03-07T16:24:14Z</time>
      </trkpt>
      <trkpt lat="49.44612" lon="1.26606">
        <ele>149</ele>
        <time>2017-03-07T16:24:29Z</time>
      </trkpt>
      <trkpt lat="49.44608" lon="1.26604">
        <ele>149</ele>
        <time>2017-03-07T16:24:30Z</time>
      </trkpt>
      <trkpt lat="49.44602" lon="1.26602">
        <ele>149</ele>
        <time>2017-03-07T16:24:30Z</time>
      </trkpt>
      <trkpt lat="49.44598" lon="1.266">
        <ele>149</ele>
        <time>2017-03-07T16:24:30Z</time>
      </trkpt>
      <trkpt lat="49.44595" lon="1.26599">
        <ele>149</ele>
        <time>2017-03-07T16:24:46Z</time>
      </trkpt>
      <trkpt lat="49.44589" lon="1.26597">
        <ele>149</ele>
        <time>2017-03-07T16:24:46Z</time>
      </trkpt>
      <trkpt lat="49.44585" lon="1.26595">
        <ele>149</ele>
        <time>2017-03-07T16:24:46Z</time>
      </trkpt>
      <trkpt lat="49.4458" lon="1.2659">
        <ele>149</ele>
        <time>2017-03-07T16:24:46Z</time>
      </trkpt>
      <trkpt lat="49.44577" lon="1.26589">
        <ele>149</ele>
        <time>2017-03-07T16:25:02Z</time>
      </trkpt>
      <trkpt lat="49.44572" lon="1.26588">
        <ele>149</ele>
        <time>2017-03-07T16:25:02Z</time>
      </trkpt>
      <trkpt lat="49.44567" lon="1.26586">
        <ele>149</ele>
        <time>2017-03-07T16:25:02Z</time>
      </trkpt>
      <trkpt lat="49.44562" lon="1.26584">
        <ele>149</ele>
        <time>2017-03-07T16:25:02Z</time>
      </trkpt>
      <trkpt lat="49.44557" lon="1.26581">
        <ele>149</ele>
        <time>2017-03-07T16:25:19Z</time>
      </trkpt>
      <trkpt lat="49.44553" lon="1.26579">
        <ele>149</ele>
        <time>2017-03-07T16:25:19Z</time>
      </trkpt>
      <trkpt lat="49.44548" lon="1.26574">
        <ele>149</ele>
        <time>2017-03-07T16:25:19Z</time>
      </trkpt>
      <trkpt lat="49.44545" lon="1.26572">
        <ele>149</ele>
        <time>2017-03-07T16:25:19Z</time>
      </trkpt>
      <trkpt lat="49.44541" lon="1.26571">
        <ele>151</ele>
        <time>2017-03-07T16:25:35Z</time>
      </trkpt>
      <trkpt lat="49.44535" lon="1.26571">
        <ele>151</ele>
        <time>2017-03-07T16:25:35Z</time>
      </trkpt>
      <trkpt lat="49.44532" lon="1.2657">
        <ele>151</ele>
        <time>2017-03-07T16:25:35Z</time>
      </trkpt>
      <trkpt lat="49.44527" lon="1.26569">
        <ele>151</ele>
        <time>2017-03-07T16:25:35Z</time>
      </trkpt>
      <trkpt lat="49.44523" lon="1.26568">
        <ele>151</ele>
        <time>2017-03-07T16:25:49Z</time>
      </trkpt>
      <trkpt lat="49.44519" lon="1.26567">
        <ele>151</ele>
        <time>2017-03-07T16:25:50Z</time>
      </trkpt>
      <trkpt lat="49.44514" lon="1.26565">
        <ele>151</ele>
        <time>2017-03-07T16:25:50Z</time>
      </trkpt>
      <trkpt lat="49.44507" lon="1.26564">
        <ele>151</ele>
        <time>2017-03-07T16:25:50Z</time>
      </trkpt>
      <trkpt lat="49.44502" lon="1.26563">
        <ele>151</ele>
        <time>2017-03-07T16:26:06Z</time>
      </trkpt>
      <trkpt lat="49.44497" lon="1.26561">
        <ele>151</ele>
        <time>2017-03-07T16:26:06Z</time>
      </trkpt>
      <trkpt lat="49.44493" lon="1.26562">
        <ele>151</ele>
        <time>2017-03-07T16:26:06Z</time>
      </trkpt>
      <trkpt lat="49.44489" lon="1.26561">
        <ele>151</ele>
        <time>2017-03-07T16:26:06Z</time>
      </trkpt>
      <trkpt lat="49.44484" lon="1.2656">
        <ele>151</ele>
        <time>2017-03-07T16:26:23Z</time>
      </trkpt>
      <trkpt lat="49.44479" lon="1.26558">
        <ele>151</ele>
        <time>2017-03-07T16:26:23Z</time>
      </trkpt>
      <trkpt lat="49.44475" lon="1.26559">
        <ele>151</ele>
        <time>2017-03-07T16:26:23Z</time>
      </trkpt>
      <trkpt lat="49.44469" lon="1.26561">
        <ele>151</ele>
        <time>2017-03-07T16:26:23Z</time>
      </trkpt>
      <trkpt lat="49.4446" lon="1.26559">
        <ele>151</ele>
        <time>2017-03-07T16:26:41Z</time>
      </trkpt>
      <trkpt lat="49.44454" lon="1.26557">
        <ele>147</ele>
        <time>2017-03-07T16:26:42Z</time>
      </trkpt>
      <trkpt lat="49.4445" lon="1.26557">
        <ele>147</ele>
        <time>2017-03-07T16:26:42Z</time>
      </trkpt>
      <trkpt lat="49.44445" lon="1.26556">
        <ele>147</ele>
        <time>2017-03-07T16:26:42Z</time>
      </trkpt>
      <trkpt lat="49.44442" lon="1.26555">
        <ele>147</ele>
        <time>2017-03-07T16:26:58Z</time>
      </trkpt>
      <trkpt lat="49.44437" lon="1.26556">
        <ele>147</ele>
        <time>2017-03-07T16:26:59Z</time>
      </trkpt>
      <trkpt lat="49.44431" lon="1.26556">
        <ele>147</ele>
        <time>2017-03-07T16:26:59Z</time>
      </trkpt>
      <trkpt lat="49.44426" lon="1.26557">
        <ele>147</ele>
        <time>2017-03-07T16:26:59Z</time>
      </trkpt>
      <trkpt lat="49.44425" lon="1.26557">
        <ele>147</ele>
        <time>2017-03-07T16:27:14Z</time>
      </trkpt>
      <trkpt lat="49.44416" lon="1.26558">
        <ele>147</ele>
        <time>2017-03-07T16:27:14Z</time>
      </trkpt>
      <trkpt lat="49.44411" lon="1.26558">
        <ele>147</ele>
        <time>2017-03-07T16:27:14Z</time>
      </trkpt>
      <trkpt lat="49.44408" lon="1.26559">
        <ele>147</ele>
        <time>2017-03-07T16:27:14Z</time>
      </trkpt>
      <trkpt lat="49.44402" lon="1.26559">
        <ele>147</ele>
        <time>2017-03-07T16:27:30Z</time>
      </trkpt>
      <trkpt lat="49.44397" lon="1.2656">
        <ele>147</ele>
        <time>2017-03-07T16:27:30Z</time>
      </trkpt>
      <trkpt lat="49.44394" lon="1.2656">
        <ele>147</ele>
        <time>2017-03-07T16:27:30Z</time>
      </trkpt>
      <trkpt lat="49.44389" lon="1.26561">
        <ele>147</ele>
        <time>2017-03-07T16:27:30Z</time>
      </trkpt>
      <trkpt lat="49.44383" lon="1.26562">
        <ele>147</ele>
        <time>2017-03-07T16:27:46Z</time>
      </trkpt>
      <trkpt lat="49.44379" lon="1.26563">
        <ele>147</ele>
        <time>2017-03-07T16:27:46Z</time>
      </trkpt>
      <trkpt lat="49.44374" lon="1.26564">
        <ele>148</ele>
        <time>2017-03-07T16:27:46Z</time>
      </trkpt>
      <trkpt lat="49.44369" lon="1.26565">
        <ele>148</ele>
        <time>2017-03-07T16:27:47Z</time>
      </trkpt>
      <trkpt lat="49.44365" lon="1.26567">
        <ele>148</ele>
        <time>2017-03-07T16:28:02Z</time>
      </trkpt>
      <trkpt lat="49.4436" lon="1.26568">
        <ele>148</ele>
        <time>2017-03-07T16:28:02Z</time>
      </trkpt>
      <trkpt lat="49.44356" lon="1.26568">
        <ele>148</ele>
        <time>2017-03-07T16:28:02Z</time>
      </trkpt>
      <trkpt lat="49.44353" lon="1.26567">
        <ele>148</ele>
        <time>2017-03-07T16:28:02Z</time>
      </trkpt>
      <trkpt lat="49.44344" lon="1.2657">
        <ele>148</ele>
        <time>2017-03-07T16:28:23Z</time>
      </trkpt>
      <trkpt lat="49.4434" lon="1.26572">
        <ele>148</ele>
        <time>2017-03-07T16:28:23Z</time>
      </trkpt>
      <trkpt lat="49.44335" lon="1.26571">
        <ele>148</ele>
        <time>2017-03-07T16:28:23Z</time>
      </trkpt>
      <trkpt lat="49.4433" lon="1.26571">
        <ele>148</ele>
        <time>2017-03-07T16:28:23Z</time>
      </trkpt>
      <trkpt lat="49.44326" lon="1.26572">
        <ele>148</ele>
        <time>2017-03-07T16:28:38Z</time>
      </trkpt>
      <trkpt lat="49.44322" lon="1.26573">
        <ele>148</ele>
        <time>2017-03-07T16:28:38Z</time>
      </trkpt>
      <trkpt lat="49.44317" lon="1.26576">
        <ele>148</ele>
        <time>2017-03-07T16:28:38Z</time>
      </trkpt>
      <trkpt lat="49.44314" lon="1.26574">
        <ele>148</ele>
        <time>2017-03-07T16:28:38Z</time>
      </trkpt>
      <trkpt lat="49.44309" lon="1.26574">
        <ele>148</ele>
        <time>2017-03-07T16:28:55Z</time>
      </trkpt>
      <trkpt lat="49.44304" lon="1.26575">
        <ele>148</ele>
        <time>2017-03-07T16:28:55Z</time>
      </trkpt>
      <trkpt lat="49.44301" lon="1.26575">
        <ele>148</ele>
        <time>2017-03-07T16:28:55Z</time>
      </trkpt>
      <trkpt lat="49.44294" lon="1.26576">
        <ele>148</ele>
        <time>2017-03-07T16:28:55Z</time>
      </trkpt>
      <trkpt lat="49.4429" lon="1.2658">
        <ele>152</ele>
        <time>2017-03-07T16:29:11Z</time>
      </trkpt>
      <trkpt lat="49.44284" lon="1.26583">
        <ele>152</ele>
        <time>2017-03-07T16:29:11Z</time>
      </trkpt>
      <trkpt lat="49.44281" lon="1.26586">
        <ele>152</ele>
        <time>2017-03-07T16:29:11Z</time>
      </trkpt>
      <trkpt lat="49.44275" lon="1.26589">
        <ele>152</ele>
        <time>2017-03-07T16:29:11Z</time>
      </trkpt>
      <trkpt lat="49.44267" lon="1.26592">
        <ele>152</ele>
        <time>2017-03-07T16:29:30Z</time>
      </trkpt>
      <trkpt lat="49.44266" lon="1.26593">
        <ele>152</ele>
        <time>2017-03-07T16:29:30Z</time>
      </trkpt>
      <trkpt lat="49.44262" lon="1.26595">
        <ele>152</ele>
        <time>2017-03-07T16:29:30Z</time>
      </trkpt>
      <trkpt lat="49.44256" lon="1.26597">
        <ele>152</ele>
        <time>2017-03-07T16:29:30Z</time>
      </trkpt>
      <trkpt lat="49.44251" lon="1.266">
        <ele>152</ele>
        <time>2017-03-07T16:29:46Z</time>
      </trkpt>
      <trkpt lat="49.44247" lon="1.26602">
        <ele>152</ele>
        <time>2017-03-07T16:29:46Z</time>
      </trkpt>
      <trkpt lat="49.44242" lon="1.26603">
        <ele>152</ele>
        <time>2017-03-07T16:29:46Z</time>
      </trkpt>
      <trkpt lat="49.44238" lon="1.26606">
        <ele>152</ele>
        <time>2017-03-07T16:29:46Z</time>
      </trkpt>
      <trkpt lat="49.44233" lon="1.26608">
        <ele>152</ele>
        <time>2017-03-07T16:30:03Z</time>
      </trkpt>
      <trkpt lat="49.44229" lon="1.26608">
        <ele>152</ele>
        <time>2017-03-07T16:30:03Z</time>
      </trkpt>
      <trkpt lat="49.44225" lon="1.26611">
        <ele>152</ele>
        <time>2017-03-07T16:30:03Z</time>
      </trkpt>
      <trkpt lat="49.44222" lon="1.26612">
        <ele>152</ele>
        <time>2017-03-07T16:30:03Z</time>
      </trkpt>
      <trkpt lat="49.44217" lon="1.26614">
        <ele>152</ele>
        <time>2017-03-07T16:30:19Z</time>
      </trkpt>
      <trkpt lat="49.44212" lon="1.26615">
        <ele>152</ele>
        <time>2017-03-07T16:30:19Z</time>
      </trkpt>
      <trkpt lat="49.44206" lon="1.26617">
        <ele>154</ele>
        <time>2017-03-07T16:30:19Z</time>
      </trkpt>
      <trkpt lat="49.44202" lon="1.26617">
        <ele>154</ele>
        <time>2017-03-07T16:30:19Z</time>
      </trkpt>
      <trkpt lat="49.44199" lon="1.26619">
        <ele>154</ele>
        <time>2017-03-07T16:30:34Z</time>
      </trkpt>
      <trkpt lat="49.44193" lon="1.26619">
        <ele>154</ele>
        <time>2017-03-07T16:30:34Z</time>
      </trkpt>
      <trkpt lat="49.44189" lon="1.26621">
        <ele>154</ele>
        <time>2017-03-07T16:30:34Z</time>
      </trkpt>
      <trkpt lat="49.44185" lon="1.26623">
        <ele>154</ele>
        <time>2017-03-07T16:30:34Z</time>
      </trkpt>
      <trkpt lat="49.4418" lon="1.26625">
        <ele>154</ele>
        <time>2017-03-07T16:30:50Z</time>
      </trkpt>
      <trkpt lat="49.44173" lon="1.26628">
        <ele>154</ele>
        <time>2017-03-07T16:30:50Z</time>
      </trkpt>
      <trkpt lat="49.44168" lon="1.26631">
        <ele>154</ele>
        <time>2017-03-07T16:30:50Z</time>
      </trkpt>
      <trkpt lat="49.44164" lon="1.26634">
        <ele>154</ele>
        <time>2017-03-07T16:30:50Z</time>
      </trkpt>
      <trkpt lat="49.4416" lon="1.26634">
        <ele>154</ele>
        <time>2017-03-07T16:31:06Z</time>
      </trkpt>
      <trkpt lat="49.44155" lon="1.26636">
        <ele>154</ele>
        <time>2017-03-07T16:31:06Z</time>
      </trkpt>
      <trkpt lat="49.44153" lon="1.26636">
        <ele>154</ele>
        <time>2017-03-07T16:31:06Z</time>
      </trkpt>
      <trkpt lat="49.44148" lon="1.26639">
        <ele>154</ele>
        <time>2017-03-07T16:31:06Z</time>
      </trkpt>
      <trkpt lat="49.44147" lon="1.26638">
        <ele>154</ele>
        <time>2017-03-07T16:31:25Z</time>
      </trkpt>
      <trkpt lat="49.44144" lon="1.26639">
        <ele>154</ele>
        <time>2017-03-07T16:31:26Z</time>
      </trkpt>
      <trkpt lat="49.44138" lon="1.26643">
        <ele>154</ele>
        <time>2017-03-07T16:31:26Z</time>
      </trkpt>
      <trkpt lat="49.44137" lon="1.26644">
        <ele>154</ele>
        <time>2017-03-07T16:31:26Z</time>
      </trkpt>
      <trkpt lat="49.44133" lon="1.26645">
        <ele>154</ele>
        <time>2017-03-07T16:31:43Z</time>
      </trkpt>
      <trkpt lat="49.4413" lon="1.26646">
        <ele>154</ele>
        <time>2017-03-07T16:31:43Z</time>
      </trkpt>
      <trkpt lat="49.44126" lon="1.26646">
        <ele>154</ele>
        <time>2017-03-07T16:31:43Z</time>
      </trkpt>
      <trkpt lat="49.44119" lon="1.26649">
        <ele>155</ele>
        <time>2017-03-07T16:31:43Z</time>
      </trkpt>
      <trkpt lat="49.44107" lon="1.26655">
        <ele>155</ele>
        <time>2017-03-07T16:32:57Z</time>
      </trkpt>
      <trkpt lat="49.44103" lon="1.26655">
        <ele>155</ele>
        <time>2017-03-07T16:32:58Z</time>
      </trkpt>
      <trkpt lat="49.44098" lon="1.26656">
        <ele>155</ele>
        <time>2017-03-07T16:32:58Z</time>
      </trkpt>
      <trkpt lat="49.44093" lon="1.26656">
        <ele>155</ele>
        <time>2017-03-07T16:32:58Z</time>
      </trkpt>
      <trkpt lat="49.44088" lon="1.26657">
        <ele>155</ele>
        <time>2017-03-07T16:32:58Z</time>
      </trkpt>
      <trkpt lat="49.44085" lon="1.26659">
        <ele>155</ele>
        <time>2017-03-07T16:33:15Z</time>
      </trkpt>
      <trkpt lat="49.4408" lon="1.26662">
        <ele>155</ele>
        <time>2017-03-07T16:33:15Z</time>
      </trkpt>
      <trkpt lat="49.44078" lon="1.26662">
        <ele>155</ele>
        <time>2017-03-07T16:33:15Z</time>
      </trkpt>
      <trkpt lat="49.44072" lon="1.26662">
        <ele>155</ele>
        <time>2017-03-07T16:33:15Z</time>
      </trkpt>
      <trkpt lat="49.44065" lon="1.26673">
        <ele>155</ele>
        <time>2017-03-07T16:35:06Z</time>
      </trkpt>
      <trkpt lat="49.44062" lon="1.26673">
        <ele>155</ele>
        <time>2017-03-07T16:35:06Z</time>
      </trkpt>
      <trkpt lat="49.4406" lon="1.26677">
        <ele>155</ele>
        <time>2017-03-07T16:35:06Z</time>
      </trkpt>
      <trkpt lat="49.4406" lon="1.26676">
        <ele>155</ele>
        <time>2017-03-07T16:35:06Z</time>
      </trkpt>
      <trkpt lat="49.44058" lon="1.26678">
        <ele>155</ele>
        <time>2017-03-07T16:35:06Z</time>
      </trkpt>
      <trkpt lat="49.44058" lon="1.2668">
        <ele>155</ele>
        <time>2017-03-07T16:35:26Z</time>
      </trkpt>
      <trkpt lat="49.44058" lon="1.26683">
        <ele>155</ele>
        <time>2017-03-07T16:35:26Z</time>
      </trkpt>
      <trkpt lat="49.44056" lon="1.26687">
        <ele>155</ele>
        <time>2017-03-07T16:35:26Z</time>
      </trkpt>
      <trkpt lat="49.44055" lon="1.2669">
        <ele>155</ele>
        <time>2017-03-07T16:35:26Z</time>
      </trkpt>
      <trkpt lat="49.44053" lon="1.26698">
        <ele>155</ele>
        <time>2017-03-07T16:35:26Z</time>
      </trkpt>
      <trkpt lat="49.4405" lon="1.26709">
        <ele>154</ele>
        <time>2017-03-07T16:35:43Z</time>
      </trkpt>
      <trkpt lat="49.44048" lon="1.26716">
        <ele>154</ele>
        <time>2017-03-07T16:35:43Z</time>
      </trkpt>
      <trkpt lat="49.44046" lon="1.26722">
        <ele>154</ele>
        <time>2017-03-07T16:35:43Z</time>
      </trkpt>
      <trkpt lat="49.44044" lon="1.26731">
        <ele>154</ele>
        <time>2017-03-07T16:35:43Z</time>
      </trkpt>
      <trkpt lat="49.44043" lon="1.26737">
        <ele>154</ele>
        <time>2017-03-07T16:35:58Z</time>
      </trkpt>
      <trkpt lat="49.44041" lon="1.26741">
        <ele>156</ele>
        <time>2017-03-07T16:35:58Z</time>
      </trkpt>
      <trkpt lat="49.44039" lon="1.26747">
        <ele>156</ele>
        <time>2017-03-07T16:35:58Z</time>
      </trkpt>
      <trkpt lat="49.44036" lon="1.26756">
        <ele>156</ele>
        <time>2017-03-07T16:35:58Z</time>
      </trkpt>
      <trkpt lat="49.44037" lon="1.26759">
        <ele>156</ele>
        <time>2017-03-07T16:36:13Z</time>
      </trkpt>
      <trkpt lat="49.44034" lon="1.26767">
        <ele>156</ele>
        <time>2017-03-07T16:36:14Z</time>
      </trkpt>
      <trkpt lat="49.44031" lon="1.26773">
        <ele>156</ele>
        <time>2017-03-07T16:36:14Z</time>
      </trkpt>
      <trkpt lat="49.44029" lon="1.2678">
        <ele>156</ele>
        <time>2017-03-07T16:36:14Z</time>
      </trkpt>
      <trkpt lat="49.44025" lon="1.26786">
        <ele>156</ele>
        <time>2017-03-07T16:36:31Z</time>
      </trkpt>
      <trkpt lat="49.4402" lon="1.26791">
        <ele>156</ele>
        <time>2017-03-07T16:36:31Z</time>
      </trkpt>
      <trkpt lat="49.44015" lon="1.26792">
        <ele>156</ele>
        <time>2017-03-07T16:36:31Z</time>
      </trkpt>
      <trkpt lat="49.44011" lon="1.26788">
        <ele>156</ele>
        <time>2017-03-07T16:36:31Z</time>
      </trkpt>
      <trkpt lat="49.44009" lon="1.26791">
        <ele>156</ele>
        <time>2017-03-07T16:36:46Z</time>
      </trkpt>
      <trkpt lat="49.44006" lon="1.26793">
        <ele>156</ele>
        <time>2017-03-07T16:36:47Z</time>
      </trkpt>
      <trkpt lat="49.44" lon="1.26796">
        <ele>156</ele>
        <time>2017-03-07T16:36:47Z</time>
      </trkpt>
      <trkpt lat="49.43997" lon="1.26794">
        <ele>156</ele>
        <time>2017-03-07T16:36:47Z</time>
      </trkpt>
      <trkpt lat="49.43994" lon="1.26792">
        <ele>156</ele>
        <time>2017-03-07T16:37:02Z</time>
      </trkpt>
      <trkpt lat="49.43987" lon="1.26793">
        <ele>156</ele>
        <time>2017-03-07T16:37:02Z</time>
      </trkpt>
      <trkpt lat="49.43983" lon="1.26796">
        <ele>156</ele>
        <time>2017-03-07T16:37:02Z</time>
      </trkpt>
      <trkpt lat="49.43978" lon="1.26796">
        <ele>156</ele>
        <time>2017-03-07T16:37:02Z</time>
      </trkpt>
      <trkpt lat="49.43973" lon="1.26798">
        <ele>156</ele>
        <time>2017-03-07T16:37:17Z</time>
      </trkpt>
      <trkpt lat="49.43969" lon="1.26798">
        <ele>156</ele>
        <time>2017-03-07T16:37:18Z</time>
      </trkpt>
      <trkpt lat="49.43964" lon="1.26798">
        <ele>156</ele>
        <time>2017-03-07T16:37:18Z</time>
      </trkpt>
      <trkpt lat="49.43959" lon="1.26799">
        <ele>156</ele>
        <time>2017-03-07T16:37:18Z</time>
      </trkpt>
      <trkpt lat="49.43954" lon="1.268">
        <ele>154</ele>
        <time>2017-03-07T16:37:35Z</time>
      </trkpt>
      <trkpt lat="49.4395" lon="1.268">
        <ele>154</ele>
        <time>2017-03-07T16:37:35Z</time>
      </trkpt>
      <trkpt lat="49.43944" lon="1.26802">
        <ele>154</ele>
        <time>2017-03-07T16:37:35Z</time>
      </trkpt>
      <trkpt lat="49.43939" lon="1.26802">
        <ele>154</ele>
        <time>2017-03-07T16:37:35Z</time>
      </trkpt>
      <trkpt lat="49.43926" lon="1.26805">
        <ele>154</ele>
        <time>2017-03-07T16:37:58Z</time>
      </trkpt>
      <trkpt lat="49.43921" lon="1.26807">
        <ele>154</ele>
        <time>2017-03-07T16:37:58Z</time>
      </trkpt>
      <trkpt lat="49.43916" lon="1.26807">
        <ele>154</ele>
        <time>2017-03-07T16:37:58Z</time>
      </trkpt>
      <trkpt lat="49.43913" lon="1.26808">
        <ele>154</ele>
        <time>2017-03-07T16:37:58Z</time>
      </trkpt>
      <trkpt lat="49.43909" lon="1.26808">
        <ele>154</ele>
        <time>2017-03-07T16:38:54Z</time>
      </trkpt>
      <trkpt lat="49.43908" lon="1.26809">
        <ele>154</ele>
        <time>2017-03-07T16:38:54Z</time>
      </trkpt>
      <trkpt lat="49.43905" lon="1.26811">
        <ele>154</ele>
        <time>2017-03-07T16:38:54Z</time>
      </trkpt>
      <trkpt lat="49.43901" lon="1.26812">
        <ele>154</ele>
        <time>2017-03-07T16:38:54Z</time>
      </trkpt>
      <trkpt lat="49.43896" lon="1.26812">
        <ele>154</ele>
        <time>2017-03-07T16:38:54Z</time>
      </trkpt>
      <trkpt lat="49.43892" lon="1.26814">
        <ele>154</ele>
        <time>2017-03-07T16:39:09Z</time>
      </trkpt>
      <trkpt lat="49.43887" lon="1.26814">
        <ele>154</ele>
        <time>2017-03-07T16:39:10Z</time>
      </trkpt>
      <trkpt lat="49.43883" lon="1.26815">
        <ele>154</ele>
        <time>2017-03-07T16:39:10Z</time>
      </trkpt>
      <trkpt lat="49.43878" lon="1.26813">
        <ele>154</ele>
        <time>2017-03-07T16:39:10Z</time>
      </trkpt>
      <trkpt lat="49.43873" lon="1.26814">
        <ele>154</ele>
        <time>2017-03-07T16:39:27Z</time>
      </trkpt>
      <trkpt lat="49.43871" lon="1.26819">
        <ele>154</ele>
        <time>2017-03-07T16:39:27Z</time>
      </trkpt>
      <trkpt lat="49.4387" lon="1.26822">
        <ele>154</ele>
        <time>2017-03-07T16:39:27Z</time>
      </trkpt>
      <trkpt lat="49.43864" lon="1.26824">
        <ele>154</ele>
        <time>2017-03-07T16:39:27Z</time>
      </trkpt>
      <trkpt lat="49.43842" lon="1.2683">
        <ele>154</ele>
        <time>2017-03-07T16:39:58Z</time>
      </trkpt>
      <trkpt lat="49.43838" lon="1.26829">
        <ele>154</ele>
        <time>2017-03-07T16:39:58Z</time>
      </trkpt>
      <trkpt lat="49.43834" lon="1.26832">
        <ele>154</ele>
        <time>2017-03-07T16:39:58Z</time>
      </trkpt>
      <trkpt lat="49.43827" lon="1.26835">
        <ele>154</ele>
        <time>2017-03-07T16:39:58Z</time>
      </trkpt>
      <trkpt lat="49.43823" lon="1.26837">
        <ele>154</ele>
        <time>2017-03-07T16:40:14Z</time>
      </trkpt>
      <trkpt lat="49.43819" lon="1.26837">
        <ele>154</ele>
        <time>2017-03-07T16:40:14Z</time>
      </trkpt>
      <trkpt lat="49.43815" lon="1.26838">
        <ele>154</ele>
        <time>2017-03-07T16:40:14Z</time>
      </trkpt>
      <trkpt lat="49.43812" lon="1.2684">
        <ele>154</ele>
        <time>2017-03-07T16:40:14Z</time>
      </trkpt>
      <trkpt lat="49.43807" lon="1.26841">
        <ele>154</ele>
        <time>2017-03-07T16:40:31Z</time>
      </trkpt>
      <trkpt lat="49.43802" lon="1.26843">
        <ele>154</ele>
        <time>2017-03-07T16:40:31Z</time>
      </trkpt>
      <trkpt lat="49.43797" lon="1.26844">
        <ele>154</ele>
        <time>2017-03-07T16:40:31Z</time>
      </trkpt>
      <trkpt lat="49.43793" lon="1.26845">
        <ele>154</ele>
        <time>2017-03-07T16:40:31Z</time>
      </trkpt>
      <trkpt lat="49.43788" lon="1.26846">
        <ele>154</ele>
        <time>2017-03-07T16:40:47Z</time>
      </trkpt>
      <trkpt lat="49.43782" lon="1.26848">
        <ele>154</ele>
        <time>2017-03-07T16:40:47Z</time>
      </trkpt>
      <trkpt lat="49.43777" lon="1.26851">
        <ele>154</ele>
        <time>2017-03-07T16:40:47Z</time>
      </trkpt>
      <trkpt lat="49.43772" lon="1.26853">
        <ele>154</ele>
        <time>2017-03-07T16:40:47Z</time>
      </trkpt>
      <trkpt lat="49.43767" lon="1.26854">
        <ele>154</ele>
        <time>2017-03-07T16:41:02Z</time>
      </trkpt>
      <trkpt lat="49.43763" lon="1.26857">
        <ele>154</ele>
        <time>2017-03-07T16:41:02Z</time>
      </trkpt>
      <trkpt lat="49.43759" lon="1.26857">
        <ele>154</ele>
        <time>2017-03-07T16:41:02Z</time>
      </trkpt>
      <trkpt lat="49.43754" lon="1.26859">
        <ele>154</ele>
        <time>2017-03-07T16:41:02Z</time>
      </trkpt>
      <trkpt lat="49.43749" lon="1.26858">
        <ele>154</ele>
        <time>2017-03-07T16:41:18Z</time>
      </trkpt>
      <trkpt lat="49.43745" lon="1.26858">
        <ele>154</ele>
        <time>2017-03-07T16:41:18Z</time>
      </trkpt>
      <trkpt lat="49.43741" lon="1.2686">
        <ele>154</ele>
        <time>2017-03-07T16:41:18Z</time>
      </trkpt>
      <trkpt lat="49.43736" lon="1.2686">
        <ele>154</ele>
        <time>2017-03-07T16:41:18Z</time>
      </trkpt>
      <trkpt lat="49.43731" lon="1.26861">
        <ele>154</ele>
        <time>2017-03-07T16:41:35Z</time>
      </trkpt>
      <trkpt lat="49.43726" lon="1.26863">
        <ele>154</ele>
        <time>2017-03-07T16:41:35Z</time>
      </trkpt>
      <trkpt lat="49.43721" lon="1.26865">
        <ele>154</ele>
        <time>2017-03-07T16:41:35Z</time>
      </trkpt>
      <trkpt lat="49.43716" lon="1.26867">
        <ele>154</ele>
        <time>2017-03-07T16:41:35Z</time>
      </trkpt>
      <trkpt lat="49.43713" lon="1.26865">
        <ele>154</ele>
        <time>2017-03-07T16:41:49Z</time>
      </trkpt>
      <trkpt lat="49.43708" lon="1.26866">
        <ele>154</ele>
        <time>2017-03-07T16:41:50Z</time>
      </trkpt>
      <trkpt lat="49.43703" lon="1.26867">
        <ele>154</ele>
        <time>2017-03-07T16:41:50Z</time>
      </trkpt>
      <trkpt lat="49.43698" lon="1.26869">
        <ele>154</ele>
        <time>2017-03-07T16:41:50Z</time>
      </trkpt>
      <trkpt lat="49.43685" lon="1.26872">
        <ele>154</ele>
        <time>2017-03-07T16:42:14Z</time>
      </trkpt>
      <trkpt lat="49.4368" lon="1.26872">
        <ele>154</ele>
        <time>2017-03-07T16:42:14Z</time>
      </trkpt>
      <trkpt lat="49.43675" lon="1.26874">
        <ele>154</ele>
        <time>2017-03-07T16:42:14Z</time>
      </trkpt>
      <trkpt lat="49.4367" lon="1.26875">
        <ele>154</ele>
        <time>2017-03-07T16:42:14Z</time>
      </trkpt>
      <trkpt lat="49.43666" lon="1.26876">
        <ele>154</ele>
        <time>2017-03-07T16:42:30Z</time>
      </trkpt>
      <trkpt lat="49.43662" lon="1.26878">
        <ele>154</ele>
        <time>2017-03-07T16:42:30Z</time>
      </trkpt>
      <trkpt lat="49.43655" lon="1.26879">
        <ele>154</ele>
        <time>2017-03-07T16:42:30Z</time>
      </trkpt>
      <trkpt lat="49.43652" lon="1.2688">
        <ele>154</ele>
        <time>2017-03-07T16:42:30Z</time>
      </trkpt>
      <trkpt lat="49.43646" lon="1.26881">
        <ele>154</ele>
        <time>2017-03-07T16:42:46Z</time>
      </trkpt>
      <trkpt lat="49.43642" lon="1.26883">
        <ele>154</ele>
        <time>2017-03-07T16:42:46Z</time>
      </trkpt>
      <trkpt lat="49.43637" lon="1.26884">
        <ele>154</ele>
        <time>2017-03-07T16:42:46Z</time>
      </trkpt>
      <trkpt lat="49.43634" lon="1.26885">
        <ele>154</ele>
        <time>2017-03-07T16:42:46Z</time>
      </trkpt>
      <trkpt lat="49.4363" lon="1.26887">
        <ele>154</ele>
        <time>2017-03-07T16:43:02Z</time>
      </trkpt>
      <trkpt lat="49.43625" lon="1.26888">
        <ele>154</ele>
        <time>2017-03-07T16:43:02Z</time>
      </trkpt>
      <trkpt lat="49.43619" lon="1.26888">
        <ele>153</ele>
        <time>2017-03-07T16:43:02Z</time>
      </trkpt>
      <trkpt lat="49.43614" lon="1.26891">
        <ele>153</ele>
        <time>2017-03-07T16:43:02Z</time>
      </trkpt>
      <trkpt lat="49.43609" lon="1.26892">
        <ele>153</ele>
        <time>2017-03-07T16:43:17Z</time>
      </trkpt>
      <trkpt lat="49.43602" lon="1.26894">
        <ele>153</ele>
        <time>2017-03-07T16:43:18Z</time>
      </trkpt>
      <trkpt lat="49.436" lon="1.26895">
        <ele>153</ele>
        <time>2017-03-07T16:43:18Z</time>
      </trkpt>
      <trkpt lat="49.43595" lon="1.26897">
        <ele>153</ele>
        <time>2017-03-07T16:43:18Z</time>
      </trkpt>
      <trkpt lat="49.43593" lon="1.26897">
        <ele>153</ele>
        <time>2017-03-07T16:43:35Z</time>
      </trkpt>
      <trkpt lat="49.43585" lon="1.269">
        <ele>153</ele>
        <time>2017-03-07T16:43:35Z</time>
      </trkpt>
      <trkpt lat="49.43582" lon="1.26901">
        <ele>153</ele>
        <time>2017-03-07T16:43:35Z</time>
      </trkpt>
      <trkpt lat="49.43576" lon="1.26904">
        <ele>153</ele>
        <time>2017-03-07T16:43:35Z</time>
      </trkpt>
      <trkpt lat="49.43564" lon="1.26907">
        <ele>153</ele>
        <time>2017-03-07T16:43:58Z</time>
      </trkpt>
      <trkpt lat="49.43559" lon="1.26905">
        <ele>153</ele>
        <time>2017-03-07T16:43:58Z</time>
      </trkpt>
      <trkpt lat="49.43554" lon="1.26908">
        <ele>153</ele>
        <time>2017-03-07T16:43:58Z</time>
      </trkpt>
      <trkpt lat="49.43548" lon="1.26909">
        <ele>153</ele>
        <time>2017-03-07T16:43:58Z</time>
      </trkpt>
      <trkpt lat="49.43545" lon="1.26913">
        <ele>153</ele>
        <time>2017-03-07T16:44:14Z</time>
      </trkpt>
      <trkpt lat="49.43542" lon="1.26914">
        <ele>152</ele>
        <time>2017-03-07T16:44:14Z</time>
      </trkpt>
      <trkpt lat="49.43536" lon="1.26914">
        <ele>152</ele>
        <time>2017-03-07T16:44:14Z</time>
      </trkpt>
      <trkpt lat="49.43529" lon="1.26918">
        <ele>152</ele>
        <time>2017-03-07T16:44:14Z</time>
      </trkpt>
      <trkpt lat="49.43525" lon="1.2692">
        <ele>152</ele>
        <time>2017-03-07T16:44:30Z</time>
      </trkpt>
      <trkpt lat="49.4352" lon="1.26922">
        <ele>152</ele>
        <time>2017-03-07T16:44:30Z</time>
      </trkpt>
      <trkpt lat="49.43516" lon="1.26924">
        <ele>152</ele>
        <time>2017-03-07T16:44:30Z</time>
      </trkpt>
      <trkpt lat="49.43511" lon="1.26926">
        <ele>152</ele>
        <time>2017-03-07T16:44:30Z</time>
      </trkpt>
      <trkpt lat="49.43507" lon="1.26927">
        <ele>152</ele>
        <time>2017-03-07T16:44:46Z</time>
      </trkpt>
      <trkpt lat="49.43501" lon="1.26929">
        <ele>152</ele>
        <time>2017-03-07T16:44:46Z</time>
      </trkpt>
      <trkpt lat="49.43496" lon="1.2693">
        <ele>152</ele>
        <time>2017-03-07T16:44:46Z</time>
      </trkpt>
      <trkpt lat="49.43492" lon="1.26931">
        <ele>152</ele>
        <time>2017-03-07T16:44:46Z</time>
      </trkpt>
      <trkpt lat="49.43487" lon="1.26935">
        <ele>152</ele>
        <time>2017-03-07T16:45:03Z</time>
      </trkpt>
      <trkpt lat="49.43484" lon="1.26937">
        <ele>152</ele>
        <time>2017-03-07T16:45:03Z</time>
      </trkpt>
      <trkpt lat="49.4348" lon="1.26937">
        <ele>152</ele>
        <time>2017-03-07T16:45:03Z</time>
      </trkpt>
      <trkpt lat="49.43473" lon="1.2694">
        <ele>152</ele>
        <time>2017-03-07T16:45:03Z</time>
      </trkpt>
      <trkpt lat="49.43469" lon="1.26941">
        <ele>152</ele>
        <time>2017-03-07T16:45:17Z</time>
      </trkpt>
      <trkpt lat="49.43463" lon="1.26943">
        <ele>152</ele>
        <time>2017-03-07T16:45:17Z</time>
      </trkpt>
      <trkpt lat="49.43458" lon="1.26944">
        <ele>150</ele>
        <time>2017-03-07T16:45:18Z</time>
      </trkpt>
      <trkpt lat="49.43454" lon="1.26944">
        <ele>150</ele>
        <time>2017-03-07T16:45:18Z</time>
      </trkpt>
      <trkpt lat="49.43449" lon="1.26944">
        <ele>150</ele>
        <time>2017-03-07T16:45:33Z</time>
      </trkpt>
      <trkpt lat="49.43447" lon="1.26946">
        <ele>150</ele>
        <time>2017-03-07T16:45:34Z</time>
      </trkpt>
      <trkpt lat="49.4344" lon="1.26946">
        <ele>150</ele>
        <time>2017-03-07T16:45:34Z</time>
      </trkpt>
      <trkpt lat="49.43436" lon="1.26946">
        <ele>150</ele>
        <time>2017-03-07T16:45:34Z</time>
      </trkpt>
      <trkpt lat="49.43432" lon="1.26947">
        <ele>150</ele>
        <time>2017-03-07T16:45:49Z</time>
      </trkpt>
      <trkpt lat="49.43426" lon="1.26948">
        <ele>150</ele>
        <time>2017-03-07T16:45:50Z</time>
      </trkpt>
      <trkpt lat="49.43423" lon="1.26947">
        <ele>150</ele>
        <time>2017-03-07T16:45:50Z</time>
      </trkpt>
      <trkpt lat="49.43418" lon="1.26949">
        <ele>150</ele>
        <time>2017-03-07T16:45:50Z</time>
      </trkpt>
      <trkpt lat="49.43413" lon="1.26949">
        <ele>150</ele>
        <time>2017-03-07T16:46:05Z</time>
      </trkpt>
      <trkpt lat="49.4341" lon="1.2695">
        <ele>150</ele>
        <time>2017-03-07T16:46:06Z</time>
      </trkpt>
      <trkpt lat="49.43403" lon="1.26948">
        <ele>150</ele>
        <time>2017-03-07T16:46:06Z</time>
      </trkpt>
      <trkpt lat="49.43398" lon="1.26949">
        <ele>150</ele>
        <time>2017-03-07T16:46:06Z</time>
      </trkpt>
      <trkpt lat="49.43391" lon="1.2695">
        <ele>150</ele>
        <time>2017-03-07T16:46:21Z</time>
      </trkpt>
      <trkpt lat="49.43387" lon="1.26953">
        <ele>150</ele>
        <time>2017-03-07T16:46:22Z</time>
      </trkpt>
      <trkpt lat="49.43383" lon="1.26953">
        <ele>150</ele>
        <time>2017-03-07T16:46:22Z</time>
      </trkpt>
      <trkpt lat="49.43378" lon="1.26952">
        <ele>150</ele>
        <time>2017-03-07T16:46:22Z</time>
      </trkpt>
      <trkpt lat="49.43373" lon="1.26951">
        <ele>148</ele>
        <time>2017-03-07T16:46:37Z</time>
      </trkpt>
      <trkpt lat="49.43369" lon="1.26953">
        <ele>148</ele>
        <time>2017-03-07T16:46:38Z</time>
      </trkpt>
      <trkpt lat="49.43364" lon="1.26955">
        <ele>148</ele>
        <time>2017-03-07T16:46:38Z</time>
      </trkpt>
      <trkpt lat="49.43358" lon="1.26957">
        <ele>148</ele>
        <time>2017-03-07T16:46:38Z</time>
      </trkpt>
      <trkpt lat="49.43354" lon="1.26959">
        <ele>148</ele>
        <time>2017-03-07T16:46:54Z</time>
      </trkpt>
      <trkpt lat="49.4335" lon="1.2696">
        <ele>148</ele>
        <time>2017-03-07T16:46:54Z</time>
      </trkpt>
      <trkpt lat="49.43344" lon="1.26962">
        <ele>148</ele>
        <time>2017-03-07T16:46:54Z</time>
      </trkpt>
      <trkpt lat="49.43343" lon="1.26963">
        <ele>148</ele>
        <time>2017-03-07T16:46:54Z</time>
      </trkpt>
      <trkpt lat="49.43339" lon="1.26964">
        <ele>148</ele>
        <time>2017-03-07T16:47:11Z</time>
      </trkpt>
      <trkpt lat="49.43336" lon="1.26964">
        <ele>148</ele>
        <time>2017-03-07T16:47:11Z</time>
      </trkpt>
      <trkpt lat="49.43332" lon="1.26963">
        <ele>148</ele>
        <time>2017-03-07T16:47:11Z</time>
      </trkpt>
      <trkpt lat="49.43328" lon="1.26965">
        <ele>148</ele>
        <time>2017-03-07T16:47:11Z</time>
      </trkpt>
      <trkpt lat="49.43324" lon="1.26963">
        <ele>148</ele>
        <time>2017-03-07T16:47:25Z</time>
      </trkpt>
      <trkpt lat="49.43323" lon="1.26957">
        <ele>148</ele>
        <time>2017-03-07T16:47:26Z</time>
      </trkpt>
      <trkpt lat="49.43322" lon="1.26953">
        <ele>148</ele>
        <time>2017-03-07T16:47:26Z</time>
      </trkpt>
      <trkpt lat="49.43322" lon="1.2695">
        <ele>148</ele>
        <time>2017-03-07T16:47:26Z</time>
      </trkpt>
      <trkpt lat="49.43323" lon="1.2695">
        <ele>148</ele>
        <time>2017-03-07T16:48:05Z</time>
      </trkpt>
      <trkpt lat="49.43323" lon="1.26954">
        <ele>148</ele>
        <time>2017-03-07T16:48:06Z</time>
      </trkpt>
      <trkpt lat="49.43321" lon="1.26959">
        <ele>148</ele>
        <time>2017-03-07T16:48:06Z</time>
      </trkpt>
      <trkpt lat="49.43322" lon="1.26961">
        <ele>148</ele>
        <time>2017-03-07T16:48:06Z</time>
      </trkpt>
      <trkpt lat="49.43322" lon="1.26962">
        <ele>148</ele>
        <time>2017-03-07T16:48:06Z</time>
      </trkpt>
      <trkpt lat="49.43321" lon="1.26965">
        <ele>148</ele>
        <time>2017-03-07T16:48:45Z</time>
      </trkpt>
      <trkpt lat="49.43323" lon="1.26965">
        <ele>148</ele>
        <time>2017-03-07T16:48:46Z</time>
      </trkpt>
      <trkpt lat="49.43328" lon="1.26963">
        <ele>148</ele>
        <time>2017-03-07T16:48:46Z</time>
      </trkpt>
      <trkpt lat="49.43333" lon="1.2696">
        <ele>148</ele>
        <time>2017-03-07T16:48:46Z</time>
      </trkpt>
      <trkpt lat="49.43338" lon="1.26958">
        <ele>148</ele>
        <time>2017-03-07T16:48:46Z</time>
      </trkpt>
      <trkpt lat="49.43339" lon="1.26958">
        <ele>148</ele>
        <time>2017-03-07T16:49:42Z</time>
      </trkpt>
      <trkpt lat="49.43339" lon="1.26958">
        <ele>148</ele>
        <time>2017-03-07T16:49:42Z</time>
      </trkpt>
      <trkpt lat="49.43336" lon="1.26961">
        <ele>148</ele>
        <time>2017-03-07T16:49:42Z</time>
      </trkpt>
      <trkpt lat="49.43331" lon="1.26963">
        <ele>148</ele>
        <time>2017-03-07T16:49:42Z</time>
      </trkpt>
      <trkpt lat="49.43324" lon="1.26966">
        <ele>148</ele>
        <time>2017-03-07T16:49:42Z</time>
      </trkpt>
      <trkpt lat="49.43318" lon="1.26969">
        <ele>148</ele>
        <time>2017-03-07T16:49:58Z</time>
      </trkpt>
      <trkpt lat="49.43315" lon="1.26972">
        <ele>148</ele>
        <time>2017-03-07T16:49:58Z</time>
      </trkpt>
      <trkpt lat="49.4331" lon="1.26972">
        <ele>148</ele>
        <time>2017-03-07T16:49:58Z</time>
      </trkpt>
      <trkpt lat="49.43304" lon="1.26976">
        <ele>148</ele>
        <time>2017-03-07T16:49:58Z</time>
      </trkpt>
      <trkpt lat="49.43299" lon="1.26977">
        <ele>148</ele>
        <time>2017-03-07T16:50:14Z</time>
      </trkpt>
      <trkpt lat="49.43295" lon="1.26981">
        <ele>148</ele>
        <time>2017-03-07T16:50:14Z</time>
      </trkpt>
      <trkpt lat="49.43291" lon="1.26984">
        <ele>146</ele>
        <time>2017-03-07T16:50:14Z</time>
      </trkpt>
      <trkpt lat="49.43285" lon="1.26987">
        <ele>146</ele>
        <time>2017-03-07T16:50:14Z</time>
      </trkpt>
      <trkpt lat="49.43281" lon="1.2699">
        <ele>146</ele>
        <time>2017-03-07T16:50:29Z</time>
      </trkpt>
      <trkpt lat="49.43275" lon="1.26993">
        <ele>146</ele>
        <time>2017-03-07T16:50:30Z</time>
      </trkpt>
      <trkpt lat="49.43268" lon="1.26997">
        <ele>146</ele>
        <time>2017-03-07T16:50:30Z</time>
      </trkpt>
      <trkpt lat="49.43264" lon="1.26999">
        <ele>146</ele>
        <time>2017-03-07T16:50:30Z</time>
      </trkpt>
      <trkpt lat="49.43259" lon="1.27001">
        <ele>146</ele>
        <time>2017-03-07T16:50:46Z</time>
      </trkpt>
      <trkpt lat="49.43252" lon="1.27003">
        <ele>146</ele>
        <time>2017-03-07T16:50:46Z</time>
      </trkpt>
      <trkpt lat="49.4325" lon="1.27004">
        <ele>146</ele>
        <time>2017-03-07T16:50:46Z</time>
      </trkpt>
      <trkpt lat="49.43243" lon="1.27004">
        <ele>146</ele>
        <time>2017-03-07T16:50:46Z</time>
      </trkpt>
      <trkpt lat="49.43238" lon="1.27005">
        <ele>146</ele>
        <time>2017-03-07T16:51:01Z</time>
      </trkpt>
      <trkpt lat="49.43233" lon="1.27007">
        <ele>146</ele>
        <time>2017-03-07T16:51:02Z</time>
      </trkpt>
      <trkpt lat="49.43231" lon="1.27006">
        <ele>146</ele>
        <time>2017-03-07T16:51:02Z</time>
      </trkpt>
      <trkpt lat="49.43224" lon="1.27006">
        <ele>146</ele>
        <time>2017-03-07T16:51:02Z</time>
      </trkpt>
      <trkpt lat="49.4322" lon="1.27005">
        <ele>146</ele>
        <time>2017-03-07T16:51:17Z</time>
      </trkpt>
      <trkpt lat="49.43214" lon="1.27007">
        <ele>146</ele>
        <time>2017-03-07T16:51:18Z</time>
      </trkpt>
      <trkpt lat="49.43208" lon="1.27009">
        <ele>146</ele>
        <time>2017-03-07T16:51:18Z</time>
      </trkpt>
      <trkpt lat="49.43203" lon="1.27011">
        <ele>146</ele>
        <time>2017-03-07T16:51:18Z</time>
      </trkpt>
      <trkpt lat="49.43198" lon="1.27011">
        <ele>146</ele>
        <time>2017-03-07T16:51:33Z</time>
      </trkpt>
      <trkpt lat="49.43197" lon="1.27012">
        <ele>146</ele>
        <time>2017-03-07T16:51:34Z</time>
      </trkpt>
      <trkpt lat="49.43188" lon="1.27015">
        <ele>146</ele>
        <time>2017-03-07T16:51:34Z</time>
      </trkpt>
      <trkpt lat="49.43184" lon="1.27015">
        <ele>146</ele>
        <time>2017-03-07T16:51:34Z</time>
      </trkpt>
      <trkpt lat="49.43179" lon="1.27015">
        <ele>146</ele>
        <time>2017-03-07T16:51:49Z</time>
      </trkpt>
      <trkpt lat="49.43174" lon="1.27017">
        <ele>146</ele>
        <time>2017-03-07T16:51:50Z</time>
      </trkpt>
      <trkpt lat="49.43168" lon="1.27019">
        <ele>146</ele>
        <time>2017-03-07T16:51:50Z</time>
      </trkpt>
      <trkpt lat="49.43162" lon="1.27021">
        <ele>146</ele>
        <time>2017-03-07T16:51:50Z</time>
      </trkpt>
      <trkpt lat="49.43158" lon="1.27023">
        <ele>146</ele>
        <time>2017-03-07T16:52:05Z</time>
      </trkpt>
      <trkpt lat="49.43153" lon="1.27023">
        <ele>146</ele>
        <time>2017-03-07T16:52:06Z</time>
      </trkpt>
      <trkpt lat="49.43147" lon="1.27026">
        <ele>146</ele>
        <time>2017-03-07T16:52:06Z</time>
      </trkpt>
      <trkpt lat="49.43142" lon="1.27027">
        <ele>146</ele>
        <time>2017-03-07T16:52:06Z</time>
      </trkpt>
      <trkpt lat="49.43136" lon="1.27029">
        <ele>146</ele>
        <time>2017-03-07T16:52:21Z</time>
      </trkpt>
      <trkpt lat="49.4313" lon="1.27033">
        <ele>146</ele>
        <time>2017-03-07T16:52:22Z</time>
      </trkpt>
      <trkpt lat="49.43124" lon="1.27036">
        <ele>146</ele>
        <time>2017-03-07T16:52:22Z</time>
      </trkpt>
      <trkpt lat="49.4312" lon="1.2704">
        <ele>146</ele>
        <time>2017-03-07T16:52:22Z</time>
      </trkpt>
      <trkpt lat="49.43116" lon="1.27042">
        <ele>146</ele>
        <time>2017-03-07T16:52:37Z</time>
      </trkpt>
      <trkpt lat="49.43113" lon="1.27042">
        <ele>147</ele>
        <time>2017-03-07T16:52:38Z</time>
      </trkpt>
      <trkpt lat="49.43108" lon="1.27045">
        <ele>147</ele>
        <time>2017-03-07T16:52:38Z</time>
      </trkpt>
      <trkpt lat="49.43104" lon="1.27048">
        <ele>147</ele>
        <time>2017-03-07T16:52:38Z</time>
      </trkpt>
      <trkpt lat="49.431" lon="1.27052">
        <ele>147</ele>
        <time>2017-03-07T16:52:55Z</time>
      </trkpt>
      <trkpt lat="49.43097" lon="1.27053">
        <ele>147</ele>
        <time>2017-03-07T16:52:55Z</time>
      </trkpt>
      <trkpt lat="49.43092" lon="1.27057">
        <ele>147</ele>
        <time>2017-03-07T16:52:55Z</time>
      </trkpt>
      <trkpt lat="49.43086" lon="1.27062">
        <ele>147</ele>
        <time>2017-03-07T16:52:55Z</time>
      </trkpt>
      <trkpt lat="49.43083" lon="1.27066">
        <ele>147</ele>
        <time>2017-03-07T16:53:09Z</time>
      </trkpt>
      <trkpt lat="49.43078" lon="1.2707">
        <ele>147</ele>
        <time>2017-03-07T16:53:10Z</time>
      </trkpt>
      <trkpt lat="49.43075" lon="1.27071">
        <ele>147</ele>
        <time>2017-03-07T16:53:10Z</time>
      </trkpt>
      <trkpt lat="49.43071" lon="1.27074">
        <ele>147</ele>
        <time>2017-03-07T16:53:10Z</time>
      </trkpt>
      <trkpt lat="49.43066" lon="1.27078">
        <ele>147</ele>
        <time>2017-03-07T16:53:27Z</time>
      </trkpt>
      <trkpt lat="49.43063" lon="1.27081">
        <ele>147</ele>
        <time>2017-03-07T16:53:27Z</time>
      </trkpt>
      <trkpt lat="49.4306" lon="1.27083">
        <ele>147</ele>
        <time>2017-03-07T16:53:27Z</time>
      </trkpt>
      <trkpt lat="49.43056" lon="1.27085">
        <ele>147</ele>
        <time>2017-03-07T16:53:27Z</time>
      </trkpt>
      <trkpt lat="49.43052" lon="1.27086">
        <ele>147</ele>
        <time>2017-03-07T16:53:41Z</time>
      </trkpt>
      <trkpt lat="49.43048" lon="1.2709">
        <ele>147</ele>
        <time>2017-03-07T16:53:42Z</time>
      </trkpt>
      <trkpt lat="49.43044" lon="1.27095">
        <ele>147</ele>
        <time>2017-03-07T16:53:42Z</time>
      </trkpt>
      <trkpt lat="49.4304" lon="1.27099">
        <ele>149</ele>
        <time>2017-03-07T16:53:42Z</time>
      </trkpt>
      <trkpt lat="49.43036" lon="1.27102">
        <ele>149</ele>
        <time>2017-03-07T16:53:58Z</time>
      </trkpt>
      <trkpt lat="49.43031" lon="1.27105">
        <ele>149</ele>
        <time>2017-03-07T16:53:58Z</time>
      </trkpt>
      <trkpt lat="49.43027" lon="1.27108">
        <ele>149</ele>
        <time>2017-03-07T16:53:58Z</time>
      </trkpt>
      <trkpt lat="49.43024" lon="1.27112">
        <ele>149</ele>
        <time>2017-03-07T16:53:58Z</time>
      </trkpt>
      <trkpt lat="49.4302" lon="1.27115">
        <ele>149</ele>
        <time>2017-03-07T16:54:14Z</time>
      </trkpt>
      <trkpt lat="49.43017" lon="1.27117">
        <ele>149</ele>
        <time>2017-03-07T16:54:14Z</time>
      </trkpt>
      <trkpt lat="49.43014" lon="1.2712">
        <ele>149</ele>
        <time>2017-03-07T16:54:14Z</time>
      </trkpt>
      <trkpt lat="49.43009" lon="1.27122">
        <ele>149</ele>
        <time>2017-03-07T16:54:14Z</time>
      </trkpt>
      <trkpt lat="49.43005" lon="1.27125">
        <ele>149</ele>
        <time>2017-03-07T16:54:29Z</time>
      </trkpt>
      <trkpt lat="49.42998" lon="1.27129">
        <ele>147</ele>
        <time>2017-03-07T16:54:30Z</time>
      </trkpt>
      <trkpt lat="49.42994" lon="1.2713">
        <ele>147</ele>
        <time>2017-03-07T16:54:30Z</time>
      </trkpt>
      <trkpt lat="49.42988" lon="1.27134">
        <ele>147</ele>
        <time>2017-03-07T16:54:30Z</time>
      </trkpt>
      <trkpt lat="49.42983" lon="1.27139">
        <ele>147</ele>
        <time>2017-03-07T16:54:45Z</time>
      </trkpt>
      <trkpt lat="49.42979" lon="1.27142">
        <ele>147</ele>
        <time>2017-03-07T16:54:46Z</time>
      </trkpt>
      <trkpt lat="49.42977" lon="1.27143">
        <ele>147</ele>
        <time>2017-03-07T16:54:46Z</time>
      </trkpt>
      <trkpt lat="49.42969" lon="1.27151">
        <ele>147</ele>
        <time>2017-03-07T16:54:46Z</time>
      </trkpt>
      <trkpt lat="49.42965" lon="1.27155">
        <ele>147</ele>
        <time>2017-03-07T16:55:01Z</time>
      </trkpt>
      <trkpt lat="49.42961" lon="1.27158">
        <ele>147</ele>
        <time>2017-03-07T16:55:02Z</time>
      </trkpt>
      <trkpt lat="49.42955" lon="1.27164">
        <ele>148</ele>
        <time>2017-03-07T16:55:02Z</time>
      </trkpt>
      <trkpt lat="49.42951" lon="1.27168">
        <ele>148</ele>
        <time>2017-03-07T16:55:02Z</time>
      </trkpt>
      <trkpt lat="49.42947" lon="1.27168">
        <ele>148</ele>
        <time>2017-03-07T16:55:19Z</time>
      </trkpt>
      <trkpt lat="49.42943" lon="1.2717">
        <ele>148</ele>
        <time>2017-03-07T16:55:19Z</time>
      </trkpt>
      <trkpt lat="49.42941" lon="1.27174">
        <ele>148</ele>
        <time>2017-03-07T16:55:19Z</time>
      </trkpt>
      <trkpt lat="49.42937" lon="1.27179">
        <ele>148</ele>
        <time>2017-03-07T16:55:19Z</time>
      </trkpt>
      <trkpt lat="49.42931" lon="1.27182">
        <ele>148</ele>
        <time>2017-03-07T16:55:33Z</time>
      </trkpt>
      <trkpt lat="49.42927" lon="1.27185">
        <ele>148</ele>
        <time>2017-03-07T16:55:34Z</time>
      </trkpt>
      <trkpt lat="49.42921" lon="1.27193">
        <ele>148</ele>
        <time>2017-03-07T16:55:34Z</time>
      </trkpt>
      <trkpt lat="49.42916" lon="1.272">
        <ele>148</ele>
        <time>2017-03-07T16:55:34Z</time>
      </trkpt>
      <trkpt lat="49.42916" lon="1.27203">
        <ele>148</ele>
        <time>2017-03-07T16:55:50Z</time>
      </trkpt>
      <trkpt lat="49.42911" lon="1.27208">
        <ele>148</ele>
        <time>2017-03-07T16:55:50Z</time>
      </trkpt>
      <trkpt lat="49.42905" lon="1.27213">
        <ele>146</ele>
        <time>2017-03-07T16:55:50Z</time>
      </trkpt>
      <trkpt lat="49.429" lon="1.27213">
        <ele>146</ele>
        <time>2017-03-07T16:55:50Z</time>
      </trkpt>
      <trkpt lat="49.42896" lon="1.27217">
        <ele>146</ele>
        <time>2017-03-07T16:56:05Z</time>
      </trkpt>
      <trkpt lat="49.42891" lon="1.2722">
        <ele>146</ele>
        <time>2017-03-07T16:56:06Z</time>
      </trkpt>
      <trkpt lat="49.42887" lon="1.27226">
        <ele>146</ele>
        <time>2017-03-07T16:56:07Z</time>
      </trkpt>
      <trkpt lat="49.42883" lon="1.2723">
        <ele>146</ele>
        <time>2017-03-07T16:56:07Z</time>
      </trkpt>
      <trkpt lat="49.42879" lon="1.27233">
        <ele>146</ele>
        <time>2017-03-07T16:56:23Z</time>
      </trkpt>
      <trkpt lat="49.42875" lon="1.27237">
        <ele>143</ele>
        <time>2017-03-07T16:56:23Z</time>
      </trkpt>
      <trkpt lat="49.42871" lon="1.27239">
        <ele>143</ele>
        <time>2017-03-07T16:56:23Z</time>
      </trkpt>
      <trkpt lat="49.42867" lon="1.27242">
        <ele>143</ele>
        <time>2017-03-07T16:56:23Z</time>
      </trkpt>
      <trkpt lat="49.42861" lon="1.27246">
        <ele>143</ele>
        <time>2017-03-07T16:56:37Z</time>
      </trkpt>
      <trkpt lat="49.42857" lon="1.27249">
        <ele>143</ele>
        <time>2017-03-07T16:56:38Z</time>
      </trkpt>
      <trkpt lat="49.42853" lon="1.27253">
        <ele>143</ele>
        <time>2017-03-07T16:56:38Z</time>
      </trkpt>
      <trkpt lat="49.4285" lon="1.27258">
        <ele>143</ele>
        <time>2017-03-07T16:56:38Z</time>
      </trkpt>
      <trkpt lat="49.4285" lon="1.27258">
        <ele>143</ele>
        <time>2017-03-07T16:56:55Z</time>
      </trkpt>
      <trkpt lat="49.42847" lon="1.27259">
        <ele>143</ele>
        <time>2017-03-07T16:56:55Z</time>
      </trkpt>
      <trkpt lat="49.42842" lon="1.27263">
        <ele>143</ele>
        <time>2017-03-07T16:56:55Z</time>
      </trkpt>
      <trkpt lat="49.42838" lon="1.27265">
        <ele>143</ele>
        <time>2017-03-07T16:56:55Z</time>
      </trkpt>
      <trkpt lat="49.42833" lon="1.27269">
        <ele>143</ele>
        <time>2017-03-07T16:57:09Z</time>
      </trkpt>
      <trkpt lat="49.42828" lon="1.27272">
        <ele>143</ele>
        <time>2017-03-07T16:57:10Z</time>
      </trkpt>
      <trkpt lat="49.42825" lon="1.27274">
        <ele>143</ele>
        <time>2017-03-07T16:57:10Z</time>
      </trkpt>
      <trkpt lat="49.4282" lon="1.27276">
        <ele>143</ele>
        <time>2017-03-07T16:57:10Z</time>
      </trkpt>
      <trkpt lat="49.42821" lon="1.27274">
        <ele>143</ele>
        <time>2017-03-07T16:57:33Z</time>
      </trkpt>
      <trkpt lat="49.42819" lon="1.27276">
        <ele>143</ele>
        <time>2017-03-07T16:57:34Z</time>
      </trkpt>
      <trkpt lat="49.42814" lon="1.27278">
        <ele>143</ele>
        <time>2017-03-07T16:57:34Z</time>
      </trkpt>
      <trkpt lat="49.42814" lon="1.27278">
        <ele>143</ele>
        <time>2017-03-07T16:57:34Z</time>
      </trkpt>
      <trkpt lat="49.42812" lon="1.2728">
        <ele>143</ele>
        <time>2017-03-07T16:57:34Z</time>
      </trkpt>
      <trkpt lat="49.42808" lon="1.27281">
        <ele>143</ele>
        <time>2017-03-07T16:57:49Z</time>
      </trkpt>
      <trkpt lat="49.42804" lon="1.2728">
        <ele>143</ele>
        <time>2017-03-07T16:57:51Z</time>
      </trkpt>
      <trkpt lat="49.42799" lon="1.27283">
        <ele>143</ele>
        <time>2017-03-07T16:57:51Z</time>
      </trkpt>
      <trkpt lat="49.42793" lon="1.27286">
        <ele>143</ele>
        <time>2017-03-07T16:57:51Z</time>
      </trkpt>
      <trkpt lat="49.4279" lon="1.27289">
        <ele>141</ele>
        <time>2017-03-07T16:58:05Z</time>
      </trkpt>
      <trkpt lat="49.42784" lon="1.2729">
        <ele>141</ele>
        <time>2017-03-07T16:58:06Z</time>
      </trkpt>
      <trkpt lat="49.42777" lon="1.27292">
        <ele>141</ele>
        <time>2017-03-07T16:58:06Z</time>
      </trkpt>
      <trkpt lat="49.42772" lon="1.27293">
        <ele>141</ele>
        <time>2017-03-07T16:58:06Z</time>
      </trkpt>
      <trkpt lat="49.42767" lon="1.27297">
        <ele>141</ele>
        <time>2017-03-07T16:58:21Z</time>
      </trkpt>
      <trkpt lat="49.42762" lon="1.27299">
        <ele>141</ele>
        <time>2017-03-07T16:58:22Z</time>
      </trkpt>
      <trkpt lat="49.42759" lon="1.27301">
        <ele>141</ele>
        <time>2017-03-07T16:58:22Z</time>
      </trkpt>
      <trkpt lat="49.42753" lon="1.27305">
        <ele>141</ele>
        <time>2017-03-07T16:58:22Z</time>
      </trkpt>
      <trkpt lat="49.42748" lon="1.27309">
        <ele>141</ele>
        <time>2017-03-07T16:58:38Z</time>
      </trkpt>
      <trkpt lat="49.42742" lon="1.27316">
        <ele>141</ele>
        <time>2017-03-07T16:58:38Z</time>
      </trkpt>
      <trkpt lat="49.42738" lon="1.27318">
        <ele>141</ele>
        <time>2017-03-07T16:58:38Z</time>
      </trkpt>
      <trkpt lat="49.42735" lon="1.27321">
        <ele>141</ele>
        <time>2017-03-07T16:58:38Z</time>
      </trkpt>
      <trkpt lat="49.42731" lon="1.27326">
        <ele>141</ele>
        <time>2017-03-07T16:58:54Z</time>
      </trkpt>
      <trkpt lat="49.42727" lon="1.27332">
        <ele>141</ele>
        <time>2017-03-07T16:58:54Z</time>
      </trkpt>
      <trkpt lat="49.42721" lon="1.2734">
        <ele>141</ele>
        <time>2017-03-07T16:58:54Z</time>
      </trkpt>
      <trkpt lat="49.42718" lon="1.27342">
        <ele>141</ele>
        <time>2017-03-07T16:58:54Z</time>
      </trkpt>
      <trkpt lat="49.42709" lon="1.27335">
        <ele>141</ele>
        <time>2017-03-07T17:00:34Z</time>
      </trkpt>
      <trkpt lat="49.42708" lon="1.27337">
        <ele>147</ele>
        <time>2017-03-07T17:00:34Z</time>
      </trkpt>
      <trkpt lat="49.42706" lon="1.27341">
        <ele>147</ele>
        <time>2017-03-07T17:00:34Z</time>
      </trkpt>
      <trkpt lat="49.42706" lon="1.27341">
        <ele>147</ele>
        <time>2017-03-07T17:00:34Z</time>
      </trkpt>
      <trkpt lat="49.42704" lon="1.27344">
        <ele>147</ele>
        <time>2017-03-07T17:00:34Z</time>
      </trkpt>
      <trkpt lat="49.427" lon="1.27351">
        <ele>147</ele>
        <time>2017-03-07T17:01:09Z</time>
      </trkpt>
      <trkpt lat="49.427" lon="1.27354">
        <ele>147</ele>
        <time>2017-03-07T17:01:10Z</time>
      </trkpt>
      <trkpt lat="49.42699" lon="1.27358">
        <ele>147</ele>
        <time>2017-03-07T17:01:10Z</time>
      </trkpt>
      <trkpt lat="49.42698" lon="1.27363">
        <ele>147</ele>
        <time>2017-03-07T17:01:10Z</time>
      </trkpt>
      <trkpt lat="49.42698" lon="1.27367">
        <ele>147</ele>
        <time>2017-03-07T17:01:10Z</time>
      </trkpt>
      <trkpt lat="49.42699" lon="1.27367">
        <ele>147</ele>
        <time>2017-03-07T17:01:41Z</time>
      </trkpt>
      <trkpt lat="49.42699" lon="1.27367">
        <ele>147</ele>
        <time>2017-03-07T17:01:42Z</time>
      </trkpt>
      <trkpt lat="49.42699" lon="1.27373">
        <ele>147</ele>
        <time>2017-03-07T17:01:42Z</time>
      </trkpt>
      <trkpt lat="49.42695" lon="1.27374">
        <ele>147</ele>
        <time>2017-03-07T17:01:42Z</time>
      </trkpt>
      <trkpt lat="49.42691" lon="1.27379">
        <ele>148</ele>
        <time>2017-03-07T17:01:42Z</time>
      </trkpt>
      <trkpt lat="49.42691" lon="1.27389">
        <ele>148</ele>
        <time>2017-03-07T17:01:59Z</time>
      </trkpt>
      <trkpt lat="49.42688" lon="1.27392">
        <ele>148</ele>
        <time>2017-03-07T17:01:59Z</time>
      </trkpt>
      <trkpt lat="49.42684" lon="1.27395">
        <ele>148</ele>
        <time>2017-03-07T17:01:59Z</time>
      </trkpt>
      <trkpt lat="49.42678" lon="1.27396">
        <ele>148</ele>
        <time>2017-03-07T17:01:59Z</time>
      </trkpt>
      <trkpt lat="49.42677" lon="1.27397">
        <ele>148</ele>
        <time>2017-03-07T17:02:14Z</time>
      </trkpt>
      <trkpt lat="49.42667" lon="1.27399">
        <ele>148</ele>
        <time>2017-03-07T17:02:14Z</time>
      </trkpt>
      <trkpt lat="49.42663" lon="1.27403">
        <ele>148</ele>
        <time>2017-03-07T17:02:14Z</time>
      </trkpt>
      <trkpt lat="49.42657" lon="1.27409">
        <ele>148</ele>
        <time>2017-03-07T17:02:15Z</time>
      </trkpt>
      <trkpt lat="49.42648" lon="1.27416">
        <ele>148</ele>
        <time>2017-03-07T17:02:34Z</time>
      </trkpt>
      <trkpt lat="49.42643" lon="1.2742">
        <ele>148</ele>
        <time>2017-03-07T17:02:34Z</time>
      </trkpt>
      <trkpt lat="49.42641" lon="1.27423">
        <ele>148</ele>
        <time>2017-03-07T17:02:34Z</time>
      </trkpt>
      <trkpt lat="49.42635" lon="1.27426">
        <ele>148</ele>
        <time>2017-03-07T17:02:34Z</time>
      </trkpt>
      <trkpt lat="49.42631" lon="1.2743">
        <ele>148</ele>
        <time>2017-03-07T17:03:03Z</time>
      </trkpt>
      <trkpt lat="49.42626" lon="1.27435">
        <ele>148</ele>
        <time>2017-03-07T17:03:03Z</time>
      </trkpt>
      <trkpt lat="49.42625" lon="1.27435">
        <ele>152</ele>
        <time>2017-03-07T17:03:03Z</time>
      </trkpt>
      <trkpt lat="49.42618" lon="1.2744">
        <ele>152</ele>
        <time>2017-03-07T17:03:03Z</time>
      </trkpt>
      <trkpt lat="49.42612" lon="1.27443">
        <ele>152</ele>
        <time>2017-03-07T17:03:03Z</time>
      </trkpt>
      <trkpt lat="49.42605" lon="1.27445">
        <ele>152</ele>
        <time>2017-03-07T17:03:21Z</time>
      </trkpt>
      <trkpt lat="49.426" lon="1.27449">
        <ele>152</ele>
        <time>2017-03-07T17:03:22Z</time>
      </trkpt>
      <trkpt lat="49.42596" lon="1.27453">
        <ele>152</ele>
        <time>2017-03-07T17:03:22Z</time>
      </trkpt>
      <trkpt lat="49.42591" lon="1.27457">
        <ele>152</ele>
        <time>2017-03-07T17:03:22Z</time>
      </trkpt>
      <trkpt lat="49.42587" lon="1.2746">
        <ele>153</ele>
        <time>2017-03-07T17:03:37Z</time>
      </trkpt>
      <trkpt lat="49.42582" lon="1.27464">
        <ele>153</ele>
        <time>2017-03-07T17:03:38Z</time>
      </trkpt>
      <trkpt lat="49.42578" lon="1.27468">
        <ele>153</ele>
        <time>2017-03-07T17:03:38Z</time>
      </trkpt>
      <trkpt lat="49.42574" lon="1.27471">
        <ele>153</ele>
        <time>2017-03-07T17:03:38Z</time>
      </trkpt>
      <trkpt lat="49.42569" lon="1.27474">
        <ele>153</ele>
        <time>2017-03-07T17:03:54Z</time>
      </trkpt>
      <trkpt lat="49.42564" lon="1.27476">
        <ele>153</ele>
        <time>2017-03-07T17:03:54Z</time>
      </trkpt>
      <trkpt lat="49.42558" lon="1.27477">
        <ele>153</ele>
        <time>2017-03-07T17:03:54Z</time>
      </trkpt>
      <trkpt lat="49.42552" lon="1.27472">
        <ele>153</ele>
        <time>2017-03-07T17:03:54Z</time>
      </trkpt>
      <trkpt lat="49.42547" lon="1.27462">
        <ele>153</ele>
        <time>2017-03-07T17:04:15Z</time>
      </trkpt>
      <trkpt lat="49.42545" lon="1.27454">
        <ele>152</ele>
        <time>2017-03-07T17:04:15Z</time>
      </trkpt>
      <trkpt lat="49.42543" lon="1.27448">
        <ele>152</ele>
        <time>2017-03-07T17:04:15Z</time>
      </trkpt>
      <trkpt lat="49.4254" lon="1.2744">
        <ele>156</ele>
        <time>2017-03-07T17:04:15Z</time>
      </trkpt>
      <trkpt lat="49.42538" lon="1.27434">
        <ele>156</ele>
        <time>2017-03-07T17:04:29Z</time>
      </trkpt>
      <trkpt lat="49.42536" lon="1.27428">
        <ele>156</ele>
        <time>2017-03-07T17:04:30Z</time>
      </trkpt>
      <trkpt lat="49.42533" lon="1.2742">
        <ele>156</ele>
        <time>2017-03-07T17:04:30Z</time>
      </trkpt>
      <trkpt lat="49.4253" lon="1.27413">
        <ele>156</ele>
        <time>2017-03-07T17:04:30Z</time>
      </trkpt>
      <trkpt lat="49.42529" lon="1.27406">
        <ele>156</ele>
        <time>2017-03-07T17:04:45Z</time>
      </trkpt>
      <trkpt lat="49.42526" lon="1.274">
        <ele>156</ele>
        <time>2017-03-07T17:04:46Z</time>
      </trkpt>
      <trkpt lat="49.42523" lon="1.27393">
        <ele>156</ele>
        <time>2017-03-07T17:04:46Z</time>
      </trkpt>
      <trkpt lat="49.42519" lon="1.27386">
        <ele>156</ele>
        <time>2017-03-07T17:04:46Z</time>
      </trkpt>
      <trkpt lat="49.42516" lon="1.2738">
        <ele>156</ele>
        <time>2017-03-07T17:05:02Z</time>
      </trkpt>
      <trkpt lat="49.42513" lon="1.27373">
        <ele>153</ele>
        <time>2017-03-07T17:05:02Z</time>
      </trkpt>
      <trkpt lat="49.4251" lon="1.27367">
        <ele>153</ele>
        <time>2017-03-07T17:05:02Z</time>
      </trkpt>
      <trkpt lat="49.42509" lon="1.27361">
        <ele>153</ele>
        <time>2017-03-07T17:05:02Z</time>
      </trkpt>
      <trkpt lat="49.42507" lon="1.27356">
        <ele>153</ele>
        <time>2017-03-07T17:05:19Z</time>
      </trkpt>
      <trkpt lat="49.42503" lon="1.27349">
        <ele>153</ele>
        <time>2017-03-07T17:05:19Z</time>
      </trkpt>
      <trkpt lat="49.425" lon="1.27343">
        <ele>153</ele>
        <time>2017-03-07T17:05:19Z</time>
      </trkpt>
      <trkpt lat="49.42497" lon="1.27336">
        <ele>153</ele>
        <time>2017-03-07T17:05:19Z</time>
      </trkpt>
      <trkpt lat="49.42493" lon="1.27329">
        <ele>153</ele>
        <time>2017-03-07T17:05:35Z</time>
      </trkpt>
      <trkpt lat="49.42491" lon="1.27325">
        <ele>153</ele>
        <time>2017-03-07T17:05:35Z</time>
      </trkpt>
      <trkpt lat="49.42487" lon="1.27316">
        <ele>153</ele>
        <time>2017-03-07T17:05:35Z</time>
      </trkpt>
      <trkpt lat="49.42485" lon="1.2731">
        <ele>153</ele>
        <time>2017-03-07T17:05:35Z</time>
      </trkpt>
      <trkpt lat="49.42478" lon="1.27298">
        <ele>153</ele>
        <time>2017-03-07T17:05:53Z</time>
      </trkpt>
      <trkpt lat="49.42476" lon="1.27294">
        <ele>153</ele>
        <time>2017-03-07T17:05:54Z</time>
      </trkpt>
      <trkpt lat="49.42474" lon="1.27287">
        <ele>151</ele>
        <time>2017-03-07T17:05:54Z</time>
      </trkpt>
      <trkpt lat="49.4247" lon="1.27282">
        <ele>151</ele>
        <time>2017-03-07T17:05:54Z</time>
      </trkpt>
      <trkpt lat="49.42467" lon="1.27275">
        <ele>151</ele>
        <time>2017-03-07T17:06:11Z</time>
      </trkpt>
      <trkpt lat="49.42464" lon="1.27269">
        <ele>151</ele>
        <time>2017-03-07T17:06:11Z</time>
      </trkpt>
      <trkpt lat="49.42462" lon="1.27262">
        <ele>151</ele>
        <time>2017-03-07T17:06:11Z</time>
      </trkpt>
      <trkpt lat="49.42459" lon="1.27255">
        <ele>151</ele>
        <time>2017-03-07T17:06:11Z</time>
      </trkpt>
      <trkpt lat="49.42458" lon="1.2725">
        <ele>153</ele>
        <time>2017-03-07T17:06:27Z</time>
      </trkpt>
      <trkpt lat="49.42454" lon="1.27241">
        <ele>153</ele>
        <time>2017-03-07T17:06:27Z</time>
      </trkpt>
      <trkpt lat="49.42451" lon="1.27234">
        <ele>153</ele>
        <time>2017-03-07T17:06:27Z</time>
      </trkpt>
      <trkpt lat="49.42448" lon="1.27228">
        <ele>153</ele>
        <time>2017-03-07T17:06:27Z</time>
      </trkpt>
      <trkpt lat="49.42446" lon="1.27223">
        <ele>153</ele>
        <time>2017-03-07T17:06:42Z</time>
      </trkpt>
      <trkpt lat="49.42443" lon="1.27217">
        <ele>153</ele>
        <time>2017-03-07T17:06:42Z</time>
      </trkpt>
      <trkpt lat="49.4244" lon="1.27208">
        <ele>151</ele>
        <time>2017-03-07T17:06:42Z</time>
      </trkpt>
      <trkpt lat="49.42437" lon="1.27204">
        <ele>151</ele>
        <time>2017-03-07T17:06:42Z</time>
      </trkpt>
      <trkpt lat="49.42429" lon="1.27183">
        <ele>151</ele>
        <time>2017-03-07T17:07:05Z</time>
      </trkpt>
      <trkpt lat="49.42427" lon="1.27177">
        <ele>151</ele>
        <time>2017-03-07T17:07:06Z</time>
      </trkpt>
      <trkpt lat="49.42424" lon="1.2717">
        <ele>151</ele>
        <time>2017-03-07T17:07:06Z</time>
      </trkpt>
      <trkpt lat="49.42422" lon="1.27164">
        <ele>151</ele>
        <time>2017-03-07T17:07:06Z</time>
      </trkpt>
      <trkpt lat="49.42419" lon="1.27157">
        <ele>151</ele>
        <time>2017-03-07T17:07:23Z</time>
      </trkpt>
      <trkpt lat="49.42416" lon="1.27151">
        <ele>151</ele>
        <time>2017-03-07T17:07:23Z</time>
      </trkpt>
      <trkpt lat="49.42413" lon="1.27144">
        <ele>151</ele>
        <time>2017-03-07T17:07:23Z</time>
      </trkpt>
      <trkpt lat="49.42411" lon="1.27138">
        <ele>151</ele>
        <time>2017-03-07T17:07:23Z</time>
      </trkpt>
      <trkpt lat="49.42409" lon="1.27133">
        <ele>151</ele>
        <time>2017-03-07T17:07:38Z</time>
      </trkpt>
      <trkpt lat="49.42407" lon="1.27127">
        <ele>151</ele>
        <time>2017-03-07T17:07:38Z</time>
      </trkpt>
      <trkpt lat="49.42404" lon="1.27121">
        <ele>150</ele>
        <time>2017-03-07T17:07:38Z</time>
      </trkpt>
      <trkpt lat="49.424" lon="1.27113">
        <ele>150</ele>
        <time>2017-03-07T17:07:38Z</time>
      </trkpt>
      <trkpt lat="49.42398" lon="1.27108">
        <ele>150</ele>
        <time>2017-03-07T17:07:53Z</time>
      </trkpt>
      <trkpt lat="49.42395" lon="1.27102">
        <ele>150</ele>
        <time>2017-03-07T17:07:54Z</time>
      </trkpt>
      <trkpt lat="49.42392" lon="1.27093">
        <ele>150</ele>
        <time>2017-03-07T17:07:54Z</time>
      </trkpt>
      <trkpt lat="49.4239" lon="1.27089">
        <ele>150</ele>
        <time>2017-03-07T17:07:54Z</time>
      </trkpt>
      <trkpt lat="49.42388" lon="1.27081">
        <ele>150</ele>
        <time>2017-03-07T17:08:11Z</time>
      </trkpt>
      <trkpt lat="49.42386" lon="1.27076">
        <ele>150</ele>
        <time>2017-03-07T17:08:11Z</time>
      </trkpt>
      <trkpt lat="49.42384" lon="1.27071">
        <ele>150</ele>
        <time>2017-03-07T17:08:11Z</time>
      </trkpt>
      <trkpt lat="49.42382" lon="1.27067">
        <ele>150</ele>
        <time>2017-03-07T17:08:11Z</time>
      </trkpt>
      <trkpt lat="49.42379" lon="1.27062">
        <ele>150</ele>
        <time>2017-03-07T17:08:26Z</time>
      </trkpt>
      <trkpt lat="49.42377" lon="1.27057">
        <ele>150</ele>
        <time>2017-03-07T17:08:26Z</time>
      </trkpt>
      <trkpt lat="49.42374" lon="1.27049">
        <ele>151</ele>
        <time>2017-03-07T17:08:26Z</time>
      </trkpt>
      <trkpt lat="49.42372" lon="1.27042">
        <ele>151</ele>
        <time>2017-03-07T17:08:26Z</time>
      </trkpt>
      <trkpt lat="49.42369" lon="1.27038">
        <ele>149</ele>
        <time>2017-03-07T17:08:42Z</time>
      </trkpt>
      <trkpt lat="49.42366" lon="1.2703">
        <ele>149</ele>
        <time>2017-03-07T17:08:42Z</time>
      </trkpt>
      <trkpt lat="49.42364" lon="1.27025">
        <ele>149</ele>
        <time>2017-03-07T17:08:42Z</time>
      </trkpt>
      <trkpt lat="49.42361" lon="1.27018">
        <ele>149</ele>
        <time>2017-03-07T17:08:42Z</time>
      </trkpt>
      <trkpt lat="49.42359" lon="1.27013">
        <ele>149</ele>
        <time>2017-03-07T17:08:58Z</time>
      </trkpt>
      <trkpt lat="49.42356" lon="1.27006">
        <ele>149</ele>
        <time>2017-03-07T17:08:58Z</time>
      </trkpt>
      <trkpt lat="49.42353" lon="1.27">
        <ele>149</ele>
        <time>2017-03-07T17:08:58Z</time>
      </trkpt>
      <trkpt lat="49.42351" lon="1.26997">
        <ele>149</ele>
        <time>2017-03-07T17:08:58Z</time>
      </trkpt>
      <trkpt lat="49.42348" lon="1.26988">
        <ele>149</ele>
        <time>2017-03-07T17:09:15Z</time>
      </trkpt>
      <trkpt lat="49.42346" lon="1.26984">
        <ele>149</ele>
        <time>2017-03-07T17:09:15Z</time>
      </trkpt>
      <trkpt lat="49.42343" lon="1.26976">
        <ele>149</ele>
        <time>2017-03-07T17:09:15Z</time>
      </trkpt>
      <trkpt lat="49.4234" lon="1.26972">
        <ele>149</ele>
        <time>2017-03-07T17:09:15Z</time>
      </trkpt>
      <trkpt lat="49.42337" lon="1.26965">
        <ele>149</ele>
        <time>2017-03-07T17:09:30Z</time>
      </trkpt>
      <trkpt lat="49.42333" lon="1.26958">
        <ele>146</ele>
        <time>2017-03-07T17:09:30Z</time>
      </trkpt>
      <trkpt lat="49.42332" lon="1.26955">
        <ele>146</ele>
        <time>2017-03-07T17:09:30Z</time>
      </trkpt>
      <trkpt lat="49.42329" lon="1.26948">
        <ele>146</ele>
        <time>2017-03-07T17:09:30Z</time>
      </trkpt>
      <trkpt lat="49.42327" lon="1.26941">
        <ele>146</ele>
        <time>2017-03-07T17:09:47Z</time>
      </trkpt>
      <trkpt lat="49.42323" lon="1.26936">
        <ele>146</ele>
        <time>2017-03-07T17:09:47Z</time>
      </trkpt>
      <trkpt lat="49.4232" lon="1.26928">
        <ele>146</ele>
        <time>2017-03-07T17:09:47Z</time>
      </trkpt>
      <trkpt lat="49.42317" lon="1.26921">
        <ele>146</ele>
        <time>2017-03-07T17:09:47Z</time>
      </trkpt>
      <trkpt lat="49.42312" lon="1.26908">
        <ele>146</ele>
        <time>2017-03-07T17:10:05Z</time>
      </trkpt>
      <trkpt lat="49.4231" lon="1.26903">
        <ele>146</ele>
        <time>2017-03-07T17:10:06Z</time>
      </trkpt>
      <trkpt lat="49.42308" lon="1.26897">
        <ele>146</ele>
        <time>2017-03-07T17:10:06Z</time>
      </trkpt>
      <trkpt lat="49.42305" lon="1.26891">
        <ele>146</ele>
        <time>2017-03-07T17:10:06Z</time>
      </trkpt>
      <trkpt lat="49.42302" lon="1.26884">
        <ele>146</ele>
        <time>2017-03-07T17:10:23Z</time>
      </trkpt>
      <trkpt lat="49.423" lon="1.26877">
        <ele>146</ele>
        <time>2017-03-07T17:10:23Z</time>
      </trkpt>
      <trkpt lat="49.42299" lon="1.2687">
        <ele>146</ele>
        <time>2017-03-07T17:10:23Z</time>
      </trkpt>
      <trkpt lat="49.42299" lon="1.26863">
        <ele>146</ele>
        <time>2017-03-07T17:10:23Z</time>
      </trkpt>
      <trkpt lat="49.42314" lon="1.26842">
        <ele>146</ele>
        <time>2017-03-07T17:10:54Z</time>
      </trkpt>
      <trkpt lat="49.42317" lon="1.26838">
        <ele>146</ele>
        <time>2017-03-07T17:10:54Z</time>
      </trkpt>
      <trkpt lat="49.42321" lon="1.26834">
        <ele>146</ele>
        <time>2017-03-07T17:10:54Z</time>
      </trkpt>
      <trkpt lat="49.42329" lon="1.26825">
        <ele>146</ele>
        <time>2017-03-07T17:10:54Z</time>
      </trkpt>
      <trkpt lat="49.42334" lon="1.26821">
        <ele>146</ele>
        <time>2017-03-07T17:11:09Z</time>
      </trkpt>
      <trkpt lat="49.42337" lon="1.26816">
        <ele>146</ele>
        <time>2017-03-07T17:11:10Z</time>
      </trkpt>
      <trkpt lat="49.42342" lon="1.26812">
        <ele>146</ele>
        <time>2017-03-07T17:11:10Z</time>
      </trkpt>
      <trkpt lat="49.42346" lon="1.26808">
        <ele>146</ele>
        <time>2017-03-07T17:11:10Z</time>
      </trkpt>
      <trkpt lat="49.4235" lon="1.26803">
        <ele>146</ele>
        <time>2017-03-07T17:11:26Z</time>
      </trkpt>
      <trkpt lat="49.42354" lon="1.26801">
        <ele>146</ele>
        <time>2017-03-07T17:11:26Z</time>
      </trkpt>
      <trkpt lat="49.42358" lon="1.26796">
        <ele>146</ele>
        <time>2017-03-07T17:11:26Z</time>
      </trkpt>
      <trkpt lat="49.42364" lon="1.2679">
        <ele>146</ele>
        <time>2017-03-07T17:11:26Z</time>
      </trkpt>
      <trkpt lat="49.42367" lon="1.26786">
        <ele>146</ele>
        <time>2017-03-07T17:11:42Z</time>
      </trkpt>
      <trkpt lat="49.42371" lon="1.26783">
        <ele>146</ele>
        <time>2017-03-07T17:11:42Z</time>
      </trkpt>
      <trkpt lat="49.42378" lon="1.26777">
        <ele>144</ele>
        <time>2017-03-07T17:11:42Z</time>
      </trkpt>
      <trkpt lat="49.4238" lon="1.26776">
        <ele>144</ele>
        <time>2017-03-07T17:11:42Z</time>
      </trkpt>
      <trkpt lat="49.4239" lon="1.26767">
        <ele>144</ele>
        <time>2017-03-07T17:12:02Z</time>
      </trkpt>
      <trkpt lat="49.42395" lon="1.26763">
        <ele>144</ele>
        <time>2017-03-07T17:12:03Z</time>
      </trkpt>
      <trkpt lat="49.42397" lon="1.2676">
        <ele>144</ele>
        <time>2017-03-07T17:12:03Z</time>
      </trkpt>
      <trkpt lat="49.424" lon="1.26757">
        <ele>144</ele>
        <time>2017-03-07T17:12:03Z</time>
      </trkpt>
      <trkpt lat="49.42399" lon="1.26757">
        <ele>144</ele>
        <time>2017-03-07T17:12:34Z</time>
      </trkpt>
      <trkpt lat="49.42403" lon="1.26755">
        <ele>144</ele>
        <time>2017-03-07T17:12:34Z</time>
      </trkpt>
      <trkpt lat="49.42406" lon="1.26752">
        <ele>144</ele>
        <time>2017-03-07T17:12:34Z</time>
      </trkpt>
      <trkpt lat="49.42412" lon="1.26746">
        <ele>144</ele>
        <time>2017-03-07T17:12:34Z</time>
      </trkpt>
      <trkpt lat="49.42416" lon="1.26742">
        <ele>144</ele>
        <time>2017-03-07T17:12:34Z</time>
      </trkpt>
      <trkpt lat="49.42422" lon="1.26737">
        <ele>144</ele>
        <time>2017-03-07T17:12:54Z</time>
      </trkpt>
      <trkpt lat="49.42424" lon="1.26733">
        <ele>144</ele>
        <time>2017-03-07T17:12:54Z</time>
      </trkpt>
      <trkpt lat="49.42427" lon="1.2673">
        <ele>144</ele>
        <time>2017-03-07T17:12:54Z</time>
      </trkpt>
      <trkpt lat="49.42426" lon="1.26728">
        <ele>144</ele>
        <time>2017-03-07T17:12:54Z</time>
      </trkpt>
      <trkpt lat="49.4243" lon="1.26725">
        <ele>144</ele>
        <time>2017-03-07T17:12:54Z</time>
      </trkpt>
      <trkpt lat="49.42432" lon="1.26722">
        <ele>144</ele>
        <time>2017-03-07T17:13:10Z</time>
      </trkpt>
      <trkpt lat="49.42436" lon="1.26719">
        <ele>144</ele>
        <time>2017-03-07T17:13:10Z</time>
      </trkpt>
      <trkpt lat="49.42439" lon="1.26714">
        <ele>144</ele>
        <time>2017-03-07T17:13:10Z</time>
      </trkpt>
      <trkpt lat="49.42443" lon="1.26708">
        <ele>142</ele>
        <time>2017-03-07T17:13:10Z</time>
      </trkpt>
      <trkpt lat="49.42443" lon="1.26706">
        <ele>142</ele>
        <time>2017-03-07T17:13:26Z</time>
      </trkpt>
      <trkpt lat="49.42445" lon="1.267">
        <ele>142</ele>
        <time>2017-03-07T17:13:26Z</time>
      </trkpt>
      <trkpt lat="49.4245" lon="1.26696">
        <ele>142</ele>
        <time>2017-03-07T17:13:26Z</time>
      </trkpt>
      <trkpt lat="49.4245" lon="1.26696">
        <ele>142</ele>
        <time>2017-03-07T17:13:26Z</time>
      </trkpt>
      <trkpt lat="49.42451" lon="1.26695">
        <ele>142</ele>
        <time>2017-03-07T17:13:58Z</time>
      </trkpt>
      <trkpt lat="49.42453" lon="1.26694">
        <ele>142</ele>
        <time>2017-03-07T17:13:58Z</time>
      </trkpt>
      <trkpt lat="49.42454" lon="1.26688">
        <ele>142</ele>
        <time>2017-03-07T17:13:58Z</time>
      </trkpt>
      <trkpt lat="49.42457" lon="1.26685">
        <ele>142</ele>
        <time>2017-03-07T17:13:58Z</time>
      </trkpt>
      <trkpt lat="49.42459" lon="1.26683">
        <ele>135</ele>
        <time>2017-03-07T17:13:58Z</time>
      </trkpt>
      <trkpt lat="49.42462" lon="1.26678">
        <ele>135</ele>
        <time>2017-03-07T17:14:18Z</time>
      </trkpt>
      <trkpt lat="49.42464" lon="1.26676">
        <ele>135</ele>
        <time>2017-03-07T17:14:18Z</time>
      </trkpt>
      <trkpt lat="49.42467" lon="1.26676">
        <ele>135</ele>
        <time>2017-03-07T17:14:18Z</time>
      </trkpt>
      <trkpt lat="49.42469" lon="1.26674">
        <ele>135</ele>
        <time>2017-03-07T17:14:18Z</time>
      </trkpt>
      <trkpt lat="49.42473" lon="1.26673">
        <ele>135</ele>
        <time>2017-03-07T17:14:18Z</time>
      </trkpt>
      <trkpt lat="49.4248" lon="1.26667">
        <ele>135</ele>
        <time>2017-03-07T17:14:33Z</time>
      </trkpt>
      <trkpt lat="49.42484" lon="1.26664">
        <ele>135</ele>
        <time>2017-03-07T17:14:34Z</time>
      </trkpt>
      <trkpt lat="49.42487" lon="1.26658">
        <ele>135</ele>
        <time>2017-03-07T17:14:34Z</time>
      </trkpt>
      <trkpt lat="49.42494" lon="1.26656">
        <ele>135</ele>
        <time>2017-03-07T17:14:34Z</time>
      </trkpt>
      <trkpt lat="49.42498" lon="1.26654">
        <ele>135</ele>
        <time>2017-03-07T17:14:50Z</time>
      </trkpt>
      <trkpt lat="49.42503" lon="1.26653">
        <ele>135</ele>
        <time>2017-03-07T17:14:50Z</time>
      </trkpt>
      <trkpt lat="49.42507" lon="1.2665">
        <ele>135</ele>
        <time>2017-03-07T17:14:50Z</time>
      </trkpt>
      <trkpt lat="49.42509" lon="1.26648">
        <ele>135</ele>
        <time>2017-03-07T17:14:50Z</time>
      </trkpt>
      <trkpt lat="49.42512" lon="1.26641">
        <ele>135</ele>
        <time>2017-03-07T17:15:05Z</time>
      </trkpt>
      <trkpt lat="49.42514" lon="1.26634">
        <ele>135</ele>
        <time>2017-03-07T17:15:06Z</time>
      </trkpt>
      <trkpt lat="49.42514" lon="1.26628">
        <ele>135</ele>
        <time>2017-03-07T17:15:06Z</time>
      </trkpt>
      <trkpt lat="49.42515" lon="1.26624">
        <ele>136</ele>
        <time>2017-03-07T17:15:06Z</time>
      </trkpt>
      <trkpt lat="49.42515" lon="1.2662">
        <ele>136</ele>
        <time>2017-03-07T17:15:21Z</time>
      </trkpt>
      <trkpt lat="49.42515" lon="1.26615">
        <ele>136</ele>
        <time>2017-03-07T17:15:22Z</time>
      </trkpt>
      <trkpt lat="49.42516" lon="1.26606">
        <ele>136</ele>
        <time>2017-03-07T17:15:22Z</time>
      </trkpt>
      <trkpt lat="49.42516" lon="1.26602">
        <ele>136</ele>
        <time>2017-03-07T17:15:22Z</time>
      </trkpt>
      <trkpt lat="49.42515" lon="1.26597">
        <ele>136</ele>
        <time>2017-03-07T17:15:41Z</time>
      </trkpt>
      <trkpt lat="49.42516" lon="1.26595">
        <ele>136</ele>
        <time>2017-03-07T17:15:42Z</time>
      </trkpt>
      <trkpt lat="49.42516" lon="1.26585">
        <ele>136</ele>
        <time>2017-03-07T17:15:42Z</time>
      </trkpt>
      <trkpt lat="49.42516" lon="1.26584">
        <ele>136</ele>
        <time>2017-03-07T17:15:42Z</time>
      </trkpt>
      <trkpt lat="49.42517" lon="1.26581">
        <ele>136</ele>
        <time>2017-03-07T17:15:42Z</time>
      </trkpt>
      <trkpt lat="49.42517" lon="1.26578">
        <ele>136</ele>
        <time>2017-03-07T17:15:57Z</time>
      </trkpt>
      <trkpt lat="49.42517" lon="1.26571">
        <ele>136</ele>
        <time>2017-03-07T17:15:58Z</time>
      </trkpt>
      <trkpt lat="49.42517" lon="1.26565">
        <ele>136</ele>
        <time>2017-03-07T17:15:58Z</time>
      </trkpt>
      <trkpt lat="49.42517" lon="1.26559">
        <ele>136</ele>
        <time>2017-03-07T17:15:58Z</time>
      </trkpt>
      <trkpt lat="49.42517" lon="1.26555">
        <ele>136</ele>
        <time>2017-03-07T17:16:13Z</time>
      </trkpt>
      <trkpt lat="49.42519" lon="1.26551">
        <ele>136</ele>
        <time>2017-03-07T17:16:14Z</time>
      </trkpt>
      <trkpt lat="49.42518" lon="1.26547">
        <ele>136</ele>
        <time>2017-03-07T17:16:14Z</time>
      </trkpt>
      <trkpt lat="49.4252" lon="1.2654">
        <ele>141</ele>
        <time>2017-03-07T17:16:14Z</time>
      </trkpt>
      <trkpt lat="49.42519" lon="1.26535">
        <ele>141</ele>
        <time>2017-03-07T17:16:29Z</time>
      </trkpt>
      <trkpt lat="49.42519" lon="1.26531">
        <ele>141</ele>
        <time>2017-03-07T17:16:30Z</time>
      </trkpt>
      <trkpt lat="49.42521" lon="1.26524">
        <ele>141</ele>
        <time>2017-03-07T17:16:30Z</time>
      </trkpt>
      <trkpt lat="49.42521" lon="1.26516">
        <ele>141</ele>
        <time>2017-03-07T17:16:30Z</time>
      </trkpt>
      <trkpt lat="49.42522" lon="1.26512">
        <ele>141</ele>
        <time>2017-03-07T17:16:46Z</time>
      </trkpt>
      <trkpt lat="49.42521" lon="1.26503">
        <ele>141</ele>
        <time>2017-03-07T17:16:46Z</time>
      </trkpt>
      <trkpt lat="49.42521" lon="1.26494">
        <ele>141</ele>
        <time>2017-03-07T17:16:46Z</time>
      </trkpt>
      <trkpt lat="49.4252" lon="1.26491">
        <ele>141</ele>
        <time>2017-03-07T17:16:46Z</time>
      </trkpt>
      <trkpt lat="49.4252" lon="1.26488">
        <ele>141</ele>
        <time>2017-03-07T17:17:05Z</time>
      </trkpt>
      <trkpt lat="49.4252" lon="1.26482">
        <ele>141</ele>
        <time>2017-03-07T17:17:06Z</time>
      </trkpt>
      <trkpt lat="49.4252" lon="1.26478">
        <ele>141</ele>
        <time>2017-03-07T17:17:06Z</time>
      </trkpt>
      <trkpt lat="49.4252" lon="1.26477">
        <ele>141</ele>
        <time>2017-03-07T17:17:06Z</time>
      </trkpt>
      <trkpt lat="49.4252" lon="1.26471">
        <ele>141</ele>
        <time>2017-03-07T17:17:06Z</time>
      </trkpt>
      <trkpt lat="49.42519" lon="1.26458">
        <ele>141</ele>
        <time>2017-03-07T17:17:22Z</time>
      </trkpt>
      <trkpt lat="49.4252" lon="1.26447">
        <ele>143</ele>
        <time>2017-03-07T17:17:22Z</time>
      </trkpt>
      <trkpt lat="49.42522" lon="1.26439">
        <ele>143</ele>
        <time>2017-03-07T17:17:22Z</time>
      </trkpt>
      <trkpt lat="49.42524" lon="1.26433">
        <ele>143</ele>
        <time>2017-03-07T17:17:22Z</time>
      </trkpt>
      <trkpt lat="49.42526" lon="1.26427">
        <ele>143</ele>
        <time>2017-03-07T17:17:38Z</time>
      </trkpt>
      <trkpt lat="49.42525" lon="1.26419">
        <ele>143</ele>
        <time>2017-03-07T17:17:38Z</time>
      </trkpt>
      <trkpt lat="49.42526" lon="1.26412">
        <ele>143</ele>
        <time>2017-03-07T17:17:38Z</time>
      </trkpt>
      <trkpt lat="49.42525" lon="1.26404">
        <ele>143</ele>
        <time>2017-03-07T17:17:38Z</time>
      </trkpt>
      <trkpt lat="49.42526" lon="1.26395">
        <ele>143</ele>
        <time>2017-03-07T17:17:58Z</time>
      </trkpt>
      <trkpt lat="49.42527" lon="1.26387">
        <ele>143</ele>
        <time>2017-03-07T17:17:58Z</time>
      </trkpt>
      <trkpt lat="49.42528" lon="1.26382">
        <ele>143</ele>
        <time>2017-03-07T17:17:58Z</time>
      </trkpt>
      <trkpt lat="49.4253" lon="1.26366">
        <ele>144</ele>
        <time>2017-03-07T17:17:58Z</time>
      </trkpt>
      <trkpt lat="49.42532" lon="1.26358">
        <ele>144</ele>
        <time>2017-03-07T17:18:15Z</time>
      </trkpt>
      <trkpt lat="49.42533" lon="1.26351">
        <ele>144</ele>
        <time>2017-03-07T17:18:15Z</time>
      </trkpt>
      <trkpt lat="49.42535" lon="1.26348">
        <ele>144</ele>
        <time>2017-03-07T17:18:15Z</time>
      </trkpt>
      <trkpt lat="49.42535" lon="1.26341">
        <ele>144</ele>
        <time>2017-03-07T17:18:15Z</time>
      </trkpt>
      <trkpt lat="49.42536" lon="1.26334">
        <ele>144</ele>
        <time>2017-03-07T17:19:05Z</time>
      </trkpt>
      <trkpt lat="49.42539" lon="1.26328">
        <ele>144</ele>
        <time>2017-03-07T17:19:06Z</time>
      </trkpt>
      <trkpt lat="49.42542" lon="1.26319">
        <ele>148</ele>
        <time>2017-03-07T17:19:06Z</time>
      </trkpt>
      <trkpt lat="49.42544" lon="1.26313">
        <ele>148</ele>
        <time>2017-03-07T17:19:06Z</time>
      </trkpt>
      <trkpt lat="49.42547" lon="1.26305">
        <ele>148</ele>
        <time>2017-03-07T17:19:06Z</time>
      </trkpt>
      <trkpt lat="49.42549" lon="1.26299">
        <ele>148</ele>
        <time>2017-03-07T17:19:25Z</time>
      </trkpt>
      <trkpt lat="49.42549" lon="1.26296">
        <ele>148</ele>
        <time>2017-03-07T17:19:27Z</time>
      </trkpt>
      <trkpt lat="49.4255" lon="1.26294">
        <ele>148</ele>
        <time>2017-03-07T17:19:28Z</time>
      </trkpt>
      <trkpt lat="49.42552" lon="1.26288">
        <ele>149</ele>
        <time>2017-03-07T17:19:28Z</time>
      </trkpt>
      <trkpt lat="49.42556" lon="1.26283">
        <ele>149</ele>
        <time>2017-03-07T17:19:28Z</time>
      </trkpt>
      <trkpt lat="49.42564" lon="1.2626">
        <ele>149</ele>
        <time>2017-03-07T17:20:01Z</time>
      </trkpt>
      <trkpt lat="49.42564" lon="1.2626">
        <ele>149</ele>
        <time>2017-03-07T17:20:02Z</time>
      </trkpt>
      <trkpt lat="49.42566" lon="1.26254">
        <ele>149</ele>
        <time>2017-03-07T17:20:02Z</time>
      </trkpt>
      <trkpt lat="49.42567" lon="1.26251">
        <ele>149</ele>
        <time>2017-03-07T17:20:02Z</time>
      </trkpt>
      <trkpt lat="49.4257" lon="1.26243">
        <ele>149</ele>
        <time>2017-03-07T17:20:02Z</time>
      </trkpt>
      <trkpt lat="49.42573" lon="1.26238">
        <ele>149</ele>
        <time>2017-03-07T17:20:18Z</time>
      </trkpt>
      <trkpt lat="49.42575" lon="1.26231">
        <ele>149</ele>
        <time>2017-03-07T17:20:18Z</time>
      </trkpt>
      <trkpt lat="49.42577" lon="1.26228">
        <ele>149</ele>
        <time>2017-03-07T17:20:18Z</time>
      </trkpt>
      <trkpt lat="49.4258" lon="1.26223">
        <ele>149</ele>
        <time>2017-03-07T17:20:18Z</time>
      </trkpt>
      <trkpt lat="49.42584" lon="1.26216">
        <ele>149</ele>
        <time>2017-03-07T17:20:35Z</time>
      </trkpt>
      <trkpt lat="49.42586" lon="1.26212">
        <ele>149</ele>
        <time>2017-03-07T17:20:35Z</time>
      </trkpt>
      <trkpt lat="49.42589" lon="1.26207">
        <ele>148</ele>
        <time>2017-03-07T17:20:35Z</time>
      </trkpt>
      <trkpt lat="49.42593" lon="1.262">
        <ele>148</ele>
        <time>2017-03-07T17:20:35Z</time>
      </trkpt>
      <trkpt lat="49.42596" lon="1.26196">
        <ele>148</ele>
        <time>2017-03-07T17:20:50Z</time>
      </trkpt>
      <trkpt lat="49.42599" lon="1.26188">
        <ele>148</ele>
        <time>2017-03-07T17:20:50Z</time>
      </trkpt>
      <trkpt lat="49.42601" lon="1.26184">
        <ele>148</ele>
        <time>2017-03-07T17:20:50Z</time>
      </trkpt>
      <trkpt lat="49.42603" lon="1.26178">
        <ele>148</ele>
        <time>2017-03-07T17:20:50Z</time>
      </trkpt>
      <trkpt lat="49.42606" lon="1.26169">
        <ele>148</ele>
        <time>2017-03-07T17:21:05Z</time>
      </trkpt>
      <trkpt lat="49.42608" lon="1.26164">
        <ele>148</ele>
        <time>2017-03-07T17:21:06Z</time>
      </trkpt>
      <trkpt lat="49.42611" lon="1.26156">
        <ele>148</ele>
        <time>2017-03-07T17:21:06Z</time>
      </trkpt>
      <trkpt lat="49.42612" lon="1.26149">
        <ele>148</ele>
        <time>2017-03-07T17:21:06Z</time>
      </trkpt>
      <trkpt lat="49.42614" lon="1.26144">
        <ele>148</ele>
        <time>2017-03-07T17:21:22Z</time>
      </trkpt>
      <trkpt lat="49.42617" lon="1.26138">
        <ele>148</ele>
        <time>2017-03-07T17:21:22Z</time>
      </trkpt>
      <trkpt lat="49.42617" lon="1.2613">
        <ele>148</ele>
        <time>2017-03-07T17:21:22Z</time>
      </trkpt>
      <trkpt lat="49.42618" lon="1.26123">
        <ele>147</ele>
        <time>2017-03-07T17:21:22Z</time>
      </trkpt>
      <trkpt lat="49.4262" lon="1.26118">
        <ele>147</ele>
        <time>2017-03-07T17:21:39Z</time>
      </trkpt>
      <trkpt lat="49.42622" lon="1.2611">
        <ele>147</ele>
        <time>2017-03-07T17:21:39Z</time>
      </trkpt>
      <trkpt lat="49.42624" lon="1.26103">
        <ele>147</ele>
        <time>2017-03-07T17:21:39Z</time>
      </trkpt>
      <trkpt lat="49.42625" lon="1.26096">
        <ele>150</ele>
        <time>2017-03-07T17:21:39Z</time>
      </trkpt>
      <trkpt lat="49.42627" lon="1.26091">
        <ele>150</ele>
        <time>2017-03-07T17:21:53Z</time>
      </trkpt>
      <trkpt lat="49.42628" lon="1.26085">
        <ele>150</ele>
        <time>2017-03-07T17:21:54Z</time>
      </trkpt>
      <trkpt lat="49.4263" lon="1.26076">
        <ele>150</ele>
        <time>2017-03-07T17:21:54Z</time>
      </trkpt>
      <trkpt lat="49.42632" lon="1.26068">
        <ele>150</ele>
        <time>2017-03-07T17:21:54Z</time>
      </trkpt>
      <trkpt lat="49.42634" lon="1.26062">
        <ele>150</ele>
        <time>2017-03-07T17:22:10Z</time>
      </trkpt>
      <trkpt lat="49.42637" lon="1.26054">
        <ele>150</ele>
        <time>2017-03-07T17:22:10Z</time>
      </trkpt>
      <trkpt lat="49.42639" lon="1.2605">
        <ele>150</ele>
        <time>2017-03-07T17:22:10Z</time>
      </trkpt>
      <trkpt lat="49.42639" lon="1.26043">
        <ele>150</ele>
        <time>2017-03-07T17:22:10Z</time>
      </trkpt>
      <trkpt lat="49.42641" lon="1.26036">
        <ele>149</ele>
        <time>2017-03-07T17:22:25Z</time>
      </trkpt>
      <trkpt lat="49.42644" lon="1.26027">
        <ele>149</ele>
        <time>2017-03-07T17:22:26Z</time>
      </trkpt>
      <trkpt lat="49.42645" lon="1.26022">
        <ele>149</ele>
        <time>2017-03-07T17:22:26Z</time>
      </trkpt>
      <trkpt lat="49.42647" lon="1.26012">
        <ele>149</ele>
        <time>2017-03-07T17:22:26Z</time>
      </trkpt>
      <trkpt lat="49.42649" lon="1.26005">
        <ele>149</ele>
        <time>2017-03-07T17:22:42Z</time>
      </trkpt>
      <trkpt lat="49.42651" lon="1.26">
        <ele>149</ele>
        <time>2017-03-07T17:22:42Z</time>
      </trkpt>
      <trkpt lat="49.42652" lon="1.25994">
        <ele>149</ele>
        <time>2017-03-07T17:22:42Z</time>
      </trkpt>
      <trkpt lat="49.42653" lon="1.25987">
        <ele>149</ele>
        <time>2017-03-07T17:22:42Z</time>
      </trkpt>
      <trkpt lat="49.42655" lon="1.2598">
        <ele>149</ele>
        <time>2017-03-07T17:22:59Z</time>
      </trkpt>
      <trkpt lat="49.42657" lon="1.25972">
        <ele>149</ele>
        <time>2017-03-07T17:22:59Z</time>
      </trkpt>
      <trkpt lat="49.4266" lon="1.25967">
        <ele>149</ele>
        <time>2017-03-07T17:22:59Z</time>
      </trkpt>
      <trkpt lat="49.42662" lon="1.25962">
        <ele>149</ele>
        <time>2017-03-07T17:22:59Z</time>
      </trkpt>
      <trkpt lat="49.42663" lon="1.25957">
        <ele>149</ele>
        <time>2017-03-07T17:23:14Z</time>
      </trkpt>
      <trkpt lat="49.42667" lon="1.25951">
        <ele>149</ele>
        <time>2017-03-07T17:23:14Z</time>
      </trkpt>
      <trkpt lat="49.42668" lon="1.25943">
        <ele>149</ele>
        <time>2017-03-07T17:23:14Z</time>
      </trkpt>
      <trkpt lat="49.42669" lon="1.25937">
        <ele>149</ele>
        <time>2017-03-07T17:23:14Z</time>
      </trkpt>
      <trkpt lat="49.42672" lon="1.25912">
        <ele>149</ele>
        <time>2017-03-07T17:23:39Z</time>
      </trkpt>
      <trkpt lat="49.42674" lon="1.25904">
        <ele>149</ele>
        <time>2017-03-07T17:23:39Z</time>
      </trkpt>
      <trkpt lat="49.42675" lon="1.259">
        <ele>149</ele>
        <time>2017-03-07T17:23:39Z</time>
      </trkpt>
      <trkpt lat="49.42679" lon="1.25895">
        <ele>149</ele>
        <time>2017-03-07T17:23:39Z</time>
      </trkpt>
      <trkpt lat="49.42681" lon="1.25887">
        <ele>149</ele>
        <time>2017-03-07T17:23:54Z</time>
      </trkpt>
      <trkpt lat="49.42682" lon="1.25878">
        <ele>149</ele>
        <time>2017-03-07T17:23:54Z</time>
      </trkpt>
      <trkpt lat="49.42684" lon="1.25874">
        <ele>149</ele>
        <time>2017-03-07T17:23:54Z</time>
      </trkpt>
      <trkpt lat="49.42685" lon="1.25868">
        <ele>149</ele>
        <time>2017-03-07T17:23:54Z</time>
      </trkpt>
      <trkpt lat="49.42686" lon="1.2586">
        <ele>149</ele>
        <time>2017-03-07T17:24:10Z</time>
      </trkpt>
      <trkpt lat="49.42686" lon="1.25856">
        <ele>149</ele>
        <time>2017-03-07T17:24:10Z</time>
      </trkpt>
      <trkpt lat="49.42688" lon="1.25848">
        <ele>149</ele>
        <time>2017-03-07T17:24:10Z</time>
      </trkpt>
      <trkpt lat="49.4269" lon="1.25842">
        <ele>149</ele>
        <time>2017-03-07T17:24:10Z</time>
      </trkpt>
      <trkpt lat="49.42692" lon="1.25833">
        <ele>149</ele>
        <time>2017-03-07T17:24:26Z</time>
      </trkpt>
      <trkpt lat="49.42693" lon="1.25826">
        <ele>149</ele>
        <time>2017-03-07T17:24:26Z</time>
      </trkpt>
      <trkpt lat="49.42696" lon="1.25818">
        <ele>149</ele>
        <time>2017-03-07T17:24:26Z</time>
      </trkpt>
      <trkpt lat="49.42698" lon="1.25812">
        <ele>149</ele>
        <time>2017-03-07T17:24:26Z</time>
      </trkpt>
      <trkpt lat="49.42699" lon="1.25806">
        <ele>149</ele>
        <time>2017-03-07T17:24:41Z</time>
      </trkpt>
      <trkpt lat="49.42701" lon="1.25798">
        <ele>149</ele>
        <time>2017-03-07T17:24:42Z</time>
      </trkpt>
      <trkpt lat="49.42704" lon="1.25793">
        <ele>149</ele>
        <time>2017-03-07T17:24:42Z</time>
      </trkpt>
      <trkpt lat="49.42707" lon="1.25789">
        <ele>151</ele>
        <time>2017-03-07T17:24:42Z</time>
      </trkpt>
      <trkpt lat="49.42709" lon="1.25785">
        <ele>152</ele>
        <time>2017-03-07T17:24:58Z</time>
      </trkpt>
      <trkpt lat="49.42712" lon="1.25781">
        <ele>152</ele>
        <time>2017-03-07T17:24:58Z</time>
      </trkpt>
      <trkpt lat="49.42715" lon="1.25778">
        <ele>152</ele>
        <time>2017-03-07T17:24:58Z</time>
      </trkpt>
      <trkpt lat="49.42719" lon="1.25772">
        <ele>152</ele>
        <time>2017-03-07T17:24:58Z</time>
      </trkpt>
      <trkpt lat="49.42722" lon="1.25766">
        <ele>152</ele>
        <time>2017-03-07T17:25:14Z</time>
      </trkpt>
      <trkpt lat="49.42724" lon="1.25763">
        <ele>152</ele>
        <time>2017-03-07T17:25:14Z</time>
      </trkpt>
      <trkpt lat="49.42727" lon="1.2576">
        <ele>152</ele>
        <time>2017-03-07T17:25:14Z</time>
      </trkpt>
      <trkpt lat="49.42732" lon="1.25753">
        <ele>152</ele>
        <time>2017-03-07T17:25:14Z</time>
      </trkpt>
      <trkpt lat="49.42734" lon="1.25743">
        <ele>152</ele>
        <time>2017-03-07T17:25:38Z</time>
      </trkpt>
      <trkpt lat="49.42736" lon="1.25738">
        <ele>152</ele>
        <time>2017-03-07T17:25:38Z</time>
      </trkpt>
      <trkpt lat="49.42736" lon="1.25738">
        <ele>152</ele>
        <time>2017-03-07T17:25:38Z</time>
      </trkpt>
      <trkpt lat="49.42738" lon="1.25736">
        <ele>152</ele>
        <time>2017-03-07T17:25:38Z</time>
      </trkpt>
      <trkpt lat="49.42741" lon="1.25733">
        <ele>152</ele>
        <time>2017-03-07T17:25:38Z</time>
      </trkpt>
      <trkpt lat="49.42747" lon="1.25724">
        <ele>152</ele>
        <time>2017-03-07T17:27:14Z</time>
      </trkpt>
      <trkpt lat="49.42748" lon="1.25724">
        <ele>152</ele>
        <time>2017-03-07T17:27:14Z</time>
      </trkpt>
      <trkpt lat="49.42752" lon="1.25719">
        <ele>152</ele>
        <time>2017-03-07T17:27:14Z</time>
      </trkpt>
      <trkpt lat="49.42753" lon="1.25716">
        <ele>152</ele>
        <time>2017-03-07T17:27:14Z</time>
      </trkpt>
      <trkpt lat="49.42755" lon="1.25715">
        <ele>152</ele>
        <time>2017-03-07T17:27:14Z</time>
      </trkpt>
      <trkpt lat="49.42756" lon="1.25716">
        <ele>152</ele>
        <time>2017-03-07T17:28:41Z</time>
      </trkpt>
      <trkpt lat="49.42756" lon="1.25717">
        <ele>152</ele>
        <time>2017-03-07T17:28:42Z</time>
      </trkpt>
      <trkpt lat="49.42759" lon="1.25713">
        <ele>152</ele>
        <time>2017-03-07T17:28:42Z</time>
      </trkpt>
      <trkpt lat="49.42762" lon="1.25709">
        <ele>152</ele>
        <time>2017-03-07T17:28:42Z</time>
      </trkpt>
      <trkpt lat="49.42765" lon="1.25705">
        <ele>153</ele>
        <time>2017-03-07T17:28:42Z</time>
      </trkpt>
      <trkpt lat="49.42768" lon="1.25702">
        <ele>153</ele>
        <time>2017-03-07T17:29:03Z</time>
      </trkpt>
      <trkpt lat="49.42772" lon="1.25696">
        <ele>153</ele>
        <time>2017-03-07T17:29:03Z</time>
      </trkpt>
      <trkpt lat="49.42773" lon="1.25694">
        <ele>153</ele>
        <time>2017-03-07T17:29:03Z</time>
      </trkpt>
      <trkpt lat="49.42773" lon="1.25693">
        <ele>153</ele>
        <time>2017-03-07T17:29:03Z</time>
      </trkpt>
      <trkpt lat="49.42778" lon="1.25695">
        <ele>153</ele>
        <time>2017-03-07T17:29:02Z</time>
      </trkpt>
      <trkpt lat="49.42781" lon="1.25686">
        <ele>153</ele>
        <time>2017-03-07T17:29:17Z</time>
      </trkpt>
      <trkpt lat="49.42785" lon="1.25682">
        <ele>153</ele>
        <time>2017-03-07T17:29:18Z</time>
      </trkpt>
      <trkpt lat="49.4279" lon="1.25678">
        <ele>153</ele>
        <time>2017-03-07T17:29:18Z</time>
      </trkpt>
      <trkpt lat="49.42793" lon="1.25675">
        <ele>153</ele>
        <time>2017-03-07T17:29:18Z</time>
      </trkpt>
      <trkpt lat="49.42797" lon="1.25672">
        <ele>153</ele>
        <time>2017-03-07T17:29:34Z</time>
      </trkpt>
      <trkpt lat="49.428" lon="1.2567">
        <ele>153</ele>
        <time>2017-03-07T17:29:34Z</time>
      </trkpt>
      <trkpt lat="49.42805" lon="1.25666">
        <ele>153</ele>
        <time>2017-03-07T17:29:34Z</time>
      </trkpt>
      <trkpt lat="49.42808" lon="1.2566">
        <ele>153</ele>
        <time>2017-03-07T17:29:34Z</time>
      </trkpt>
      <trkpt lat="49.42812" lon="1.25654">
        <ele>153</ele>
        <time>2017-03-07T17:29:50Z</time>
      </trkpt>
      <trkpt lat="49.42816" lon="1.25652">
        <ele>153</ele>
        <time>2017-03-07T17:29:50Z</time>
      </trkpt>
      <trkpt lat="49.42821" lon="1.25647">
        <ele>153</ele>
        <time>2017-03-07T17:29:50Z</time>
      </trkpt>
      <trkpt lat="49.42827" lon="1.25639">
        <ele>153</ele>
        <time>2017-03-07T17:29:50Z</time>
      </trkpt>
      <trkpt lat="49.4283" lon="1.25638">
        <ele>153</ele>
        <time>2017-03-07T17:30:06Z</time>
      </trkpt>
      <trkpt lat="49.42834" lon="1.25633">
        <ele>153</ele>
        <time>2017-03-07T17:30:06Z</time>
      </trkpt>
      <trkpt lat="49.42836" lon="1.25631">
        <ele>153</ele>
        <time>2017-03-07T17:30:06Z</time>
      </trkpt>
      <trkpt lat="49.42842" lon="1.25624">
        <ele>154</ele>
        <time>2017-03-07T17:30:06Z</time>
      </trkpt>
      <trkpt lat="49.42846" lon="1.2562">
        <ele>154</ele>
        <time>2017-03-07T17:30:21Z</time>
      </trkpt>
      <trkpt lat="49.42851" lon="1.25615">
        <ele>154</ele>
        <time>2017-03-07T17:30:22Z</time>
      </trkpt>
      <trkpt lat="49.42855" lon="1.25611">
        <ele>154</ele>
        <time>2017-03-07T17:30:22Z</time>
      </trkpt>
      <trkpt lat="49.42859" lon="1.25608">
        <ele>154</ele>
        <time>2017-03-07T17:30:22Z</time>
      </trkpt>
      <trkpt lat="49.42862" lon="1.25604">
        <ele>154</ele>
        <time>2017-03-07T17:30:41Z</time>
      </trkpt>
      <trkpt lat="49.42863" lon="1.25603">
        <ele>154</ele>
        <time>2017-03-07T17:30:42Z</time>
      </trkpt>
      <trkpt lat="49.42864" lon="1.25602">
        <ele>154</ele>
        <time>2017-03-07T17:30:42Z</time>
      </trkpt>
      <trkpt lat="49.42867" lon="1.25599">
        <ele>154</ele>
        <time>2017-03-07T17:30:42Z</time>
      </trkpt>
      <trkpt lat="49.42872" lon="1.25594">
        <ele>154</ele>
        <time>2017-03-07T17:30:42Z</time>
      </trkpt>
      <trkpt lat="49.42874" lon="1.25589">
        <ele>154</ele>
        <time>2017-03-07T17:30:57Z</time>
      </trkpt>
      <trkpt lat="49.42878" lon="1.25586">
        <ele>152</ele>
        <time>2017-03-07T17:30:58Z</time>
      </trkpt>
      <trkpt lat="49.42881" lon="1.25581">
        <ele>152</ele>
        <time>2017-03-07T17:30:58Z</time>
      </trkpt>
      <trkpt lat="49.42886" lon="1.25579">
        <ele>152</ele>
        <time>2017-03-07T17:30:58Z</time>
      </trkpt>
      <trkpt lat="49.4289" lon="1.25574">
        <ele>152</ele>
        <time>2017-03-07T17:31:13Z</time>
      </trkpt>
      <trkpt lat="49.42894" lon="1.25569">
        <ele>152</ele>
        <time>2017-03-07T17:31:14Z</time>
      </trkpt>
      <trkpt lat="49.42898" lon="1.25565">
        <ele>152</ele>
        <time>2017-03-07T17:31:14Z</time>
      </trkpt>
      <trkpt lat="49.42902" lon="1.25561">
        <ele>152</ele>
        <time>2017-03-07T17:31:14Z</time>
      </trkpt>
      <trkpt lat="49.42906" lon="1.25558">
        <ele>152</ele>
        <time>2017-03-07T17:31:29Z</time>
      </trkpt>
      <trkpt lat="49.4291" lon="1.25554">
        <ele>152</ele>
        <time>2017-03-07T17:31:30Z</time>
      </trkpt>
      <trkpt lat="49.42914" lon="1.25552">
        <ele>152</ele>
        <time>2017-03-07T17:31:30Z</time>
      </trkpt>
      <trkpt lat="49.42918" lon="1.2555">
        <ele>152</ele>
        <time>2017-03-07T17:31:30Z</time>
      </trkpt>
      <trkpt lat="49.42923" lon="1.25545">
        <ele>152</ele>
        <time>2017-03-07T17:32:22Z</time>
      </trkpt>
      <trkpt lat="49.42923" lon="1.25545">
        <ele>152</ele>
        <time>2017-03-07T17:32:22Z</time>
      </trkpt>
      <trkpt lat="49.42928" lon="1.25545">
        <ele>152</ele>
        <time>2017-03-07T17:32:22Z</time>
      </trkpt>
      <trkpt lat="49.42934" lon="1.25543">
        <ele>152</ele>
        <time>2017-03-07T17:32:22Z</time>
      </trkpt>
      <trkpt lat="49.4294" lon="1.25543">
        <ele>152</ele>
        <time>2017-03-07T17:32:22Z</time>
      </trkpt>
      <trkpt lat="49.42944" lon="1.25543">
        <ele>152</ele>
        <time>2017-03-07T17:32:37Z</time>
      </trkpt>
      <trkpt lat="49.4295" lon="1.25543">
        <ele>152</ele>
        <time>2017-03-07T17:32:38Z</time>
      </trkpt>
      <trkpt lat="49.42955" lon="1.25545">
        <ele>152</ele>
        <time>2017-03-07T17:32:39Z</time>
      </trkpt>
      <trkpt lat="49.42961" lon="1.25547">
        <ele>149</ele>
        <time>2017-03-07T17:32:39Z</time>
      </trkpt>
      <trkpt lat="49.42968" lon="1.25548">
        <ele>149</ele>
        <time>2017-03-07T17:32:54Z</time>
      </trkpt>
      <trkpt lat="49.42972" lon="1.2555">
        <ele>149</ele>
        <time>2017-03-07T17:32:54Z</time>
      </trkpt>
      <trkpt lat="49.42977" lon="1.2555">
        <ele>149</ele>
        <time>2017-03-07T17:32:54Z</time>
      </trkpt>
      <trkpt lat="49.4298" lon="1.25551">
        <ele>149</ele>
        <time>2017-03-07T17:32:54Z</time>
      </trkpt>
      <trkpt lat="49.42986" lon="1.25552">
        <ele>149</ele>
        <time>2017-03-07T17:33:14Z</time>
      </trkpt>
      <trkpt lat="49.42997" lon="1.25554">
        <ele>149</ele>
        <time>2017-03-07T17:33:14Z</time>
      </trkpt>
      <trkpt lat="49.43003" lon="1.25555">
        <ele>149</ele>
        <time>2017-03-07T17:33:14Z</time>
      </trkpt>
      <trkpt lat="49.43007" lon="1.25556">
        <ele>149</ele>
        <time>2017-03-07T17:33:14Z</time>
      </trkpt>
      <trkpt lat="49.43012" lon="1.25556">
        <ele>149</ele>
        <time>2017-03-07T17:33:30Z</time>
      </trkpt>
      <trkpt lat="49.43016" lon="1.25557">
        <ele>149</ele>
        <time>2017-03-07T17:33:30Z</time>
      </trkpt>
      <trkpt lat="49.43023" lon="1.25558">
        <ele>149</ele>
        <time>2017-03-07T17:33:30Z</time>
      </trkpt>
      <trkpt lat="49.43028" lon="1.25559">
        <ele>149</ele>
        <time>2017-03-07T17:33:30Z</time>
      </trkpt>
      <trkpt lat="49.43032" lon="1.2556">
        <ele>149</ele>
        <time>2017-03-07T17:33:47Z</time>
      </trkpt>
      <trkpt lat="49.43039" lon="1.25561">
        <ele>149</ele>
        <time>2017-03-07T17:33:47Z</time>
      </trkpt>
      <trkpt lat="49.43043" lon="1.25562">
        <ele>150</ele>
        <time>2017-03-07T17:33:47Z</time>
      </trkpt>
      <trkpt lat="49.43047" lon="1.25564">
        <ele>150</ele>
        <time>2017-03-07T17:33:47Z</time>
      </trkpt>
      <trkpt lat="49.43054" lon="1.25565">
        <ele>150</ele>
        <time>2017-03-07T17:34:01Z</time>
      </trkpt>
      <trkpt lat="49.4306" lon="1.25566">
        <ele>150</ele>
        <time>2017-03-07T17:34:02Z</time>
      </trkpt>
      <trkpt lat="49.43066" lon="1.25567">
        <ele>150</ele>
        <time>2017-03-07T17:34:02Z</time>
      </trkpt>
      <trkpt lat="49.4307" lon="1.25568">
        <ele>150</ele>
        <time>2017-03-07T17:34:02Z</time>
      </trkpt>
      <trkpt lat="49.43077" lon="1.25567">
        <ele>150</ele>
        <time>2017-03-07T17:34:18Z</time>
      </trkpt>
      <trkpt lat="49.43083" lon="1.25567">
        <ele>150</ele>
        <time>2017-03-07T17:34:18Z</time>
      </trkpt>
      <trkpt lat="49.4309" lon="1.25567">
        <ele>150</ele>
        <time>2017-03-07T17:34:20Z</time>
      </trkpt>
      <trkpt lat="49.43094" lon="1.25567">
        <ele>150</ele>
        <time>2017-03-07T17:34:20Z</time>
      </trkpt>
      <trkpt lat="49.431" lon="1.25566">
        <ele>150</ele>
        <time>2017-03-07T17:34:33Z</time>
      </trkpt>
      <trkpt lat="49.43106" lon="1.25566">
        <ele>150</ele>
        <time>2017-03-07T17:34:34Z</time>
      </trkpt>
      <trkpt lat="49.43111" lon="1.25565">
        <ele>150</ele>
        <time>2017-03-07T17:34:34Z</time>
      </trkpt>
      <trkpt lat="49.43117" lon="1.25564">
        <ele>150</ele>
        <time>2017-03-07T17:34:35Z</time>
      </trkpt>
      <trkpt lat="49.43119" lon="1.25564">
        <ele>150</ele>
        <time>2017-03-07T17:34:49Z</time>
      </trkpt>
      <trkpt lat="49.43128" lon="1.25564">
        <ele>150</ele>
        <time>2017-03-07T17:34:50Z</time>
      </trkpt>
      <trkpt lat="49.43133" lon="1.25563">
        <ele>150</ele>
        <time>2017-03-07T17:34:50Z</time>
      </trkpt>
      <trkpt lat="49.43139" lon="1.25563">
        <ele>150</ele>
        <time>2017-03-07T17:34:50Z</time>
      </trkpt>
      <trkpt lat="49.43144" lon="1.25562">
        <ele>150</ele>
        <time>2017-03-07T17:35:05Z</time>
      </trkpt>
      <trkpt lat="49.43148" lon="1.25562">
        <ele>150</ele>
        <time>2017-03-07T17:35:06Z</time>
      </trkpt>
      <trkpt lat="49.43156" lon="1.25561">
        <ele>150</ele>
        <time>2017-03-07T17:35:06Z</time>
      </trkpt>
      <trkpt lat="49.43163" lon="1.2556">
        <ele>150</ele>
        <time>2017-03-07T17:35:06Z</time>
      </trkpt>
      <trkpt lat="49.43168" lon="1.2556">
        <ele>150</ele>
        <time>2017-03-07T17:35:22Z</time>
      </trkpt>
      <trkpt lat="49.43173" lon="1.25559">
        <ele>150</ele>
        <time>2017-03-07T17:35:22Z</time>
      </trkpt>
      <trkpt lat="49.43177" lon="1.2556">
        <ele>150</ele>
        <time>2017-03-07T17:35:22Z</time>
      </trkpt>
      <trkpt lat="49.43186" lon="1.25558">
        <ele>150</ele>
        <time>2017-03-07T17:35:22Z</time>
      </trkpt>
      <trkpt lat="49.43193" lon="1.25557">
        <ele>150</ele>
        <time>2017-03-07T17:35:37Z</time>
      </trkpt>
      <trkpt lat="49.43197" lon="1.25557">
        <ele>150</ele>
        <time>2017-03-07T17:35:38Z</time>
      </trkpt>
      <trkpt lat="49.43201" lon="1.25558">
        <ele>150</ele>
        <time>2017-03-07T17:35:38Z</time>
      </trkpt>
      <trkpt lat="49.43207" lon="1.25558">
        <ele>150</ele>
        <time>2017-03-07T17:35:38Z</time>
      </trkpt>
      <trkpt lat="49.43211" lon="1.25558">
        <ele>153</ele>
        <time>2017-03-07T17:35:53Z</time>
      </trkpt>
      <trkpt lat="49.43215" lon="1.25558">
        <ele>153</ele>
        <time>2017-03-07T17:35:54Z</time>
      </trkpt>
      <trkpt lat="49.43219" lon="1.25558">
        <ele>153</ele>
        <time>2017-03-07T17:35:54Z</time>
      </trkpt>
      <trkpt lat="49.43224" lon="1.25559">
        <ele>153</ele>
        <time>2017-03-07T17:35:54Z</time>
      </trkpt>
      <trkpt lat="49.43227" lon="1.2556">
        <ele>153</ele>
        <time>2017-03-07T17:36:09Z</time>
      </trkpt>
      <trkpt lat="49.43228" lon="1.2556">
        <ele>153</ele>
        <time>2017-03-07T17:36:11Z</time>
      </trkpt>
      <trkpt lat="49.43233" lon="1.25562">
        <ele>153</ele>
        <time>2017-03-07T17:36:11Z</time>
      </trkpt>
      <trkpt lat="49.43239" lon="1.25561">
        <ele>153</ele>
        <time>2017-03-07T17:36:11Z</time>
      </trkpt>
      <trkpt lat="49.43243" lon="1.25561">
        <ele>153</ele>
        <time>2017-03-07T17:36:25Z</time>
      </trkpt>
      <trkpt lat="49.43249" lon="1.25562">
        <ele>153</ele>
        <time>2017-03-07T17:36:26Z</time>
      </trkpt>
      <trkpt lat="49.43255" lon="1.2556">
        <ele>153</ele>
        <time>2017-03-07T17:36:26Z</time>
      </trkpt>
      <trkpt lat="49.4326" lon="1.25561">
        <ele>153</ele>
        <time>2017-03-07T17:36:26Z</time>
      </trkpt>
      <trkpt lat="49.43263" lon="1.25562">
        <ele>153</ele>
        <time>2017-03-07T17:36:41Z</time>
      </trkpt>
      <trkpt lat="49.43268" lon="1.25562">
        <ele>153</ele>
        <time>2017-03-07T17:36:42Z</time>
      </trkpt>
      <trkpt lat="49.43275" lon="1.25562">
        <ele>153</ele>
        <time>2017-03-07T17:36:42Z</time>
      </trkpt>
      <trkpt lat="49.4328" lon="1.25563">
        <ele>153</ele>
        <time>2017-03-07T17:36:42Z</time>
      </trkpt>
      <trkpt lat="49.43286" lon="1.25563">
        <ele>153</ele>
        <time>2017-03-07T17:36:57Z</time>
      </trkpt>
      <trkpt lat="49.43292" lon="1.25564">
        <ele>155</ele>
        <time>2017-03-07T17:36:58Z</time>
      </trkpt>
      <trkpt lat="49.433" lon="1.25566">
        <ele>155</ele>
        <time>2017-03-07T17:36:58Z</time>
      </trkpt>
      <trkpt lat="49.43302" lon="1.25572">
        <ele>155</ele>
        <time>2017-03-07T17:36:58Z</time>
      </trkpt>
      <trkpt lat="49.43303" lon="1.25579">
        <ele>155</ele>
        <time>2017-03-07T17:37:13Z</time>
      </trkpt>
      <trkpt lat="49.43305" lon="1.25588">
        <ele>155</ele>
        <time>2017-03-07T17:37:14Z</time>
      </trkpt>
      <trkpt lat="49.43306" lon="1.25595">
        <ele>155</ele>
        <time>2017-03-07T17:37:14Z</time>
      </trkpt>
      <trkpt lat="49.43308" lon="1.25602">
        <ele>155</ele>
        <time>2017-03-07T17:37:14Z</time>
      </trkpt>
      <trkpt lat="49.43308" lon="1.25609">
        <ele>155</ele>
        <time>2017-03-07T17:37:29Z</time>
      </trkpt>
      <trkpt lat="49.43309" lon="1.25617">
        <ele>155</ele>
        <time>2017-03-07T17:37:30Z</time>
      </trkpt>
      <trkpt lat="49.4331" lon="1.25625">
        <ele>154</ele>
        <time>2017-03-07T17:37:30Z</time>
      </trkpt>
      <trkpt lat="49.4331" lon="1.25634">
        <ele>154</ele>
        <time>2017-03-07T17:37:30Z</time>
      </trkpt>
      <trkpt lat="49.43309" lon="1.25642">
        <ele>154</ele>
        <time>2017-03-07T17:37:45Z</time>
      </trkpt>
      <trkpt lat="49.43308" lon="1.25649">
        <ele>154</ele>
        <time>2017-03-07T17:37:46Z</time>
      </trkpt>
      <trkpt lat="49.43308" lon="1.25655">
        <ele>154</ele>
        <time>2017-03-07T17:37:46Z</time>
      </trkpt>
      <trkpt lat="49.43307" lon="1.2566">
        <ele>154</ele>
        <time>2017-03-07T17:37:46Z</time>
      </trkpt>
    </trkseg>
  </trk>
</gpx>